[[{"header":{"parameterUnit":"m.s-1","parameterCategory":1,"la1":30.6,"la2":29.2853,"lo1":-89.7004,"lo2":-87.6739,"dy":0.0162,"dx":0.0183,"nx":112,"ny":82,"refTime":"2024-09-01T00:00:00:Z","depth":0,"parameterNumber":2,"parameterNumberName":"U-component_of_WINDS"},"data":[0.0,0.0,0.0,0.0,0.0,0.0,0.0,0.0,0.0,0.0,0.0,0.0,0.0,0.0,0.0,0.0,0.0,0.0,0.0,0.0,0.0,0.0,0.0,0.0,0.0,0.0,0.0,0.0,0.0,0.0,0.0,0.0,0.0,0.0,0.0,0.0,0.0,0.0,0.0,0.0,0.0,0.0,0.0,0.0,0.0,0.0,0.0,0.0,0.0,0.0,0.0,0.0,0.0,0.0,0.0,0.0,0.0,0.0,0.0,0.0,0.0,0.0,0.0,0.0,0.0,0.0,0.0,0.0,0.0,0.0,0.0,0.0,0.0,0.0,0.0,0.0,0.0,0.0,0.0,0.0,0.0,0.0,0.0,0.0,0.0,0.0,0.0,0.0,0.0,0.0,-2.5941,-2.7052,-2.9839,-3.1459,-3.1055,-3.0645,-2.8534,-2.4152,0.0,0.0,0.0,0.0,0.0,0.0,0.0,0.0,0.0,0.0,0.0,0.0,0.0,0.0,0.0,0.0,0.0,0.0,0.0,0.0,0.0,0.0,0.0,0.0,0.0,0.0,0.0,0.0,0.0,0.0,0.0,0.0,0.0,0.0,0.0,0.0,0.0,0.0,0.0,0.0,0.0,0.0,0.0,0.0,0.0,0.0,0.0,0.0,0.0,0.0,0.0,0.0,0.0,0.0,0.0,0.0,0.0,0.0,0.0,0.0,0.0,0.0,0.0,0.0,0.0,0.0,0.0,0.0,0.0,0.0,0.0,0.0,0.0,0.0,0.0,0.0,0.0,0.0,0.0,0.0,0.0,0.0,0.0,0.0,0.0,0.0,0.0,0.0,0.0,0.0,0.0,0.0,0.0,0.0,0.0,0.0,0.0,0.0,0.0,0.0,0.0,0.0,0.0,0.0,-2.7595,-3.1527,-3.1259,-3.0609,-3.0222,-2.9822,-2.7781,-2.3585,0.0,0.0,0.0,0.0,0.0,0.0,0.0,0.0,0.0,0.0,0.0,0.0,0.0,0.0,0.0,0.0,0.0,0.0,0.0,0.0,0.0,0.0,0.0,0.0,0.0,0.0,0.0,0.0,0.0,0.0,0.0,0.0,0.0,0.0,0.0,0.0,0.0,0.0,0.0,0.0,0.0,0.0,0.0,0.0,0.0,0.0,0.0,0.0,0.0,0.0,0.0,0.0,0.0,0.0,0.0,0.0,0.0,0.0,0.0,0.0,0.0,0.0,0.0,0.0,0.0,0.0,0.0,0.0,0.0,0.0,0.0,0.0,0.0,0.0,0.0,0.0,0.0,0.0,0.0,0.0,0.0,0.0,0.0,0.0,0.0,0.0,0.0,0.0,0.0,0.0,0.0,0.0,0.0,0.0,0.0,0.0,0.0,0.0,0.0,0.0,0.0,0.0,0.0,-2.5488,-2.7298,-3.1259,-3.0641,-2.9839,-2.9531,-2.9247,-2.7365,-2.3352,-2.3046,0.0,0.0,0.0,0.0,0.0,0.0,0.0,0.0,0.0,0.0,0.0,0.0,0.0,0.0,0.0,0.0,0.0,0.0,0.0,0.0,0.0,0.0,0.0,0.0,0.0,0.0,0.0,0.0,0.0,0.0,0.0,0.0,0.0,0.0,0.0,0.0,0.0,0.0,0.0,0.0,0.0,0.0,0.0,0.0,0.0,0.0,0.0,0.0,0.0,0.0,0.0,0.0,0.0,0.0,0.0,0.0,0.0,0.0,0.0,0.0,0.0,0.0,0.0,0.0,0.0,0.0,0.0,0.0,0.0,0.0,0.0,0.0,0.0,0.0,0.0,0.0,0.0,0.0,0.0,0.0,0.0,0.0,0.0,0.0,0.0,0.0,0.0,0.0,0.0,0.0,0.0,0.0,0.0,0.0,0.0,0.0,0.0,0.0,0.0,0.0,0.0,0.0,-2.6638,-2.6942,-3.0259,-2.9869,-2.922,-2.8832,-2.8364,-2.6555,-2.2934,-2.2249,0.0,0.0,0.0,0.0,0.0,0.0,0.0,0.0,0.0,0.0,0.0,0.0,0.0,0.0,0.0,0.0,0.0,0.0,0.0,0.0,0.0,0.0,0.0,0.0,0.0,0.0,0.0,0.0,0.0,0.0,0.0,0.0,0.0,0.0,0.0,0.0,0.0,0.0,0.0,0.0,0.0,0.0,0.0,0.0,0.0,0.0,0.0,0.0,0.0,0.0,0.0,0.0,0.0,0.0,0.0,0.0,0.0,0.0,0.0,0.0,0.0,0.0,0.0,0.0,0.0,0.0,0.0,0.0,0.0,0.0,0.0,0.0,0.0,0.0,0.0,0.0,0.0,0.0,0.0,0.0,0.0,0.0,0.0,0.0,0.0,0.0,0.0,0.0,0.0,0.0,0.0,0.0,0.0,0.0,0.0,0.0,0.0,0.0,0.0,0.0,0.0,0.0,-2.6106,-2.7556,-3.0304,-2.9826,-2.8923,-2.7967,-2.6735,-2.4836,-2.2048,-2.0645,0.0,0.0,0.0,0.0,0.0,0.0,0.0,0.0,0.0,0.0,0.0,0.0,0.0,0.0,0.0,0.0,0.0,0.0,0.0,0.0,0.0,0.0,0.0,0.0,0.0,0.0,0.0,0.0,0.0,0.0,0.0,0.0,0.0,0.0,0.0,0.0,0.0,0.0,0.0,0.0,0.0,0.0,0.0,0.0,0.0,0.0,0.0,0.0,0.0,0.0,0.0,0.0,0.0,0.0,0.0,0.0,0.0,0.0,0.0,0.0,0.0,0.0,0.0,0.0,0.0,0.0,0.0,0.0,0.0,0.0,0.0,0.0,0.0,0.0,0.0,0.0,0.0,0.0,0.0,0.0,0.0,0.0,0.0,0.0,0.0,0.0,0.0,0.0,0.0,0.0,0.0,0.0,0.0,0.0,0.0,0.0,0.0,0.0,0.0,0.0,0.0,0.0,-2.4897,-2.6366,-2.8048,-2.8381,-2.8075,-2.7006,-2.6354,-2.479,-2.1984,0.0,0.0,0.0,0.0,0.0,0.0,0.0,0.0,0.0,0.0,0.0,0.0,0.0,0.0,0.0,0.0,0.0,0.0,0.0,0.0,0.0,0.0,0.0,0.0,0.0,0.0,0.0,0.0,0.0,0.0,0.0,0.0,0.0,0.0,0.0,0.0,0.0,0.0,0.0,0.0,0.0,0.0,0.0,0.0,0.0,0.0,0.0,0.0,0.0,0.0,0.0,0.0,0.0,0.0,0.0,0.0,0.0,0.0,0.0,0.0,0.0,0.0,0.0,0.0,0.0,0.0,0.0,0.0,0.0,0.0,0.0,0.0,0.0,0.0,0.0,0.0,0.0,0.0,0.0,0.0,0.0,0.0,0.0,0.0,0.0,0.0,0.0,0.0,0.0,0.0,0.0,0.0,0.0,0.0,0.0,0.0,0.0,0.0,0.0,0.0,0.0,0.0,-2.2433,-2.4002,-2.5376,-2.6423,-2.702,-2.6937,-2.5943,-2.522,-2.3843,-2.1557,0.0,0.0,0.0,0.0,0.0,0.0,0.0,0.0,0.0,0.0,0.0,0.0,0.0,0.0,0.0,0.0,0.0,0.0,0.0,0.0,0.0,0.0,0.0,0.0,0.0,0.0,0.0,0.0,0.0,0.0,0.0,0.0,0.0,0.0,0.0,0.0,0.0,0.0,0.0,0.0,0.0,0.0,0.0,0.0,0.0,0.0,0.0,0.0,0.0,0.0,0.0,0.0,0.0,0.0,0.0,0.0,0.0,0.0,0.0,0.0,0.0,0.0,0.0,0.0,0.0,0.0,0.0,0.0,0.0,0.0,0.0,0.0,0.0,0.0,0.0,0.0,0.0,0.0,0.0,0.0,0.0,0.0,0.0,0.0,0.0,0.0,0.0,0.0,0.0,0.0,0.0,0.0,0.0,0.0,0.0,0.0,0.0,0.0,0.0,0.0,0.0,0.0,-2.2135,-2.3578,-2.4872,-2.5877,-2.5919,-2.5566,-2.4746,-2.309,-2.1682,0.0,0.0,0.0,0.0,0.0,0.0,0.0,0.0,0.0,0.0,0.0,0.0,0.0,0.0,0.0,0.0,0.0,0.0,0.0,0.0,0.0,0.0,0.0,0.0,0.0,0.0,0.0,0.0,0.0,0.0,0.0,0.0,0.0,0.0,0.0,0.0,0.0,0.0,0.0,0.0,0.0,0.0,0.0,0.0,0.0,0.0,0.0,0.0,0.0,0.0,0.0,0.0,0.0,0.0,0.0,0.0,0.0,0.0,0.0,0.0,0.0,0.0,0.0,0.0,0.0,0.0,0.0,0.0,0.0,0.0,0.0,0.0,0.0,0.0,0.0,0.0,0.0,0.0,0.0,0.0,0.0,0.0,0.0,0.0,0.0,0.0,0.0,0.0,0.0,0.0,0.0,0.0,0.0,0.0,0.0,0.0,0.0,0.0,0.0,0.0,0.0,0.0,0.0,-2.1292,-2.3112,-2.4316,-2.4193,-2.4658,-2.4611,-2.3642,-2.2582,-2.1528,-2.0523,0.0,0.0,0.0,0.0,0.0,0.0,0.0,0.0,0.0,0.0,0.0,0.0,0.0,0.0,0.0,0.0,0.0,0.0,0.0,0.0,0.0,0.0,0.0,0.0,0.0,0.0,0.0,0.0,0.0,0.0,0.0,0.0,0.0,0.0,0.0,0.0,0.0,0.0,0.0,0.0,0.0,0.0,0.0,0.0,0.0,0.0,0.0,0.0,0.0,0.0,0.0,0.0,0.0,0.0,0.0,0.0,0.0,0.0,0.0,0.0,0.0,0.0,0.0,0.0,0.0,0.0,0.0,0.0,0.0,0.0,0.0,0.0,0.0,0.0,0.0,0.0,0.0,0.0,0.0,0.0,0.0,0.0,0.0,0.0,0.0,0.0,0.0,0.0,0.0,0.0,0.0,0.0,0.0,0.0,0.0,0.0,0.0,0.0,0.0,0.0,0.0,0.0,-2.1144,-2.2665,-2.364,-2.3573,-2.3733,-2.3601,-2.2992,-2.2134,-2.1243,-2.0374,0.0,0.0,0.0,0.0,0.0,0.0,0.0,0.0,0.0,0.0,0.0,0.0,0.0,0.0,0.0,0.0,0.0,0.0,0.0,0.0,0.0,0.0,0.0,0.0,0.0,0.0,0.0,0.0,0.0,0.0,0.0,0.0,0.0,0.0,0.0,0.0,0.0,0.0,0.0,0.0,0.0,0.0,0.0,0.0,0.0,0.0,0.0,0.0,0.0,0.0,0.0,0.0,0.0,0.0,0.0,0.0,0.0,0.0,0.0,0.0,0.0,0.0,0.0,0.0,0.0,0.0,0.0,0.0,0.0,0.0,0.0,0.0,0.0,0.0,0.0,0.0,0.0,0.0,0.0,0.0,0.0,0.0,0.0,0.0,0.0,0.0,0.0,0.0,0.0,0.0,0.0,0.0,0.0,0.0,0.0,0.0,0.0,0.0,0.0,0.0,0.0,0.0,-2.1326,-2.2199,-2.2957,-2.3629,-2.3095,-2.2685,-2.2672,-2.1763,-2.0926,-2.0292,0.0,0.0,0.0,0.0,0.0,0.0,0.0,0.0,0.0,0.0,0.0,0.0,0.0,0.0,0.0,0.0,0.0,0.0,0.0,0.0,0.0,0.0,0.0,0.0,0.0,0.0,0.0,0.0,0.0,0.0,0.0,0.0,0.0,0.0,0.0,0.0,0.0,0.0,0.0,0.0,0.0,0.0,0.0,0.0,0.0,0.0,0.0,0.0,0.0,0.0,0.0,0.0,0.0,0.0,0.0,0.0,0.0,0.0,0.0,0.0,-1.8869,0.0,0.0,0.0,0.0,0.0,0.0,0.0,0.0,0.0,0.0,0.0,0.0,0.0,0.0,0.0,0.0,0.0,0.0,0.0,0.0,0.0,0.0,0.0,0.0,0.0,0.0,0.0,0.0,0.0,0.0,0.0,0.0,0.0,0.0,0.0,0.0,0.0,0.0,0.0,0.0,0.0,-2.044,-2.1777,-2.275,-2.2923,-2.2785,-2.2632,-2.2474,-2.1701,-2.1068,-2.0773,-1.9207,0.0,0.0,0.0,0.0,0.0,0.0,0.0,0.0,0.0,0.0,0.0,0.0,0.0,0.0,0.0,0.0,0.0,0.0,0.0,0.0,0.0,0.0,0.0,0.0,0.0,0.0,0.0,0.0,0.0,0.0,0.0,0.0,0.0,0.0,0.0,0.0,0.0,0.0,0.0,0.0,0.0,0.0,0.0,0.0,0.0,0.0,0.0,0.0,0.0,0.0,0.0,0.0,0.0,0.0,0.0,0.0,0.0,0.0,0.0,0.0,-1.9267,0.0,0.0,0.0,0.0,0.0,0.0,0.0,0.0,0.0,0.0,0.0,0.0,0.0,0.0,0.0,0.0,0.0,0.0,0.0,0.0,0.0,0.0,0.0,0.0,0.0,0.0,0.0,0.0,0.0,0.0,0.0,0.0,0.0,0.0,0.0,0.0,0.0,0.0,0.0,0.0,-2.0938,-2.1769,-2.2573,-2.3345,-2.2796,-2.2312,-2.2217,-2.1647,-2.1093,-2.0648,-1.9556,0.0,0.0,0.0,0.0,0.0,0.0,0.0,0.0,0.0,0.0,0.0,0.0,0.0,0.0,0.0,0.0,0.0,0.0,0.0,0.0,0.0,0.0,0.0,0.0,0.0,0.0,0.0,0.0,0.0,0.0,0.0,0.0,0.0,0.0,0.0,0.0,0.0,0.0,0.0,0.0,0.0,0.0,0.0,0.0,0.0,0.0,0.0,0.0,0.0,0.0,0.0,0.0,0.0,-2.1778,-2.1868,-2.1868,-2.1873,-2.2026,-2.2329,-2.1323,-2.0519,-1.9921,-1.9914,0.0,0.0,0.0,0.0,0.0,0.0,0.0,0.0,0.0,0.0,0.0,0.0,0.0,0.0,0.0,0.0,0.0,0.0,0.0,0.0,0.0,0.0,0.0,0.0,-2.225,-2.215,0.0,0.0,0.0,0.0,0.0,0.0,0.0,0.0,0.0,0.0,0.0,0.0,-2.1473,-2.1696,-2.226,-2.3581,-2.2645,-2.1895,-2.1851,-2.1538,-2.108,-2.0419,-1.9924,-1.9437,0.0,0.0,0.0,0.0,0.0,0.0,0.0,0.0,0.0,0.0,0.0,0.0,0.0,0.0,0.0,0.0,0.0,0.0,0.0,0.0,0.0,0.0,0.0,0.0,0.0,0.0,0.0,0.0,0.0,0.0,0.0,0.0,-1.4138,-1.4691,0.0,0.0,0.0,0.0,0.0,0.0,0.0,0.0,0.0,0.0,0.0,0.0,0.0,-2.0863,-2.1392,-2.1885,-2.2113,-2.217,-2.3225,-2.3745,-2.3732,-2.3688,-2.346,-2.3075,-2.2837,0.0,-2.1148,-2.1162,0.0,0.0,0.0,0.0,0.0,0.0,0.0,0.0,0.0,0.0,0.0,0.0,0.0,0.0,0.0,0.0,0.0,0.0,0.0,0.0,0.0,0.0,-2.2048,-2.2133,-2.2218,-2.2181,0.0,-2.1178,-2.0337,-1.9702,-1.911,0.0,0.0,0.0,0.0,0.0,0.0,0.0,-2.0336,-2.1055,-2.162,-2.1832,-2.1684,-2.1477,-2.1243,-2.1165,-2.1023,-2.075,-1.9971,-1.9531,-1.9578,-1.8826,0.0,0.0,0.0,0.0,0.0,0.0,0.0,0.0,0.0,0.0,0.0,0.0,0.0,0.0,0.0,0.0,0.0,0.0,0.0,0.0,0.0,0.0,0.0,0.0,0.0,0.0,0.0,0.0,0.0,-1.3907,-1.5111,-1.621,-1.6372,-1.6399,0.0,0.0,0.0,0.0,0.0,0.0,0.0,0.0,0.0,-2.2008,-2.2401,-2.2707,-2.2899,-2.3138,-2.31,-2.2744,-2.328,-2.3543,-2.3531,-2.3509,-2.3364,-2.3131,-2.3114,-2.2657,-2.19,-2.1904,-2.1447,-2.0759,0.0,0.0,0.0,0.0,-2.1185,-2.1091,-2.1304,-2.087,0.0,-1.9677,0.0,0.0,0.0,0.0,0.0,0.0,0.0,0.0,0.0,0.0,-2.1772,-2.2123,-2.2475,-2.2615,-2.2278,-2.2101,-2.1787,0.0,-2.0542,-2.0155,-1.9885,0.0,0.0,0.0,0.0,-2.0988,-2.1053,-2.1308,-2.1548,-2.1713,-2.1344,-2.1055,-2.0926,-2.0828,-2.073,-2.0645,-2.0197,-1.9974,-2.0025,-1.9403,-1.8921,0.0,0.0,0.0,0.0,0.0,0.0,0.0,0.0,0.0,0.0,0.0,0.0,0.0,0.0,0.0,0.0,0.0,0.0,0.0,0.0,0.0,0.0,0.0,0.0,0.0,0.0,0.0,0.0,-1.5016,-1.6051,-1.7556,-1.7857,-1.7885,0.0,0.0,0.0,0.0,0.0,0.0,-2.1496,-2.1907,-2.2636,-2.3697,-2.4129,-2.428,-2.4217,-2.4142,-2.3779,-2.3108,-2.3108,-2.3078,-2.3047,-2.3078,-2.3078,-2.3047,-2.3078,-2.2869,-2.2502,-2.2347,-2.1988,-2.1497,-2.1467,-2.1507,-2.1661,-2.2053,-2.1835,-2.1471,-2.21,-2.1909,-2.1253,-2.0579,0.0,-1.9837,-1.8724,0.0,0.0,0.0,0.0,-2.0519,-2.0845,-2.1176,-2.154,-2.1979,-2.244,-2.266,-2.2283,-2.2559,-2.271,0.0,-2.1684,-2.1232,-2.0726,0.0,0.0,0.0,0.0,-2.153,-2.1661,-2.147,-2.1355,-2.148,-2.0993,-2.0724,-2.0913,-2.0621,-2.052,-2.0691,-2.0448,-2.0304,-2.0304,-1.9926,-1.9586,-1.9318,0.0,0.0,0.0,0.0,0.0,0.0,0.0,0.0,0.0,0.0,0.0,0.0,0.0,0.0,0.0,0.0,0.0,0.0,0.0,0.0,0.0,0.0,0.0,0.0,0.0,0.0,0.0,0.0,0.0,-1.8509,-1.9417,0.0,0.0,0.0,0.0,-2.1252,-2.1393,-2.2108,-2.374,-2.3853,-2.4368,-2.5435,-2.5311,-2.5099,-2.475,-2.4576,-2.4016,-2.3108,-2.3108,-2.3017,-2.2909,-2.3047,-2.3017,-2.2909,-2.3047,-2.3083,-2.302,-2.2498,-2.1961,-2.1499,-2.1501,-2.1807,-2.2201,-2.1735,-2.215,-2.2847,-2.1896,-2.1948,-2.2439,-2.2442,-2.1898,-2.116,-2.0886,-2.05,0.0,0.0,-2.0857,-2.1592,-2.1126,-2.1369,-2.1789,-2.1817,-2.1845,-2.193,-2.2161,-2.2222,-2.2236,0.0,-2.1705,-2.1431,-2.1837,0.0,-2.1252,-2.1796,-2.1682,-2.1463,-2.1344,-2.1032,-2.0716,-2.041,-2.0337,-2.0584,-2.1232,-2.0674,-2.0582,-2.1229,-2.0659,-2.0304,-2.0304,-2.0273,-1.995,-1.9302,-1.9241,0.0,0.0,0.0,0.0,0.0,0.0,0.0,0.0,0.0,0.0,0.0,0.0,0.0,0.0,0.0,0.0,0.0,0.0,0.0,0.0,0.0,0.0,0.0,0.0,0.0,0.0,0.0,0.0,-1.9098,-1.9737,0.0,-1.9365,-2.0561,-2.141,-2.1548,-2.261,-2.3684,-2.4669,-2.4719,-2.502,-2.575,-2.6052,-2.5978,-2.5503,-2.5435,-2.4913,-2.4016,-2.3654,-2.3275,-2.2909,-2.3047,-2.3017,-2.2909,-2.3047,-2.2854,-2.2439,-2.2256,-2.2313,-2.2518,-2.2518,-2.2665,-2.2781,-2.2606,-2.2762,-2.3048,-2.2669,-2.2703,-2.2753,-2.2004,-2.1363,-2.0752,-2.0142,-1.9838,-1.9724,-1.9962,-2.0453,-2.0921,-2.0983,-2.1277,-2.1544,-2.1544,-2.1688,-2.1769,-2.1712,-2.1817,-2.1902,-2.1722,-2.1792,-2.1857,-2.1823,-2.1982,-2.2127,-2.2194,-2.245,-2.2479,-2.1953,-2.1798,-2.154,-2.0934,-2.0878,-2.0983,-2.1207,-2.0658,-2.0486,-2.0943,-2.0342,-2.0065,-2.0287,-2.0304,-2.0196,-1.995,-1.9518,-1.8824,0.0,0.0,0.0,0.0,0.0,0.0,0.0,0.0,0.0,0.0,0.0,0.0,0.0,0.0,0.0,0.0,0.0,0.0,0.0,0.0,0.0,0.0,0.0,0.0,0.0,-1.6978,-1.7924,-1.9216,-1.9789,-1.9956,-1.9595,-2.0955,-2.188,-2.1968,-2.3026,-2.407,-2.4909,-2.4967,-2.5326,-2.6121,-2.6453,-2.6466,-2.6181,-2.5926,-2.5409,-2.4666,-2.4122,-2.3547,-2.2997,-2.2911,-2.269,-2.2396,-2.2292,-2.2021,-2.1604,-2.1604,-2.1865,-2.2279,-2.2372,-2.2414,-2.2414,-2.2414,-2.2567,-2.2756,-2.257,-2.2538,-2.2402,-2.1354,-2.065,-2.0175,-1.9816,-1.9568,-1.9473,-1.9734,-2.0093,-2.0447,-2.0623,-2.097,-2.1277,-2.1277,-2.1399,-2.152,-2.1423,-2.1544,-2.1616,-2.1423,-2.1688,-2.1857,-2.1645,-2.2036,-2.2383,-2.2301,-2.265,-2.2746,-2.2268,-2.2146,-2.1869,-2.1257,-2.1204,-2.1292,-2.1533,-2.0789,-2.0592,-2.1267,-2.0199,-1.9746,-2.0168,-2.0096,-2.0028,-2.0028,-1.9569,-1.9084,-1.8604,0.0,0.0,0.0,0.0,0.0,0.0,0.0,0.0,0.0,0.0,0.0,0.0,0.0,0.0,0.0,0.0,0.0,0.0,0.0,0.0,0.0,0.0,0.0,-1.7962,-1.8017,-1.8143,-1.8829,-1.9666,-2.0003,-1.9548,-2.0555,-2.1631,-2.2566,-2.2691,-2.3272,-2.4576,-2.4636,-2.5254,-2.6541,-2.642,-2.6432,-2.6662,-2.5922,-2.5375,-2.4973,-2.4401,-2.3798,-2.3139,-2.2598,-2.2025,-2.1348,-2.0826,-2.059,-2.0558,-2.0558,-2.0558,-2.059,-2.0933,-2.1092,-2.1092,-2.1092,-2.1522,-2.1998,-2.1542,-2.1421,-2.1348,-2.0591,-2.0008,-1.9674,-2.0113,-1.9826,-1.9368,-1.9368,-1.9849,-2.0296,-2.0055,-2.0459,-2.0934,-2.0972,-2.0997,-2.1057,-2.1326,-2.1375,-2.1399,-2.1375,-2.1375,-2.1375,-2.1399,-2.1616,-2.1912,-2.2235,-2.2226,0.0,-2.2169,-2.1881,-2.1564,-2.1254,-2.1222,-2.1471,-2.2123,-2.1043,-2.0872,-2.2157,-2.0259,-1.9368,-1.9956,-1.9677,-1.9505,-1.952,-1.945,-1.9396,-1.9393,0.0,0.0,0.0,0.0,0.0,0.0,0.0,0.0,0.0,0.0,0.0,0.0,0.0,0.0,0.0,0.0,0.0,0.0,0.0,0.0,0.0,-1.6804,-1.7393,-1.7156,-1.7625,-1.8271,-1.9084,-1.9653,-1.9932,-1.9813,-2.0917,-2.1597,-2.1538,-2.2407,-2.3062,-2.3463,-2.3463,-2.3761,-2.4431,-2.4788,-2.526,-2.5893,-2.5123,-2.4674,-2.4555,-2.342,-2.2604,-2.2015,-2.1676,-2.1384,-2.1084,-2.0747,-2.0333,-1.989,-1.989,-1.9639,-1.9386,-2.0344,-2.0814,-2.0899,-2.0899,-2.1101,-2.1353,-2.1245,-2.0985,-2.0619,-2.0006,-1.9494,-1.9034,-1.8768,-1.8596,-1.8545,-1.8866,-1.9105,-1.9277,-1.9512,-1.9694,-1.9926,-2.0207,-2.0409,-2.0636,-2.0848,-2.1021,-2.1057,-2.0923,-2.0898,-2.0997,-2.135,-2.1471,-2.153,-2.1612,-2.1626,0.0,-2.1615,-2.1531,-2.1522,-2.1619,-2.165,-2.1721,-2.1889,-2.1187,-2.0724,-2.0705,-1.9738,-1.9333,-1.9689,-1.9631,-1.978,-2.0214,-1.9695,-1.9384,0.0,0.0,0.0,0.0,0.0,0.0,0.0,0.0,0.0,0.0,0.0,0.0,0.0,0.0,0.0,0.0,0.0,0.0,0.0,0.0,0.0,0.0,-1.7871,-1.8369,-1.7871,-1.8232,-1.8662,-1.8975,-1.9394,-1.9717,-1.9893,-2.0581,-2.0956,-2.0886,-2.1573,-2.2134,-2.2472,-2.251,-2.2864,-2.3635,-2.3951,-2.4487,-2.5116,-2.4426,-2.4105,-2.4087,-2.3116,-2.2377,-2.1835,-2.1366,-2.0999,-2.0657,-2.0052,-1.9664,-1.9466,-1.927,-1.9039,0.0,0.0,0.0,0.0,0.0,-2.057,-2.0643,-2.0473,-2.0203,-1.9907,-1.9392,-1.8809,-1.8333,-1.8401,-1.8201,-1.8002,-1.8394,-1.8637,-1.8851,-1.909,-1.9263,-1.9473,-1.9682,-1.9862,-2.0003,-2.0144,-2.0233,-2.0309,-2.0195,-2.0169,0.0,-2.0523,-2.0921,-2.1229,-2.1229,-2.1326,-2.1399,-2.1399,-2.1399,-2.1471,-2.1616,-2.164,-2.164,-2.164,-2.1078,0.0,0.0,0.0,-1.9368,-1.9635,-1.9642,0.0,0.0,0.0,0.0,0.0,0.0,0.0,0.0,-2.1194,-2.1644,0.0,0.0,0.0,0.0,0.0,0.0,0.0,0.0,0.0,0.0,0.0,0.0,0.0,0.0,0.0,0.0,-1.8549,-1.9355,-1.9355,-1.9404,-1.9268,-1.8802,-1.9121,-1.9521,-1.9941,-1.999,-2.0146,-2.0576,-2.0644,-2.0955,-2.1614,0.0,0.0,0.0,0.0,-2.3753,-2.4272,-2.3709,-2.3421,-2.3482,-2.2966,-2.247,-2.1987,-2.1277,-2.0709,-2.0201,-1.9136,-1.8936,-1.9258,-1.8867,-1.8787,-1.8899,-1.8812,-1.8908,-1.9131,-1.9748,-2.0009,-1.9944,-1.9509,0.0,0.0,-1.8833,-1.8188,-1.7742,-1.8662,-1.8408,-1.7845,-1.8121,-1.8457,-1.8718,-1.8718,-1.8984,-1.9263,-1.9316,-1.9316,-1.9342,-1.9394,-1.9394,-1.9394,-1.9394,-1.9394,-1.9394,-1.9394,-2.0182,-2.081,-2.081,-2.1033,-2.1191,-2.124,-2.124,-2.1264,-2.135,0.0,0.0,-2.135,-2.0864,-2.0745,-2.1191,-2.0037,-1.9449,-1.9714,-1.9768,-2.0066,-2.0599,-2.0613,-2.0633,-2.0699,-2.1172,-2.1563,-2.1846,-2.1056,-2.1722,0.0,0.0,0.0,0.0,0.0,0.0,0.0,0.0,0.0,0.0,0.0,0.0,0.0,0.0,0.0,-1.7586,-1.8944,-1.9795,-1.9795,-2.0098,-2.0156,-1.9717,-1.9746,-1.9961,-2.0439,-2.0478,-2.0517,-2.0595,-2.0898,-2.1026,-2.0848,-2.1135,-2.1412,-2.168,-2.169,-2.2048,-2.2791,-2.2038,-2.1844,-2.2147,0.0,0.0,-2.0871,-2.0371,-2.0088,-1.9952,-1.9419,-1.9209,-1.9277,-1.9199,-1.9062,-1.8899,-1.8812,-1.8808,-1.8875,-1.9198,-1.9297,-1.9287,-1.9192,-1.8909,-1.8617,-1.8733,-1.8445,-1.8185,-1.8874,-1.8686,0.0,-1.8634,-1.8515,-1.8247,-1.8247,-1.8275,-1.8437,-1.8825,-1.8931,-1.9011,-1.9316,-1.9394,-1.9394,-1.9394,-1.9394,-1.9394,-1.9394,-1.9577,-1.9694,-1.9694,-1.9746,-1.9914,-2.022,-2.027,-2.0485,-2.1008,-2.1082,-2.1082,-2.1082,-2.0964,-2.0678,-2.0151,-1.9856,-1.9724,-1.9782,-2.0254,-2.0558,-2.0677,-2.0677,-2.0693,-2.0699,-2.0792,-2.1105,-2.1603,-2.2564,-2.3245,0.0,0.0,0.0,0.0,0.0,0.0,0.0,0.0,0.0,0.0,0.0,-1.1838,-1.3482,0.0,-1.5593,-1.7118,-1.8148,-1.8962,-1.9408,-1.9751,-1.9936,-1.9895,-2.0107,-2.0322,-2.0586,-2.0605,-2.0605,-2.0605,-2.0771,-2.0898,-2.0898,-2.0898,-2.0996,-2.119,-2.1016,-2.1086,-2.1507,-2.1096,-2.1016,-2.1203,-2.0789,-2.0605,-2.0595,-2.038,-2.0244,-2.0215,-1.9785,-1.9727,-1.993,-1.9583,-1.9351,-1.9227,-1.8811,-1.8707,-1.8808,-1.9042,-1.9108,-1.9108,-1.9108,-1.8953,-1.8788,-1.9114,-1.8807,-1.8437,-1.9047,-1.8811,-1.8364,-1.8576,-1.847,-1.8221,-1.8125,-1.8084,-1.8166,-1.8383,-1.8449,-1.8491,-1.8706,-1.8759,-1.8759,-1.8759,-1.8759,-1.8759,-1.8759,-1.8759,-1.8893,-1.9342,-1.9394,-1.9473,-1.9656,-1.9708,-1.9837,-2.0156,-2.0207,-2.0207,-2.0207,-2.0372,-2.0431,-2.0268,-2.0255,-2.0255,-2.0255,-2.053,-2.0699,-2.0699,-2.0699,-2.0699,-2.0699,-2.1276,-2.1681,-2.1995,-2.3285,-2.371,0.0,0.0,0.0,0.0,0.0,0.0,0.0,-1.1062,-1.1202,-1.1873,-1.1988,-1.2471,-1.405,-1.4758,-1.5436,-1.6428,-1.7176,-1.7868,-1.855,-1.8847,-1.9125,-1.9411,-2.0149,-2.0605,-2.0605,-2.0605,-2.0605,-2.0605,-2.0683,-2.0859,-2.1181,-2.0889,-2.0859,-2.1181,-2.0801,-2.0605,-2.0605,-2.0605,-2.0605,-2.0605,-2.0605,-2.0605,-2.0605,-2.0605,-2.0605,-2.0586,-2.0195,-2.0244,-2.0546,-1.9932,-1.9604,-1.9492,-1.8819,-1.8654,-1.8774,-1.8975,-1.9042,-1.9042,-1.9108,-1.9108,-1.9131,-1.9407,-1.9046,-1.8645,-1.9264,-1.891,-1.8367,-1.853,-1.8414,-1.8215,-1.805,-1.792,-1.7836,-1.7939,-1.7962,-1.7997,-1.8088,-1.8084,-1.8084,-1.8084,-1.8084,-1.8084,-1.8084,-1.8084,-1.8329,-1.9052,-1.9158,-1.9184,-1.9263,-1.9289,-1.9316,-1.9394,-1.9394,-1.9394,-1.9394,-1.9708,-2.0093,-2.0549,-2.0574,-2.0599,-2.0699,-2.0699,-2.0699,-2.0699,-2.0699,-2.0751,-2.0857,-2.1773,-2.2296,-2.2426,-2.3459,-2.3717,-1.1357,-1.137,-1.139,-1.1692,-1.1759,-1.1966,0.0,-1.2737,-1.2636,-1.2985,-1.3013,-1.3231,-1.3903,-1.4703,-1.5471,-1.6001,-1.6781,-1.7374,-1.7464,-1.7698,-1.7883,-1.792,-1.9522,-2.0605,-2.0605,-2.0605,-2.0605,-2.0605,-2.0937,-2.1142,-2.119,-2.1142,-2.1142,-2.119,-2.0801,-2.0605,-2.0605,-2.0605,-2.0605,-2.0605,-2.0605,-2.0605,-2.0605,-2.0605,-2.0605,-2.0605,-2.0546,-2.0556,-2.0566,-2.0087,-1.9666,-1.9311,-1.8997,-1.871,-1.8549,-1.8741,-1.8841,-1.8875,-1.9042,-1.9108,-1.9108,-1.9131,-1.91,-1.9092,-1.9465,-1.919,-1.8817,-1.9172,-1.8534,-1.7673,-1.7661,-1.7225,-1.6885,-1.7384,-1.7488,-1.7588,-1.802,-1.8084,-1.8084,-1.8084,-1.8084,-1.8084,-1.8084,-1.8084,-1.8139,-1.822,-1.8247,-1.841,-1.8825,-1.8878,-1.9011,-1.9368,-1.9394,-1.9394,-1.9394,-1.9447,-1.963,-2.0055,-2.0067,-2.0271,-2.0674,-2.0699,-2.0699,-2.0699,-2.0699,-2.0923,-2.142,-2.1551,-2.1877,-2.2414,-2.3027,-2.3535,-1.1557,-1.1683,-1.1797,-1.2301,-1.2556,-1.2746,-1.3126,-1.3113,-1.31,-1.336,-1.342,-1.3554,-1.3965,-1.4345,-1.4726,-1.5078,-1.5552,-1.6052,-1.6525,-1.6818,-1.7161,-1.7642,-1.8421,-1.9155,-1.9766,-1.9854,-2.005,-2.0566,-2.0664,-2.0875,-2.1337,-2.0933,-2.0844,-2.1204,-2.0799,-2.0527,-2.042,-2.0527,-2.0605,-2.0605,-2.0605,-2.0605,-2.0605,-2.0605,-2.0605,-2.0605,-2.0605,-2.0458,-2.0156,-1.9727,-1.9297,-1.8867,-1.8507,-1.8301,-1.8245,-1.864,-1.8875,-1.8975,-1.9075,-1.9108,-1.9108,-1.9108,-1.9108,-1.9131,-1.9274,-1.9161,-1.8973,-1.903,-1.852,-1.7908,-1.7656,-1.7189,-1.6794,-1.6905,-1.6933,-1.7002,-1.7183,-1.724,-1.724,-1.724,-1.724,-1.7332,-1.7645,-1.7691,-1.7806,-1.8077,-1.8084,-1.8166,-1.8367,-1.8383,-1.8464,-1.8625,-1.864,-1.8759,-1.9037,-1.9064,-1.921,-1.963,-1.9656,-1.9746,-1.9939,-1.9939,-1.9939,-1.9939,-2.0254,-2.0532,-2.0732,-2.1375,-2.1957,-2.248,-2.3058,-2.3615,-1.1238,-1.1549,-1.1923,-1.2619,-1.3079,-1.3313,-1.3434,-1.3454,-1.3514,-1.368,-1.3726,-1.3793,-1.4048,-1.4088,-1.4182,-1.4476,-1.4653,-1.4993,-1.5562,-1.5912,-1.6254,-1.6722,-1.6846,-1.7253,-1.8278,-1.8727,-1.9164,-1.9756,-1.9741,-2.0133,-2.1205,-2.0208,-2.0152,-2.1371,-2.0278,-1.9805,-2.002,-1.9883,-1.9835,-1.9883,-1.9883,-1.9883,-1.9883,-1.9883,-1.9883,-1.9883,-1.9883,-1.9647,-1.9222,-1.8816,-1.8363,-1.7939,-1.7533,-1.7407,-1.7501,-1.8012,-1.8428,-1.8697,-1.8664,-1.863,-1.863,-1.863,-1.863,-1.863,-1.863,-1.863,-1.8593,-1.8445,-1.7998,-1.7499,-1.7205,-1.6672,-1.6188,-1.6188,-1.6096,-1.6055,-1.6214,-1.6162,-1.6087,-1.6087,-1.6209,-1.6365,-1.6666,-1.6954,-1.724,-1.7451,-1.7592,-1.7802,-1.805,-1.8084,-1.8084,-1.8084,-1.8084,-1.8247,-1.8583,-1.861,-1.8786,-1.921,-1.9237,-1.9289,-1.9394,-1.9394,-1.9468,-1.9615,-1.9996,-2.0352,-2.0646,-2.1432,-2.205,-2.2552,-2.2967,-2.3378,-0.9972,-1.0678,-1.1571,-1.2551,-1.3193,-1.3666,-1.3995,-1.4062,-1.4062,-1.4075,-1.4075,-1.4075,-1.4088,-1.4088,-1.4182,-1.4476,-1.4522,-1.4516,-1.4566,-1.479,-1.4847,-1.4559,-1.4692,-1.5144,-1.5992,-1.7261,-1.7948,-1.7819,-1.8018,-1.8899,-2.0559,-1.8876,-1.9092,-2.1783,-1.8965,-1.8029,-1.9301,-1.831,-1.7908,-1.8078,-1.8078,-1.8078,-1.8078,-1.8078,-1.8078,-1.8078,-1.8078,-1.7902,-1.7553,-1.7144,-1.6765,-1.6422,-1.5962,-1.5877,-1.6114,-1.6524,-1.7123,-1.7706,-1.751,-1.7442,-1.7442,-1.7442,-1.7442,-1.7442,-1.7442,-1.7442,-1.7442,-1.7432,-1.6737,-1.5973,-1.5954,-1.5163,-1.4513,-1.5031,-1.4864,-1.47,-1.5233,-1.5032,-1.4758,-1.4758,-1.518,-1.5409,-1.5044,-1.5844,-1.6398,-1.6027,-1.6342,-1.6999,-1.7958,-1.8084,-1.8084,-1.8084,-1.8084,-1.8123,-1.8111,-1.8111,-1.8329,-1.8798,-1.8825,-1.8984,-1.9394,-1.9394,-1.964,-2.0168,-2.0192,-2.072,-2.1763,-2.1788,-2.2058,-2.2597,-2.2622,-2.2634,-0.961,-1.0208,-1.0852,-1.1399,-1.1804,-1.2251,-1.2984,-1.3179,-1.3298,-1.3703,-1.3753,-1.3693,-1.354,-1.3661,-1.3913,-1.4442,-1.4689,-1.4883,-1.5077,-1.5149,-1.5176,-1.5004,-1.5058,-1.5226,-1.5531,-1.6225,-1.6991,-1.7722,-1.7721,-1.8135,-1.9148,-1.8209,-1.8086,-1.9093,-1.8127,-1.7698,-1.7948,-1.7908,-1.7908,-1.7997,-1.7997,-1.7997,-1.7997,-1.7997,-1.7997,-1.7997,-1.7997,-1.7646,-1.7093,-1.6965,-1.6507,-1.5925,-1.5761,-1.5737,-1.5807,-1.5683,-1.6,-1.6524,-1.7166,-1.7407,-1.7407,-1.7407,-1.7407,-1.7407,-1.7407,-1.7407,-1.7407,-1.7407,-1.6774,-1.6074,-1.5919,-1.5206,-1.451,-1.4562,-1.4477,-1.4407,-1.46,-1.4547,-1.4436,-1.4436,-1.4583,-1.476,-1.4982,-1.5325,-1.567,-1.5991,-1.6656,-1.7243,-1.7588,-1.7905,-1.8084,-1.8084,-1.8084,-1.8084,-1.8084,-1.8084,-1.8166,-1.834,-1.8329,-1.8561,-1.9038,-1.9077,-1.9336,-1.9876,-2.0176,-2.0505,-2.0857,-2.1228,-2.1661,-2.2156,-2.2156,-2.2298,-0.8858,-0.9458,-1.0045,-1.0611,-1.1017,-1.1451,-1.2057,-1.2378,-1.2686,-1.3058,-1.3225,-1.33,-1.3227,-1.3273,-1.3587,-1.4389,-1.4676,-1.4943,-1.5344,-1.5398,-1.5336,-1.5228,-1.5194,-1.5194,-1.5194,-1.5474,-1.5989,-1.6842,-1.6878,-1.7262,-1.8142,-1.7193,-1.7028,-1.7932,-1.6964,-1.6568,-1.6813,-1.6764,-1.6731,-1.6813,-1.6903,-1.6952,-1.6952,-1.7033,-1.7074,-1.7074,-1.7074,-1.6741,-1.6197,-1.6067,-1.5669,-1.5081,-1.4952,-1.4903,-1.4939,-1.4982,-1.5062,-1.5338,-1.6289,-1.6716,-1.683,-1.683,-1.683,-1.683,-1.683,-1.683,-1.683,-1.683,-1.6346,-1.5799,-1.5531,-1.4942,-1.435,-1.4073,-1.3922,-1.3846,-1.3846,-1.3732,-1.3619,-1.3619,-1.3779,-1.3966,-1.4162,-1.449,-1.4995,-1.5773,-1.6497,-1.694,-1.6824,-1.7057,-1.7272,-1.7303,-1.7454,-1.7568,-1.7558,-1.7878,-1.8084,-1.8084,-1.8283,-1.8644,-1.9149,-1.9183,-1.9424,-1.9941,-2.0251,-2.0504,-2.0687,-2.104,-2.1348,-2.1639,-2.1639,-2.1827,-0.7715,-0.8431,-0.9178,-1.0163,-1.0762,-1.1154,-1.1235,-1.1736,-1.2176,-1.2235,-1.2489,-1.2806,-1.3066,-1.2951,-1.3166,-1.4289,-1.4466,-1.475,-1.5337,-1.5418,-1.5317,-1.5082,-1.5055,-1.5055,-1.5055,-1.5055,-1.51,-1.5325,0.0,-1.6218,-1.7432,-1.5922,-1.6006,-1.8156,-1.556,-1.4699,-1.5918,-1.4929,-1.4524,-1.4692,-1.4957,-1.509,-1.509,-1.5298,-1.5389,-1.5389,-1.5389,-1.5199,-1.4878,-1.4618,-1.4328,-1.399,-1.3638,-1.3514,-1.3564,-1.4281,-1.4353,-1.4201,-1.4919,-1.5426,-1.5761,-1.5797,-1.5805,-1.5805,-1.5805,-1.5805,-1.5797,-1.578,-1.5506,-1.5129,-1.4778,-1.4393,-1.4007,-1.3648,-1.3297,-1.3069,-1.3086,-1.2803,-1.2509,-1.2509,-1.2923,-1.3148,-1.2765,-1.3502,-1.4439,-1.5332,-1.5851,-1.6039,-1.577,-1.5739,-1.5762,-1.5916,-1.6343,-1.6631,-1.6621,-1.7539,-1.8137,-1.8137,-1.8611,-1.9143,-1.9652,-1.9675,-1.9893,-2.0373,-2.0385,-2.0656,-2.1126,-2.1126,-2.1126,-2.1126,-2.1126,-2.1126,-0.7225,-0.7762,-0.8292,-0.868,-0.89,-0.92,-1.0072,-1.0288,-1.0616,-1.1464,-1.1597,-1.1595,-1.1801,-1.2358,-1.3032,-1.37,-1.4422,-1.5057,-1.5638,-1.5718,-1.5691,-1.5618,-1.5611,-1.5611,-1.5611,-1.5611,-1.5611,0.0,-1.557,-1.5716,-1.6208,-1.5459,-1.527,-1.5828,-1.4841,-1.4482,-1.4803,-1.4692,-1.465,-1.4692,-1.4783,-1.4915,-1.509,-1.5131,-1.5264,-1.5389,-1.5389,-1.5199,-1.4893,-1.4812,-1.4494,-1.3975,-1.3924,-1.3711,-1.3528,-1.371,-1.392,-1.4129,-1.431,-1.4812,-1.539,-1.5691,-1.5805,-1.5805,-1.5805,-1.5805,-1.5745,-1.5446,-1.5292,-1.5129,-1.4778,-1.4393,-1.4144,-1.4341,-1.4093,-1.3896,-1.4187,-1.4202,-1.4101,-1.4101,-1.421,-1.4285,-1.4182,-1.4391,-1.4677,-1.5002,-1.5155,-1.5438,-1.5989,-1.6155,-1.6232,-1.6265,-1.6754,-1.7044,-1.7041,-1.7919,-1.8486,-1.8486,-1.8596,-1.8912,-1.9439,-1.9492,-1.9702,-2.0167,-2.0178,-2.0245,-2.0366,-2.0366,-2.0366,-2.0366,-2.0366,-2.0366,-0.6881,-0.7254,-0.7701,-0.7871,-0.8044,-0.8288,-0.8926,-0.9257,-0.9515,-0.9997,-1.0115,-1.0207,-1.0484,-1.1278,-1.2176,-1.2886,-1.4018,-1.4977,-1.5558,-1.5752,-1.5784,-1.5784,-1.5784,-1.5784,-1.5784,-1.5784,-1.5784,-1.5784,-1.5678,-1.5658,-1.5771,-1.5277,-1.5008,-1.5008,-1.4511,-1.4286,-1.4286,-1.437,-1.4454,-1.4454,-1.4524,-1.4699,-1.4915,-1.5041,-1.5215,-1.5389,0.0,-1.5279,-1.5104,-1.4966,-1.4688,-1.4377,-1.4092,-1.391,-1.3726,-1.3762,-1.3775,-1.3884,-1.4201,-1.4489,-1.4812,-1.5355,-1.5655,-1.5805,-1.5805,-1.5677,-1.5497,-1.5274,-1.5103,-1.4898,-1.4521,-1.4264,-1.4153,-1.4375,-1.4256,-1.4204,-1.4598,-1.4684,-1.4684,-1.4684,-1.4684,-1.4768,-1.4889,-1.4915,-1.5008,-1.5264,-1.529,-1.5463,-1.5946,-1.5754,-1.5594,-1.5642,-1.6128,-1.6437,-1.6452,-1.7557,-1.8251,-1.8251,-1.868,-1.9171,-1.9703,-1.9714,-1.9845,-2.0096,-2.0096,-2.0096,-2.0096,-2.0096,-2.0096,-2.0096,-2.0096,-2.0096,-0.6695,-0.6965,-0.7275,-0.7484,-0.7746,-0.7916,-0.7938,-0.8395,-0.8729,-0.8425,-0.8554,-0.886,-0.9204,-1.002,-1.0912,-1.1812,-1.3134,-1.4278,-1.4923,-1.523,-1.5352,-1.5391,-1.5391,-1.5391,-1.5391,-1.5391,-1.5391,-1.5391,-1.5391,-1.5486,-1.5778,-1.5277,-1.4975,-1.4894,-1.4355,-1.4088,-1.4088,-1.4088,-1.4088,-1.4088,-1.4279,-1.4482,-1.4692,-1.4957,-1.5173,-1.5389,-1.5389,0.0,-1.5367,-1.5082,-1.4896,-1.4721,-1.4287,-1.4017,-1.3908,-1.402,-1.3776,-1.3455,-1.4101,-1.4129,-1.4013,-1.4848,-1.539,-1.5726,-1.5726,-1.5522,-1.5283,-1.5232,-1.4992,-1.4667,-1.4273,-1.4136,-1.411,-1.4161,-1.4136,-1.4204,-1.4598,-1.4718,-1.4769,-1.4854,-1.4838,-1.4932,-1.524,-1.5292,-1.5411,-1.5745,-1.5805,-1.5805,-1.5805,-1.5089,-1.4653,-1.4753,-1.5195,-1.5506,-1.5565,-1.691,-1.776,-1.776,-1.8628,-1.9329,-1.9716,-1.9737,-1.9737,-1.9737,-1.9835,-1.9868,-1.9868,-1.9933,-1.9977,-1.9977,-1.9977,-1.9977,-0.6664,-0.676,-0.6864,-0.711,-0.7363,-0.7488,-0.7511,-0.7655,-0.7804,-0.8032,-0.7973,-0.8063,-0.8575,-0.9202,-0.9846,-1.0501,-1.1281,-1.2046,-1.2904,-1.3021,-1.3123,-1.3236,-1.3258,-1.3258,-1.3258,-1.3258,-1.3258,-1.3258,-1.3258,-1.3986,-1.573,-1.5277,-1.4787,-1.4255,-1.4142,-1.4088,-1.4088,-1.4088,-1.4088,-1.4088,-1.413,-1.4328,-1.4692,-1.4741,-1.4999,-1.5389,-1.5389,0.0,-1.5382,-1.533,-1.4805,-1.4136,-1.4576,-1.4084,-1.3234,-1.3796,-1.3496,-1.2783,-1.2893,-1.2806,-1.2821,-1.4266,-1.4991,-1.5311,-1.5311,-1.549,-1.5634,-1.5309,-1.5172,-1.5043,-1.4675,-1.4341,-1.4179,-1.4504,-1.4333,-1.4204,-1.4598,-1.4915,-1.5223,-1.554,-1.5608,-1.5625,-1.5694,-1.5703,-1.572,-1.5788,-1.5805,-1.5805,-1.5805,-1.5377,-1.5092,-1.5123,-1.5575,-1.5915,-1.5917,-1.6873,-1.7461,-1.7461,-1.7629,-1.7765,-1.7876,-1.7876,-1.7876,-1.7876,-1.8361,-1.8596,-1.8596,-1.9065,-1.9264,-1.9264,-1.9264,-1.9264,-0.5927,-0.6254,-0.6682,-0.7005,-0.7096,-0.7116,-0.7218,-0.7126,-0.7068,-0.7142,-0.7038,-0.701,-0.7344,-0.82,-0.8949,-0.936,-1.0351,-1.1326,-1.2028,-1.2251,-1.2417,-1.2689,-1.2678,-1.2678,-1.2678,-1.2678,-1.2678,-1.2678,-1.2678,-1.3162,-1.413,-1.3727,-1.3197,-1.268,-1.2619,-1.2619,-1.2619,-1.2619,-1.2619,-1.2619,-1.2619,-1.282,-1.3148,-1.3366,-1.3542,-1.3662,-1.4146,0.0,-1.4006,-1.4279,-1.4065,-1.3668,-1.381,-1.3494,-1.2962,-1.3013,-1.2728,-1.2318,-1.2166,-1.207,-1.21,-1.2842,-1.3491,-1.3998,-1.3998,-1.4055,-1.4097,-1.3882,-1.3779,-1.3608,-1.3303,-1.309,-1.3003,-1.3275,-1.3363,-1.3517,-1.4065,-1.4305,-1.4369,-1.4233,-1.448,-1.4648,-1.4436,-1.4714,-1.5025,-1.5136,-1.5541,-1.5805,-1.5805,-1.5634,-1.5514,-1.5514,-1.5731,-1.5904,-1.5904,-1.6573,-1.6994,-1.6994,-1.7235,-1.7407,-1.7407,-1.7407,-1.7407,-1.7407,-1.7681,-1.7828,-1.7828,-1.7898,-1.7956,-1.7956,-1.7956,-1.7956,-0.4929,-0.5545,-0.6258,-0.661,-0.6741,-0.6788,-0.6892,-0.6727,-0.6516,-0.6384,-0.628,-0.6259,-0.6432,-0.7279,-0.8037,-0.8337,-0.9446,-1.0517,-1.1084,-1.1383,-1.1646,-1.1996,-1.2052,-1.2052,-1.2052,-1.2052,-1.2052,-1.2052,-1.2052,-1.2226,-1.2609,-1.2201,-1.1777,-1.1364,-1.1305,-1.1284,-1.1284,-1.1284,-1.1284,-1.1284,-1.1284,-1.1445,-1.1692,-1.2046,-1.2169,-1.22,-1.2948,0.0,0.0,-1.3258,-1.3313,-1.316,-1.3067,-1.2864,-1.2669,-1.239,-1.2143,-1.1939,-1.1665,-1.1496,-1.1377,-1.1316,-1.199,-1.2792,-1.2792,-1.2726,-1.2671,-1.2671,-1.2486,-1.2262,-1.2085,-1.1977,-1.1952,-1.2116,-1.238,-1.277,-1.3385,-1.3494,-1.3325,-1.2818,-1.3123,-1.3353,-1.3021,-1.3424,-1.3889,-1.4163,-1.4719,-1.52,-1.5348,-1.5348,-1.5418,-1.5557,-1.5703,-1.5805,-1.5805,-1.6202,-1.6438,-1.6438,-1.6821,-1.7072,-1.7072,-1.698,-1.6933,-1.6933,-1.6986,-1.6973,-1.6973,-1.694,-1.6883,-1.6883,-1.6978,-1.7026,-0.3925,-0.4509,-0.5168,-0.5333,-0.5984,-0.658,-0.6416,-0.6405,-0.6373,-0.6256,-0.6214,-0.6295,-0.6623,-0.6757,-0.702,-0.7526,-0.7873,-0.8312,-0.8987,-0.925,-0.951,-0.9825,-0.9871,-0.9871,-0.9871,-0.9871,-0.9871,-0.9871,-0.9871,-1.0617,-1.2236,-1.211,-1.1852,-1.16,-1.1391,-1.1284,-1.1284,-1.1284,-1.1284,-1.1284,-1.1284,-1.1445,-1.1686,-1.1735,-1.2077,-1.2632,-1.2717,0.0,0.0,-1.3392,-1.3052,-1.2534,-1.3112,-1.2818,-1.2052,-1.2622,-1.2286,-1.1517,-1.1331,-1.09,-1.0373,-1.0144,-1.1099,-1.2345,-1.2345,-1.2581,-1.2859,-1.2859,-1.2592,-1.234,-1.2487,-1.2246,-1.2041,-1.2251,-1.2306,-1.2441,-1.2884,-1.2824,-1.2704,-1.2796,-1.2691,-1.257,-1.2468,-1.2519,-1.2642,-1.2829,-1.2938,-1.3217,-1.3796,-1.3897,-1.4139,-1.4753,-1.5394,-1.5805,-1.5805,-1.5832,-1.5867,-1.5867,-1.5903,-1.5938,-1.5938,-1.5592,-1.5402,-1.5402,-1.5587,-1.566,-1.5669,-1.6492,-1.6883,-1.6892,-1.7214,-1.7351,-0.3004,-0.3638,-0.4297,-0.444,-0.5079,-0.5653,-0.5671,-0.5954,-0.6172,-0.6259,-0.6283,-0.6375,-0.6585,-0.6776,-0.6992,-0.7277,-0.7391,-0.7687,-0.8402,-0.8564,-0.8824,-0.9397,-0.9466,-0.9506,-0.9567,-0.9579,-0.9579,-0.9579,-0.9579,-0.9936,-1.063,-1.0415,-1.0145,-0.9939,-0.9747,-0.9689,-0.9689,-0.9689,-0.9689,-0.9689,-0.9689,-0.9728,-0.9854,-1.0115,-1.0241,-1.0284,-1.1101,0.0,0.0,-1.194,-1.1989,-1.1774,-1.2032,-1.1884,-1.1564,-1.1701,-1.1504,-1.1174,-1.0929,-1.0692,-1.0442,-1.0345,-1.0735,-1.1212,-1.0938,-1.1062,-1.1285,-1.1285,-1.1243,-1.1192,-1.1139,-1.086,-1.0723,-1.1238,-1.1033,-1.0899,-1.1453,-1.1507,-1.1333,-1.0997,-1.1093,-1.1159,-1.0889,-1.1087,-1.1437,-1.1757,-1.2219,-1.2624,-1.2893,-1.3217,-1.3459,-1.3592,-1.4538,-1.5129,-1.5129,-1.5129,-1.5129,-1.5129,-1.5129,-1.5129,-1.5129,-1.4975,-1.5,-1.5206,-1.5262,-1.544,-1.5676,-1.5792,-1.5882,-1.5882,-1.6009,-1.609,-0.2158,-0.2752,-0.3441,-0.361,-0.414,-0.4695,-0.4814,-0.5265,-0.5683,-0.5827,-0.6158,-0.6463,-0.666,-0.6889,-0.7126,-0.7273,-0.7391,-0.7655,-0.8211,-0.8381,-0.8653,-0.9257,-0.9371,-0.9453,-0.9535,-0.9596,-0.9579,-0.9579,-0.9579,-0.9579,-0.9579,-0.934,-0.9112,-0.8982,-0.8759,-0.8641,-0.8641,-0.8637,-0.8612,-0.8612,-0.8612,-0.8612,-0.8612,-0.8959,-0.9003,-0.8872,-0.982,0.0,0.0,-1.0824,-1.1176,-1.1305,-1.1305,-1.1305,-1.1289,-1.1155,-1.109,-1.1058,-1.0821,-1.0735,-1.0729,-1.0619,-1.0597,-1.0533,-1.0195,-1.0209,-1.0308,-1.0237,-1.0317,-1.0366,-1.0191,-1.0016,-1.0082,-1.0617,-1.0395,-1.0202,-1.0731,-1.0785,-1.0599,-0.995,-1.0084,-1.014,-0.9776,-1.0039,-1.0374,-1.0692,-1.1298,-1.1765,-1.188,-1.2305,-1.2609,-1.2677,-1.3432,-1.408,-1.4387,-1.4412,-1.4412,-1.4412,-1.4513,-1.4614,-1.4705,-1.4672,-1.4875,-1.5377,-1.5172,-1.53,-1.5805,-1.5523,-1.5386,-1.5394,-1.5497,-1.5489,-0.1277,-0.1919,-0.2553,-0.2773,-0.3312,-0.3806,-0.3806,-0.4331,-0.4824,-0.4812,-0.5653,-0.6497,-0.6847,-0.7068,-0.7281,-0.7452,-0.7776,-0.8069,-0.8264,-0.8593,-0.8885,-0.908,-0.9298,-0.9404,-0.9404,-0.9518,-0.9579,-0.9579,-0.9579,0.0,-0.9579,-0.9453,-0.94,-0.9396,-0.9003,-0.882,-0.882,-0.8653,-0.8612,-0.8612,-0.8612,-0.8612,-0.8612,-0.8612,-0.8872,0.0,0.0,0.0,0.0,-1.0593,-1.0862,-1.1305,-1.1305,-1.1305,-1.1305,-1.1305,-1.1305,-1.1268,-1.1063,-1.0982,-1.0945,-1.0672,-1.0597,-1.0597,-1.0587,-1.0587,-1.0538,-1.0353,-1.0264,-1.0218,-1.0212,-1.0325,-1.0576,-1.0838,-1.0901,-1.093,-1.1164,-1.106,-1.0755,-1.0307,-1.0024,-0.9835,-0.955,-0.9508,-0.9572,-0.9706,-0.9952,-1.0259,-1.0657,-1.0962,-1.1375,-1.2036,-1.2107,-1.2556,-1.3624,-1.37,-1.37,-1.37,-1.4028,-1.435,-1.4677,-1.4625,-1.498,-1.5788,-1.5069,-1.506,-1.5805,-1.5797,-1.5797,-1.5805,-1.612,-1.6095,-0.1239,-0.1463,-0.1697,-0.1776,-0.2365,-0.2943,-0.2988,-0.3559,-0.4126,-0.413,-0.4488,-0.4865,-0.498,-0.5726,-0.6361,-0.6506,-0.7328,-0.8013,-0.8182,-0.8689,-0.9031,-0.9092,-0.936,-0.9543,-0.9543,-0.9596,-0.9579,-0.9579,-0.9579,-0.9579,-0.9579,-0.9571,-0.9486,-0.9408,-0.9129,-0.9011,-0.9011,-0.8958,-0.8865,-0.8739,-0.8739,-0.8678,-0.8612,-0.8612,-0.87,0.0,0.0,0.0,0.0,-1.0337,-1.0511,-1.0477,-1.1089,-1.1084,-1.0857,-1.1176,-1.1305,-1.1295,-1.1219,-1.1193,-1.1182,-1.1107,-1.108,-1.108,-1.108,-1.0855,-1.0581,-1.0506,-1.0471,-1.0486,-1.0486,-1.0525,-1.0586,-1.0663,-1.0685,-1.0707,-1.0778,-1.0754,-1.067,-1.0518,-1.0322,-1.017,-1.0057,-0.9889,-0.9849,-1.0027,-1.0094,-1.0222,-1.0321,-1.071,-1.1027,-1.1138,-1.1463,-1.2184,-1.3454,-1.3552,-1.3772,-1.4218,-1.4364,-1.4454,-1.4553,-1.4553,-1.4756,-1.5247,-1.5029,-1.515,-1.5664,-1.5664,-1.5664,-1.5664,-1.5815,-1.5838,-0.1249,-0.1276,-0.1303,-0.1286,-0.1683,-0.2076,-0.2105,-0.2766,-0.3329,-0.3329,-0.3754,-0.4142,-0.4142,-0.4806,-0.5418,-0.5495,-0.6492,-0.7357,-0.7643,-0.8405,-0.9047,-0.9283,-0.9429,-0.9404,-0.9171,-0.943,-0.948,-0.9179,-0.943,-0.9579,-0.9579,-0.9579,-0.9575,-0.9462,-0.9287,-0.9194,-0.9194,-0.9129,-0.9039,-0.8926,-0.8926,-0.8832,-0.8662,-0.8662,-0.8629,0.0,0.0,0.0,0.0,-0.9907,-1.0077,-1.0081,-1.0776,-1.0857,-1.0679,-1.1127,-1.1305,-1.1305,-1.1305,-1.1305,-1.1305,-1.1305,-1.1305,-1.1305,-1.1305,-1.1037,-1.0767,-1.0767,-1.0662,-1.0597,-1.0597,-1.0597,-1.0619,-1.0746,-1.0767,-1.0753,-1.0844,-1.086,-1.0839,-1.0789,-1.0654,-1.0525,-1.0439,-1.0254,-1.023,-1.0341,-1.0456,-1.0483,-1.0351,-1.0695,-1.0913,-1.0835,-1.1103,-1.1795,-1.2978,-1.3107,-1.3288,-1.3739,-1.4085,-1.4381,-1.4475,-1.4607,-1.4944,-1.5424,-1.5306,-1.5487,-1.6008,-1.5873,-1.581,-1.5802,-1.5713,-1.5664,0.0,-0.1277,-0.1307,-0.1283,-0.1277,-0.13,-0.1302,-0.1912,0.0,-0.252,-0.3307,-0.3986,-0.3992,-0.4206,-0.438,-0.4393,-0.5371,-0.6266,-0.6656,-0.7781,-0.8764,-0.927,-0.9295,-0.9001,-0.8315,-0.8977,-0.913,-0.8382,-0.9031,-0.943,-0.943,-0.943,-0.943,-0.943,-0.9316,-0.9276,-0.942,-0.9214,-0.9129,-0.9116,-0.9116,-0.9019,-0.884,-0.884,-0.8755,0.0,0.0,0.0,0.0,-0.931,-0.9519,-0.9951,-1.0332,-1.0458,-1.0463,-1.0906,-1.1041,-1.1041,-1.1041,-1.1041,-1.1084,-1.1132,-1.1219,-1.1305,-1.1305,-1.1192,-1.1009,-1.1009,-1.0853,-1.0646,-1.0646,-1.0646,-1.0699,-1.0955,-1.1009,-1.1069,-1.1262,-1.1305,-1.1241,-1.1052,-1.1009,-1.0939,-1.0683,-1.0646,-1.0646,-1.0646,-1.0869,-1.0929,-1.0672,-1.0875,-1.1009,-1.1009,-1.1009,-1.1348,-1.226,-1.2419,-1.2493,-1.2567,-1.3488,-1.4184,-1.4471,-1.485,-1.5396,-1.6118,-1.5779,-1.5929,-1.6607,-1.6284,-1.6126,-1.6118,-1.5771,-1.5575,-0.1303,0.0,-0.1226,-0.124,-0.1256,-0.1314,0.0,-0.1443,-0.1586,-0.1586,-0.1867,-0.2077,-0.2068,-0.2735,-0.3298,-0.3402,-0.4493,-0.5444,-0.5895,-0.6783,-0.7263,-0.6806,-0.7324,-0.7493,-0.6921,-0.7428,-0.7686,-0.7487,-0.7633,-0.7786,-0.7786,-0.7786,-0.7786,-0.7786,-0.775,-0.8326,-0.9563,-0.9522,-0.9433,-0.9343,-0.9343,-0.9202,-0.9031,-0.9031,-0.9011,0.0,0.0,0.0,-0.8926,-0.9187,-0.9174,-0.8955,-0.9205,-0.9069,-0.8763,-0.8655,-0.8607,-0.8607,-0.8607,-0.8607,-0.8782,-0.971,-1.0598,-1.1305,-1.1305,-1.1268,-1.1219,-1.1219,-1.1182,-1.1139,-1.1139,-1.1139,-1.1155,-1.1209,-1.1219,-1.1236,-1.1295,-1.1305,-1.1289,-1.123,-1.1219,-1.1203,-1.115,-1.1139,-1.1139,-1.1139,-1.1187,-1.1203,-1.115,-1.1187,-1.1219,-1.1219,-1.1219,-1.1327,-1.1553,-1.2098,-1.2661,-1.3162,-1.3878,-1.4323,-1.4405,-1.4981,-1.5397,-1.5595,-1.5487,-1.5524,-1.5714,-1.564,-1.5602,-1.5588,-1.5534,-1.5533,-0.1314,-0.1276,-0.1234,-0.1234,-0.1296,-0.1364,-0.1339,-0.1355,-0.1367,-0.1367,-0.1391,-0.1416,-0.1387,-0.1853,-0.229,-0.2339,-0.3355,-0.4411,-0.5363,-0.5979,-0.6239,-0.5951,-0.6213,-0.6329,0.0,-0.6429,-0.6783,-0.6639,-0.6989,-0.7188,-0.7188,-0.7188,-0.7188,-0.7188,-0.7188,-0.7637,-0.8482,-0.8482,-0.8439,-0.8402,-0.8402,-0.8319,-0.8116,-0.8116,-0.8081,0.0,0.0,0.0,-0.7869,-0.7982,-0.7916,-0.7688,-0.7955,-0.7921,-0.7702,-0.7775,-0.7815,-0.7815,-0.7815,-0.7815,-0.7903,-0.8563,-0.9179,-0.971,-0.971,-0.971,-0.9932,-1.0997,-1.1305,-1.1305,-1.1305,-1.1305,-1.1305,-1.1305,-1.1305,-1.1305,-1.1305,-1.1305,-1.1305,-1.1305,-1.1305,-1.1305,-1.1305,-1.1305,-1.1305,-1.1305,-1.1305,-1.1305,-1.1305,-1.1305,-1.1305,-1.1305,-1.1305,-1.1305,-1.1305,-1.1688,-1.2198,-1.2881,-1.3555,-1.3935,-1.3935,-1.4279,-1.4622,-1.4957,-1.5257,-1.5389,-1.5389,-1.5389,-1.5389,-1.5382,-1.5446,-1.5275,-0.1294,-0.129,-0.1317,-0.1308,-0.1329,-0.1395,-0.1391,-0.1393,-0.1397,-0.1397,-0.1417,-0.1392,-0.1396,-0.1463,-0.1482,-0.1487,-0.2274,-0.3332,-0.4599,-0.5061,-0.526,-0.5277,-0.5239,0.0,-0.4931,-0.5577,-0.5979,-0.5839,-0.6439,-0.6836,-0.6836,-0.6836,-0.6836,-0.6836,-0.6836,-0.6836,-0.6836,-0.7089,-0.7188,-0.7188,-0.7188,-0.7125,-0.7015,-0.7015,-0.6955,-0.6756,0.0,0.0,-0.6718,-0.6629,-0.6621,-0.6655,-0.6796,-0.6879,-0.6923,-0.7183,-0.7313,-0.7313,-0.7313,-0.7446,-0.7579,-0.7579,-0.7712,-0.7842,-0.7816,-0.7827,-0.8239,-1.0256,-1.0801,-1.0819,-1.0868,-1.0868,-1.0868,-1.0868,-1.0868,-1.0868,-1.0868,-1.0868,-1.0868,-1.0868,-1.0868,-1.0911,-1.1046,-1.1089,-1.1132,-1.1262,-1.1305,-1.1305,-1.1305,-1.1305,-1.1305,-1.1305,-1.1305,-1.1305,-1.1305,-1.1305,-1.1559,-1.2198,-1.2881,-1.3307,-1.3398,-1.3398,-1.3688,-1.423,-1.4915,-1.5215,-1.509,-1.5298,-1.5305,-1.509,-1.5215,-1.4873,-0.1294,-0.1361,-0.1366,-0.1317,-0.1345,-0.1422,-0.1396,-0.141,-0.1383,-0.1383,-0.1387,-0.1398,-0.1469,-0.1478,-0.1489,-0.1515,-0.2054,-0.2447,-0.2367,-0.3106,-0.3324,-0.244,-0.3093,-0.353,-0.3531,-0.4031,-0.4533,-0.4935,-0.5085,-0.5183,-0.5183,-0.5183,-0.5183,-0.5183,-0.5183,-0.5183,-0.5183,-0.6537,-0.7188,-0.7188,-0.7188,-0.7176,-0.7155,-0.7155,-0.7146,-0.7122,0.0,-0.6955,-0.6942,-0.6768,-0.6667,-0.6617,-0.6076,-0.5831,-0.5787,-0.5275,-0.5087,-0.5087,-0.5087,-0.5735,-0.6517,-0.6517,-0.7214,-0.8026,-0.7978,-0.7987,-0.8114,-0.843,-0.8601,-0.8711,-0.889,-0.8938,-0.8938,-0.8938,-0.8938,-0.8938,-0.8938,-0.8938,-0.8938,-0.8938,-0.8938,-0.92,-0.999,-1.012,-1.0386,-1.1176,-1.1305,-1.1305,-1.1305,-1.1305,-1.1305,-1.1305,-1.1305,-1.1305,-1.1305,-1.1305,-1.1348,-1.1478,-1.2155,-1.2796,-1.3398,-1.3398,-1.3434,-1.3561,-1.4195,-1.4279,-1.3688,-1.4831,-1.4831,-1.3737,-1.4272,-1.4188,-0.1314,-0.1368,-0.1412,-0.1418,-0.1465,-0.1505,-0.1491,-0.1486,-0.1434,-0.1463,-0.1459,-0.1464,-0.1478,-0.1494,-0.1526,-0.159,-0.1825,-0.1978,-0.1847,-0.2175,-0.2246,-0.1754,0.0,-0.2474,-0.2725,-0.2976,-0.3379,-0.3882,-0.3932,-0.3932,-0.3932,-0.4234,-0.4383,-0.4383,-0.4634,-0.4784,-0.4784,-0.5536,-0.5884,-0.5884,-0.5884,-0.5884,-0.5884,-0.5884,-0.5884,-0.5882,0.0,-0.5807,-0.58,-0.5649,-0.5605,-0.56,-0.5206,-0.5043,-0.5043,-0.4713,-0.4621,-0.4621,-0.4621,-0.4946,-0.5367,-0.5367,-0.5742,-0.62,-0.6191,-0.6167,-0.6247,-0.6325,-0.7171,-0.8109,-0.8249,-0.8346,-0.8438,-0.8487,-0.8601,-0.8737,-0.8737,-0.8737,-0.8705,-0.8609,-0.8589,-0.8738,-0.9087,-0.9065,-0.924,-1.0072,-1.0072,-1.0164,-1.0564,-1.0888,-1.1009,-1.0745,-1.1339,-1.1591,-1.1323,-1.1547,-1.1623,-1.1321,-1.1602,-1.194,-1.2246,-1.2668,-1.2875,-1.2875,-1.3512,-1.373,-1.3398,-1.4026,-1.399,-1.3398,-1.373,-1.3512,-0.1292,-0.1331,-0.1413,-0.1468,-0.1515,-0.1603,-0.1617,-0.1548,-0.1521,-0.1505,-0.1502,-0.1498,-0.1483,-0.1506,-0.1556,-0.1699,-0.172,-0.1743,-0.1797,-0.1758,-0.1677,-0.1692,-0.1649,-0.1818,-0.2371,-0.2422,-0.2623,-0.318,-0.318,-0.318,-0.318,-0.3581,-0.3883,-0.3982,-0.4383,-0.4684,-0.4784,-0.4784,-0.4784,-0.4784,-0.4784,-0.4784,-0.4784,-0.4784,-0.4784,-0.4784,-0.4784,-0.4784,-0.4778,-0.4765,-0.4738,-0.473,-0.4661,-0.4634,-0.4634,-0.4634,-0.4634,-0.4634,-0.4634,-0.4634,-0.4634,-0.4634,-0.4634,-0.463,-0.461,-0.4618,-0.4678,-0.4797,-0.5998,-0.728,-0.7406,-0.7581,-0.771,-0.7736,-0.7901,-0.8041,-0.8041,-0.8041,-0.8005,-0.7925,-0.7903,-0.7954,-0.8061,-0.7945,-0.8075,-0.8831,-0.8791,-0.8973,-0.9734,-1.0279,-1.0514,-1.0293,-1.1116,-1.1538,-1.117,-1.1492,-1.1621,-1.1317,-1.1428,-1.1472,-1.1472,-1.2029,-1.2299,-1.2241,-1.2887,-1.3114,-1.2924,-1.3222,-1.3228,-1.2924,-1.3094,-1.2796,-0.1298,-0.1346,-0.1395,-0.1472,-0.1484,-0.1502,-0.1607,-0.1548,-0.1534,-0.156,-0.1614,-0.1596,-0.1491,-0.1506,-0.1556,-0.1699,-0.1684,-0.1712,-0.1799,-0.1722,-0.1692,-0.172,-0.1637,-0.1818,-0.2371,-0.2422,-0.2623,-0.318,-0.318,-0.318,-0.318,-0.323,-0.3481,-0.3982,-0.4033,-0.4284,-0.4784,-0.4784,-0.4784,-0.4784,-0.4784,-0.4784,-0.4784,-0.4784,-0.4784,-0.4784,-0.4784,-0.4784,-0.4784,-0.4778,-0.4774,-0.4774,-0.4768,-0.4766,-0.4766,-0.4766,-0.4766,-0.4766,-0.4766,-0.4766,-0.4766,-0.4766,-0.4766,-0.4752,-0.4722,-0.4753,-0.48,-0.472,-0.4838,-0.5008,-0.5398,-0.5509,-0.5506,-0.5514,-0.5564,-0.5564,-0.5564,-0.5564,-0.5561,-0.5554,-0.5551,-0.5829,-0.6701,-0.6842,-0.7116,-0.8045,-0.8184,-0.8467,-0.9259,-0.941,-0.9701,-1.0408,-1.056,-1.0616,-1.0565,-1.057,-1.0833,-1.1263,-1.1766,-1.2046,-1.2046,-1.2086,-1.1983,-1.1766,-1.2407,-1.2336,-1.1435,-1.2753,-1.2711,-1.1478,-1.2155,-1.2069,-0.1298,-0.1347,-0.1397,-0.1473,-0.1495,-0.1525,-0.1585,-0.1591,-0.1591,-0.1672,-0.1613,-0.1581,-0.152,-0.1549,-0.16,-0.1705,-0.1686,-0.1714,-0.18,-0.1723,-0.1694,-0.1718,-0.1635,-0.1667,-0.1868,-0.1919,-0.1969,-0.2171,-0.2222,-0.2222,-0.2222,-0.2523,-0.2774,-0.2975,-0.333,-0.3783,-0.4284,-0.4284,-0.4483,-0.4784,-0.4784,-0.4784,-0.4784,-0.4784,-0.4784,-0.4784,-0.4784,-0.4784,-0.4784,-0.4784,-0.4784,-0.4784,-0.4784,-0.4784,-0.4784,-0.4784,-0.4784,-0.4784,-0.4784,-0.4784,-0.4784,-0.4784,-0.4784,-0.4778,-0.4746,-0.476,-0.4778,-0.4746,-0.4738,-0.4777,-0.4939,-0.5083,-0.5199,-0.5214,-0.5375,-0.5471,-0.5471,-0.5471,-0.5452,-0.5441,-0.5429,-0.5502,-0.576,-0.57,-0.5839,-0.6688,-0.6635,-0.6823,-0.758,-0.8506,-0.9045,-0.9052,-0.9875,-1.0573,-1.0909,-1.0957,-1.1005,-1.1197,-1.1465,-1.1768,-1.2094,-1.2094,-1.2051,-1.1964,-1.218,-1.2136,-1.1785,-1.2164,-1.2091,-1.1564,-1.1673,-1.1559,-0.1311,-0.1354,-0.1397,-0.1473,-0.1504,-0.1542,-0.1603,-0.1617,-0.1626,-0.1707,-0.1623,-0.1579,-0.1546,-0.1566,-0.1601,-0.1641,-0.1672,-0.1698,-0.1773,-0.1704,-0.168,-0.1652,-0.1629,-0.1617,-0.1617,-0.1617,-0.1617,-0.1617,-0.1617,-0.1617,-0.1617,-0.1969,-0.222,-0.2371,-0.2775,-0.3229,-0.3732,-0.3732,-0.4033,-0.4533,-0.4533,-0.4634,-0.4784,-0.4784,-0.4784,-0.4784,-0.4784,-0.4784,-0.4784,-0.4784,-0.4784,-0.4784,-0.4784,-0.4784,-0.4784,-0.4784,-0.4784,-0.4784,-0.4784,-0.4784,-0.4784,-0.4784,-0.4784,-0.4784,-0.4784,-0.4784,-0.4784,-0.4784,-0.4784,-0.4784,-0.4784,-0.4889,-0.5008,-0.5072,-0.5236,-0.5334,-0.5334,-0.5334,-0.5316,-0.5302,-0.5288,-0.5268,-0.5147,-0.4988,-0.5037,-0.5569,-0.547,-0.5615,-0.6387,-0.7376,-0.8063,-0.8268,-0.94,-1.0314,-1.0654,-1.0708,-1.0757,-1.0953,-1.0972,-1.1239,-1.1802,-1.1802,-1.1771,-1.1698,-1.1698,-1.1657,-1.1584,-1.1429,-1.1401,-1.1581,-1.1379,-1.1356,-0.1382,-0.1412,-0.1398,-0.1473,-0.1504,-0.1494,-0.1603,-0.1617,-0.1626,-0.1707,-0.159,-0.1536,-0.1566,-0.1547,-0.1547,-0.1607,-0.1642,-0.1714,-0.1714,-0.1714,-0.1651,-0.162,-0.1617,-0.1617,-0.1617,-0.1617,-0.1617,-0.1617,-0.1617,-0.1617,-0.1617,-0.1617,-0.1818,-0.2371,-0.2371,-0.2674,-0.318,-0.318,-0.3482,-0.3982,-0.3982,-0.4284,-0.4784,-0.4784,-0.4784,-0.4784,-0.4784,-0.4784,-0.4784,-0.4784,-0.4784,-0.4784,-0.4784,-0.4784,-0.4784,-0.4784,-0.4784,-0.4784,-0.4784,-0.4784,-0.4784,-0.4784,-0.4784,-0.4784,-0.4784,-0.4784,-0.4784,-0.4784,-0.4784,-0.4784,-0.4784,-0.4784,-0.4784,-0.4784,-0.4784,-0.4784,-0.4784,-0.4784,-0.4784,-0.4784,-0.4784,-0.4784,-0.4784,-0.4784,-0.4784,-0.4784,-0.4784,-0.5087,-0.5892,-0.5992,-0.6639,-0.8233,-0.913,-0.9579,-0.9579,-0.9579,-0.9821,-1.0364,-1.0413,-1.0659,-1.1198,-1.1194,-1.1099,-1.0801,-1.0796,-1.0693,-1.0528,-1.0477,-1.0801,-1.1308,-1.1308,-1.142,-0.1388,-0.1427,-0.147,-0.1478,-0.1536,-0.1589,-0.1585,-0.1618,-0.1652,-0.1712,-0.1692,-0.1611,-0.1627,-0.1581,-0.1596,-0.1614,-0.1642,-0.1714,-0.1714,-0.1714,-0.1651,-0.162,-0.1617,-0.1617,-0.1617,-0.1617,-0.1617,-0.1617,-0.1617,-0.1617,-0.1617,-0.1617,-0.1667,-0.1818,-0.1818,-0.207,-0.2623,-0.2623,-0.2927,-0.343,-0.343,-0.3932,-0.4784,-0.4784,-0.4784,-0.4784,-0.4784,-0.4784,-0.4784,-0.4784,-0.4784,-0.4784,-0.4784,-0.4784,-0.4784,-0.4784,-0.4784,-0.4784,-0.4784,-0.4784,-0.4784,-0.4784,-0.4784,-0.4784,-0.4784,-0.4784,-0.4784,-0.4784,-0.4784,-0.4784,-0.4784,-0.4784,-0.4784,-0.4784,-0.4784,-0.4784,-0.4784,-0.4784,-0.4784,-0.4784,-0.4784,-0.4784,-0.4784,-0.4784,-0.4784,-0.4784,-0.4784,-0.5087,-0.5892,-0.5992,-0.6639,-0.8233,-0.863,-0.8981,-0.9529,-0.9579,-0.9677,-0.9821,-0.9821,-1.0265,-1.1145,-1.1194,-1.1165,-1.1055,-1.1104,-1.1075,-1.1009,-1.0815,-1.0792,-1.0934,-1.078,-1.0767,-0.1419,-0.1453,-0.1487,-0.151,-0.1567,-0.1615,-0.1659,-0.1626,-0.1593,-0.1233,-0.1174,-0.1062,-0.0697,-0.0647,-0.0701,-0.1059,-0.1173,-0.1284,-0.1593,-0.1644,-0.1637,-0.1619,-0.1617,-0.1617,-0.1617,-0.1617,-0.1617,-0.1617,-0.1617,-0.1617,-0.1617,-0.1617,-0.1617,-0.1617,-0.1617,-0.1768,-0.207,-0.207,-0.2372,-0.2876,-0.2876,-0.333,-0.4183,-0.4183,-0.4282,-0.4483,-0.4684,-0.4684,-0.4483,-0.4734,-0.4784,-0.4784,-0.4784,-0.4784,-0.4784,-0.4784,-0.4784,-0.4784,-0.4784,-0.4784,-0.4784,-0.4784,-0.4784,-0.4784,-0.4784,-0.4784,-0.4784,-0.4784,-0.4784,-0.4784,-0.4784,-0.4784,-0.4784,-0.4784,-0.4784,-0.4784,-0.4784,-0.4784,-0.4784,-0.4784,-0.4784,-0.4784,-0.4784,-0.4784,-0.4784,-0.4784,-0.4784,-0.4985,-0.5438,-0.5792,-0.6392,-0.7338,-0.7736,-0.8233,-0.908,-0.8832,-0.8928,-0.9579,-0.9278,-0.9571,-1.0511,-1.056,-1.056,-1.056,-1.056,-1.056,-1.056,-1.0391,-1.0435,-1.0624,-1.0496,-1.0537,-0.1419,-0.148,-0.1495,-0.1556,-0.1545,-0.1473,-0.15,-0.1433,-0.1212,-0.0556,-0.0349,-0.0049,0.0653,0.0845,0.0643,-0.0151,-0.0303,-0.0555,-0.1263,-0.1364,-0.1364,-0.1364,-0.1364,-0.1364,-0.1364,-0.1364,-0.1364,-0.1364,-0.1364,-0.1364,-0.1364,-0.1465,-0.1465,-0.1364,-0.1465,-0.1516,-0.1516,-0.1516,-0.1768,-0.2321,-0.2321,-0.2574,-0.3079,-0.318,-0.3482,-0.3932,-0.4433,-0.4383,-0.3982,-0.4433,-0.4634,-0.4634,-0.4634,-0.4684,-0.4734,-0.4734,-0.4734,-0.4784,-0.4784,-0.4784,-0.4784,-0.4784,-0.4784,-0.4784,-0.4784,-0.4784,-0.4784,-0.4784,-0.4784,-0.4784,-0.4784,-0.4784,-0.4784,-0.4784,-0.4784,-0.4784,-0.4784,-0.4784,-0.4784,-0.4784,-0.4784,-0.4784,-0.4784,-0.4784,-0.4784,-0.4784,-0.4784,-0.4784,-0.4784,-0.5438,-0.5942,-0.5992,-0.6639,-0.7434,-0.8233,-0.7637,-0.7836,-0.9278,-0.8779,-0.8733,-0.9476,-0.9579,-0.9579,-0.9579,-0.9579,-0.9579,-0.9579,-0.9579,-0.9875,-1.0314,-1.0314,-1.0462,-0.0919,-0.1157,-0.1449,-0.1313,-0.0946,-0.0507,0.0103,0.0256,0.0151,-0.0303,0.0101,0.0602,0.0755,0.0804,0.0753,0.0554,0.0555,0.0504,0.0303,0.0303,0.0303,0.0303,0.0303,0.0303,0.0303,0.0303,0.0303,0.0303,0.0303,0.0303,0.0303,-0.0303,-0.0353,0.0252,-0.0353,-0.0657,-0.0657,-0.0657,-0.101,0.0,-0.1768,-0.1818,-0.197,-0.2827,-0.3281,-0.3381,-0.3481,-0.3482,-0.3381,-0.3481,-0.3531,-0.3531,-0.3531,-0.3781,-0.4183,-0.4183,-0.4435,-0.4784,-0.4784,-0.4784,-0.4784,-0.4784,-0.4784,-0.4784,-0.4784,-0.4784,-0.4784,-0.4784,-0.4784,-0.4784,-0.4784,-0.4784,-0.4784,-0.4784,-0.4784,-0.4784,-0.4784,-0.4784,-0.4784,-0.4784,-0.4784,-0.4784,-0.4784,-0.4784,-0.4784,-0.4784,-0.4784,-0.4784,-0.4784,-0.4935,-0.5288,-0.5942,-0.6142,-0.6589,-0.7388,-0.7285,-0.7338,-0.7686,-0.8134,-0.8482,-0.863,-0.9278,-0.9579,-0.9579,-0.9579,-0.9579,-0.9579,-0.9579,-0.9677,-0.9776,-0.9776,-0.9805,0.0407,0.0416,0.0284,0.0148,0.035,0.0606,0.0765,0.1117,0.1261,0.0858,0.1059,0.1513,0.1865,0.1967,0.1815,0.1462,0.1361,0.126,0.0857,0.0806,0.0806,0.0806,0.0806,0.0806,0.0806,0.0806,0.0806,0.0806,0.0806,0.0806,0.0806,0.0403,0.0353,0.0806,0.0403,0.0151,0.0151,0.0151,-0.005,-0.0454,-0.0454,-0.0454,-0.0504,-0.2119,-0.2675,-0.2474,-0.2978,-0.3079,-0.2826,-0.3079,-0.318,-0.318,-0.318,-0.3381,-0.3632,-0.3632,-0.3934,-0.4435,-0.4435,-0.4583,-0.4784,-0.4784,-0.4784,-0.4784,-0.4784,-0.4784,-0.4784,-0.4784,-0.4784,-0.4784,-0.4784,-0.4784,-0.4784,-0.4784,-0.4784,-0.4784,-0.4784,-0.4784,-0.4784,-0.4784,-0.4784,-0.4784,-0.4784,-0.4784,-0.4784,-0.4784,-0.4784,-0.4784,-0.4784,-0.4784,-0.4985,-0.5388,-0.5438,-0.5739,-0.6539,-0.6287,-0.6387,-0.7138,-0.7235,-0.7434,-0.7836,-0.8581,-0.9229,-0.9579,-0.9579,-0.9579,-0.9579,-0.9579,-0.9579,-0.9579,-0.9579,-0.9579,0.1815,0.2161,0.2252,0.1986,0.1858,0.1711,0.1411,0.1815,0.2219,0.2219,0.2219,0.2422,0.3079,0.318,0.2977,0.232,0.2219,0.1967,0.131,0.121,0.121,0.121,0.121,0.121,0.121,0.121,0.121,0.121,0.121,0.121,0.121,0.1058,0.1058,0.121,0.1058,0.1008,0.1008,0.1008,0.0958,0.0806,0.0806,0.0806,0.0756,-0.1058,-0.1665,-0.1465,-0.2474,-0.2675,-0.2321,-0.2726,-0.2928,-0.2928,-0.2928,-0.2978,-0.3079,-0.3079,-0.338,-0.3883,-0.3982,-0.4282,-0.4684,-0.4784,-0.4784,-0.4784,-0.4784,-0.4784,-0.4784,-0.4784,-0.4784,-0.4784,-0.4784,-0.4784,-0.4784,-0.4784,-0.4784,-0.4784,-0.4784,-0.4784,-0.4784,-0.4784,-0.4784,-0.4784,-0.4784,-0.4784,-0.4784,-0.4784,-0.4784,-0.4784,-0.4784,-0.4784,-0.4784,-0.4784,-0.4784,-0.5085,-0.5739,-0.5188,-0.5386,-0.6686,-0.6292,-0.6292,-0.6989,-0.7786,-0.8482,-0.9179,-0.9327,-0.9327,-0.9179,-0.9179,-0.9179,-0.9179,-0.9179,-0.9179,0.2338,0.2456,0.2579,0.3029,0.2885,0.282,0.3426,0.3278,0.3029,0.3029,0.3029,0.3079,0.318,0.318,0.318,0.3079,0.3029,0.2977,0.2876,0.2876,0.2876,0.2876,0.2876,0.2876,0.2876,0.2876,0.2876,0.2876,0.2876,0.2876,0.2876,0.2219,0.2169,0.2876,0.2219,0.1815,0.1815,0.1815,0.1513,0.0806,0.0806,0.0806,0.0806,0.0504,0.005,-0.0606,-0.1465,-0.1768,-0.1718,-0.1768,-0.1819,-0.1819,-0.1819,-0.212,-0.2522,-0.2522,-0.2825,-0.3381,-0.3833,-0.4033,-0.4183,-0.4634,-0.4784,-0.4784,-0.4784,-0.4784,-0.4784,-0.4784,-0.4784,-0.4784,-0.4784,-0.4784,-0.4784,-0.4784,-0.4784,-0.4784,-0.4784,-0.4784,-0.4784,-0.4784,-0.4784,-0.4784,-0.4784,-0.4784,-0.4784,-0.4784,-0.4784,-0.4784,-0.4784,-0.4784,-0.4784,-0.4784,-0.4784,-0.4834,-0.4935,-0.4885,-0.4885,-0.5085,-0.5689,-0.6042,-0.6142,-0.6939,-0.7434,-0.7537,-0.8184,-0.8233,-0.7537,-0.7537,-0.7537,-0.7537,-0.7537,-0.7537,0.4096,0.4357,0.4424,0.4568,0.4436,0.4276,0.4022,0.3831,0.3581,0.3281,0.318,0.318,0.318,0.318,0.318,0.318,0.318,0.318,0.318,0.318,0.318,0.318,0.318,0.318,0.318,0.318,0.318,0.318,0.318,0.318,0.318,0.2876,0.2826,0.318,0.2876,0.2674,0.2674,0.2674,0.2472,0.2169,0.2169,0.2169,0.2118,0.1664,0.1009,0.0252,-0.0555,-0.0656,-0.0303,-0.1212,-0.1314,-0.096,-0.1415,-0.1768,-0.1969,-0.1969,-0.2271,-0.2775,-0.3026,-0.3278,-0.3632,-0.4183,-0.4334,-0.4384,-0.4684,-0.4784,-0.4784,-0.4784,-0.4784,-0.4784,-0.4784,-0.4784,-0.4784,-0.4784,-0.4784,-0.4784,-0.4784,-0.4784,-0.4784,-0.4784,-0.4784,-0.4784,-0.4784,-0.4784,-0.4784,-0.4784,-0.4784,-0.4784,-0.4784,-0.4784,-0.4784,-0.4784,-0.4784,-0.4784,-0.4784,-0.4784,-0.4784,-0.4784,-0.5135,-0.5338,-0.5338,-0.6089,-0.6339,-0.5887,-0.7086,-0.7537,-0.7188,-0.7188,-0.7188,-0.7188,-0.7188,-0.7188,0.5376,0.5725,0.578,0.5638,0.5545,0.5312,0.4539,0.4169,0.3882,0.3481,0.3281,0.318,0.318,0.318,0.318,0.318,0.318,0.318,0.318,0.318,0.318,0.318,0.318,0.318,0.318,0.318,0.318,0.318,0.318,0.318,0.318,0.318,0.318,0.318,0.318,0.318,0.318,0.318,0.318,0.318,0.318,0.318,0.318,0.2573,0.1967,0.1361,0.0353,0.0252,0.0706,-0.0504,-0.0656,-0.0151,-0.0757,-0.101,-0.101,-0.101,-0.1261,-0.1613,-0.1967,-0.2371,-0.2825,-0.358,-0.3783,-0.3883,-0.4284,-0.4483,-0.4583,-0.4583,-0.4684,-0.4784,-0.4784,-0.4784,-0.4784,-0.4784,-0.4784,-0.4784,-0.4784,-0.4784,-0.4784,-0.4784,-0.4784,-0.4784,-0.4784,-0.4784,-0.4784,-0.4784,-0.4784,-0.4784,-0.4784,-0.4784,-0.4784,-0.4784,-0.4784,-0.4784,-0.4784,-0.4784,-0.4784,-0.4784,-0.4784,-0.4784,-0.4784,-0.5388,-0.5388,-0.4834,-0.5984,-0.6587,-0.6587,-0.6587,-0.6587,-0.6587,-0.6587,-0.6587,0.5322,0.5477,0.558,0.5818,0.5671,0.5489,0.5447,0.4678,0.3982,0.3982,0.3531,0.318,0.318,0.318,0.318,0.318,0.318,0.318,0.318,0.318,0.318,0.318,0.318,0.318,0.318,0.318,0.318,0.318,0.318,0.318,0.318,0.318,0.318,0.318,0.318,0.318,0.318,0.318,0.318,0.318,0.318,0.318,0.318,0.318,0.313,0.2977,0.1412,0.0756,0.0806,0.0706,0.0706,0.0756,0.0706,0.0655,0.0655,0.0655,0.0655,0.0454,-0.0806,-0.126,-0.1513,-0.2826,-0.323,-0.323,-0.3281,-0.3632,-0.4033,-0.4033,-0.4384,-0.4784,-0.4784,-0.4784,-0.4784,-0.4784,-0.4784,-0.4784,-0.4784,-0.4784,-0.4784,-0.4784,-0.4784,-0.4784,-0.4784,-0.4784,-0.4784,-0.4784,-0.4784,-0.4784,-0.4784,-0.4784,-0.4784,-0.4784,-0.4784,-0.4784,-0.4784,-0.4784,-0.4784,-0.4784,-0.4784,-0.4784,-0.4784,-0.4834,-0.4834,-0.4784,-0.4885,-0.4935,-0.4935,-0.4935,-0.4935,-0.4935,-0.4935,-0.4935,0.5227,0.5398,0.5545,0.571,0.5777,0.5677,0.5418,0.488,0.4352,0.4009,0.3551,0.318,0.318,0.318,0.318,0.318,0.318,0.318,0.318,0.318,0.318,0.318,0.318,0.318,0.318,0.318,0.318,0.318,0.318,0.318,0.318,0.318,0.318,0.318,0.318,0.318,0.318,0.318,0.318,0.318,0.318,0.318,0.318,0.318,0.318,0.318,0.2573,0.232,0.2269,0.121,0.1109,0.1513,0.1008,0.0806,0.0806,0.0806,0.0806,0.0756,0.0252,0.0101,-0.005,-0.0857,-0.1513,-0.1966,-0.2318,-0.2924,-0.3481,-0.3481,-0.3632,-0.3783,-0.3783,-0.3783,-0.3883,-0.4183,-0.4282,-0.4383,-0.4734,-0.4784,-0.4784,-0.4784,-0.4784,-0.4784,-0.4784,-0.4784,-0.4784,-0.4784,-0.4784,-0.4684,-0.4334,-0.4282,-0.4282,-0.4282,-0.4282,-0.4435,-0.4784,-0.4784,-0.4634,-0.4284,-0.4282,-0.4133,-0.3783,-0.3783,-0.3783,-0.3783,-0.4133,-0.4433,-0.4784,-0.4784,-0.4784,-0.4784,-0.4784,-0.4784,0.5175,0.5306,0.5427,0.5586,0.5715,0.5786,0.5531,0.521,0.481,0.4501,0.406,0.3704,0.3728,0.3732,0.3632,0.3281,0.318,0.318,0.318,0.318,0.318,0.318,0.318,0.318,0.318,0.318,0.318,0.318,0.318,0.0,0.318,0.318,0.318,0.318,0.318,0.318,0.318,0.318,0.318,0.318,0.318,0.318,0.318,0.318,0.318,0.318,0.318,0.318,0.313,0.2068,0.1916,0.237,0.1815,0.1613,0.1613,0.1613,0.1613,0.1563,0.131,0.121,0.1109,0.0454,-0.0101,-0.0605,-0.0956,-0.1763,-0.2522,-0.2522,-0.2876,-0.318,-0.318,-0.318,-0.3281,-0.3632,-0.3883,-0.4083,-0.4433,-0.4684,-0.4784,-0.4784,-0.4784,-0.4784,-0.4784,-0.4784,-0.4734,-0.4583,-0.4533,-0.4334,-0.3781,-0.3732,-0.3732,-0.3732,-0.3732,-0.3883,-0.4234,-0.4284,-0.4133,-0.3732,-0.3732,-0.3581,-0.323,-0.318,-0.318,-0.318,-0.3531,-0.3882,-0.4284,-0.4634,-0.4784,-0.4784,-0.4784,-0.4784,0.0,0.0,0.0,0.5445,0.5597,0.5718,0.5874,0.5572,0.5353,0.5458,0.5087,0.4726,0.4764,0.4782,0.4483,0.343,0.323,0.323,0.323,0.323,0.323,0.323,0.323,0.318,0.318,0.318,0.318,0.318,0.318,0.318,0.318,0.318,0.318,0.318,0.318,0.318,0.318,0.318,0.318,0.318,0.318,0.318,0.318,0.318,0.318,0.318,0.318,0.318,0.318,0.318,0.318,0.318,0.318,0.318,0.318,0.318,0.318,0.3079,0.232,0.2017,0.1916,0.1109,0.0857,0.0857,0.0857,-0.0101,-0.1159,-0.1159,-0.2068,-0.3079,-0.313,-0.313,-0.318,-0.318,-0.3581,-0.3932,-0.3982,-0.4383,-0.4784,-0.4784,-0.4784,-0.4784,-0.4784,-0.4784,-0.4583,-0.4083,-0.3982,-0.3783,-0.323,-0.318,-0.318,-0.318,-0.318,-0.318,-0.318,-0.318,-0.318,-0.318,-0.318,-0.318,-0.313,-0.313,-0.313,-0.313,-0.318,-0.318,-0.318,-0.4234,-0.4784,-0.4784,-0.4784,-0.4784,0.5078,0.0,0.0,0.0,0.0,0.0,0.5729,0.5458,0.5176,0.5204,0.4945,0.4706,0.4732,0.479,0.4684,0.4384,0.4334,0.4334,0.4334,0.4033,0.3783,0.3783,0.343,0.318,0.318,0.318,0.318,0.0,0.318,0.318,0.318,0.318,0.318,0.318,0.318,0.318,0.318,0.318,0.318,0.318,0.318,0.318,0.318,0.318,0.318,0.318,0.318,0.318,0.318,0.318,0.318,0.318,0.318,0.318,0.318,0.318,0.318,0.318,0.2927,0.2876,0.2826,0.2623,0.2118,0.1664,0.1664,0.1008,0.0252,0.0252,0.0,-0.0454,-0.1009,-0.1615,-0.2121,-0.2522,-0.2724,-0.2925,-0.333,-0.3833,-0.4334,-0.4734,-0.4784,-0.4784,-0.4784,-0.4483,-0.4183,-0.4033,-0.3682,-0.3229,-0.2674,-0.2623,-0.2623,-0.2623,-0.2623,-0.2775,-0.318,-0.318,-0.3029,-0.2623,-0.2623,-0.2423,-0.207,-0.202,-0.202,-0.202,-0.2423,-0.2623,-0.2623,-0.3679,-0.4234,-0.4234,-0.4634,-0.4784,0.5181,0.5317,0.5469,0.545,0.0,0.0,0.5677,0.5515,0.5345,0.5435,0.5312,0.5217,0.5261,0.5319,0.5375,0.5419,0.5426,0.5291,0.4878,0.4533,0.4334,0.4334,0.4083,0.3883,0.3883,0.3883,0.3783,0.3531,0.3531,0.343,0.323,0.318,0.318,0.318,0.318,0.318,0.318,0.318,0.318,0.318,0.318,0.318,0.318,0.318,0.318,0.318,0.318,0.318,0.318,0.318,0.318,0.318,0.318,0.318,0.318,0.318,0.318,0.318,0.318,0.318,0.318,0.318,0.2876,0.2522,0.2522,0.1917,0.131,0.131,0.1058,0.0605,-0.0202,-0.0758,-0.1263,-0.1918,-0.222,-0.2472,-0.2775,-0.3279,-0.3831,-0.4383,-0.4483,-0.4533,-0.4784,-0.4183,-0.3682,-0.3682,-0.3229,-0.2675,-0.212,-0.207,-0.207,-0.207,-0.207,-0.217,-0.2524,-0.2524,-0.2424,-0.207,-0.207,-0.1919,-0.1617,-0.1617,-0.1617,-0.1617,-0.1919,-0.217,-0.2422,-0.3228,-0.3682,-0.3682,-0.4234,-0.4483,0.5416,0.544,0.5447,0.5486,0.5537,0.0,0.5672,0.5699,0.5729,0.5847,0.5874,0.5918,0.6026,0.6056,0.6105,0.6276,0.6309,0.6012,0.5122,0.4935,0.4885,0.4885,0.4834,0.4784,0.4784,0.4784,0.4583,0.4033,0.3932,0.3682,0.323,0.3281,0.3281,0.3281,0.3331,0.3381,0.3381,0.3381,0.3381,0.3381,0.3381,0.3381,0.3381,0.3331,0.3281,0.3281,0.323,0.318,0.318,0.318,0.318,0.318,0.318,0.318,0.318,0.318,0.318,0.318,0.318,0.318,0.318,0.318,0.318,0.318,0.318,0.2724,0.2118,0.2118,0.1563,0.0756,0.005,-0.0202,-0.0454,-0.1263,-0.1817,-0.222,-0.227,-0.2725,-0.3229,-0.3731,-0.3882,-0.4083,-0.4533,-0.3781,-0.313,-0.313,-0.2675,-0.212,-0.1667,-0.1617,-0.1617,-0.1617,-0.1617,-0.1617,-0.1617,-0.1617,-0.1617,-0.1617,-0.1617,-0.1617,-0.1617,-0.1617,-0.1617,-0.1617,-0.1617,-0.1818,-0.2321,-0.2826,-0.313,-0.323,-0.3682,-0.3932,0.5396,0.5581,0.576,0.5548,0.0,0.0,0.5726,0.5803,0.5822,0.561,0.5653,0.5729,0.5753,0.5877,0.5977,0.6102,0.6251,0.626,0.6121,0.5737,0.5436,0.5436,0.5085,0.4784,0.4784,0.4784,0.4583,0.4033,0.3581,0.3331,0.323,0.3632,0.3833,0.3833,0.4284,0.4483,0.4483,0.4483,0.4483,0.4483,0.4483,0.4483,0.4483,0.4033,0.3833,0.3831,0.3381,0.318,0.318,0.318,0.318,0.318,0.318,0.318,0.318,0.318,0.318,0.318,0.318,0.318,0.318,0.318,0.318,0.318,0.318,0.3079,0.2977,0.2977,0.2371,0.1714,0.1564,0.1059,0.0353,-0.0454,-0.0707,-0.0959,-0.1616,-0.217,-0.2573,-0.2672,-0.3078,-0.3381,-0.3481,-0.2976,-0.2573,-0.2573,-0.212,-0.1718,-0.1617,-0.1617,-0.1617,-0.1617,-0.1617,-0.1617,-0.1617,-0.1617,-0.1617,-0.1617,-0.1617,-0.1617,-0.1617,-0.1617,-0.1617,-0.1617,-0.1617,-0.1667,-0.1768,-0.2271,-0.2775,-0.318,-0.3331,-0.3381,0.5583,0.5681,0.5803,0.5696,0.0,0.0,0.0,0.5817,0.5801,0.5694,0.5686,0.5704,0.5806,0.5817,0.5858,0.5975,0.6045,0.6127,0.6246,0.6114,0.5987,0.5987,0.5787,0.5584,0.5584,0.5584,0.5386,0.4834,0.4284,0.3982,0.3982,0.4234,0.4383,0.4383,0.4684,0.4784,0.4784,0.4784,0.4784,0.4784,0.4784,0.4784,0.4784,0.4533,0.4383,0.4383,0.4133,0.3982,0.3982,0.3982,0.3982,0.3932,0.343,0.318,0.318,0.318,0.318,0.318,0.318,0.318,0.318,0.318,0.318,0.318,0.318,0.318,0.318,0.318,0.2927,0.2522,0.2118,0.1714,0.1109,-0.0101,-0.0404,-0.0606,-0.1415,-0.1818,-0.2019,-0.2019,-0.2222,-0.2575,-0.313,-0.2524,-0.207,-0.2371,-0.1919,-0.1617,-0.1617,-0.1617,-0.1617,-0.1617,-0.1617,-0.1617,-0.1617,-0.1617,-0.1617,-0.1617,-0.1617,-0.1617,-0.1617,-0.1617,-0.1617,-0.1617,-0.1617,-0.1617,-0.1617,-0.1869,-0.2121,-0.2424,-0.2675,-0.2826,0.0,0.0,0.0,0.0,0.0,0.5841,0.0,0.0,0.0,0.6184,0.6028,0.5902,0.5998,0.5849,0.5691,0.5852,0.5888,0.0,0.0,0.6233,0.0,0.6319,0.6319,0.6327,0.6401,0.6305,0.6064,0.5634,0.5068,0.4766,0.4782,0.4885,0.4935,0.4935,0.5035,0.5085,0.5085,0.5085,0.5085,0.5085,0.5085,0.5085,0.5085,0.4985,0.4935,0.4935,0.4834,0.4784,0.4784,0.4784,0.4784,0.4684,0.3732,0.3331,0.3331,0.323,0.318,0.318,0.318,0.318,0.318,0.318,0.318,0.318,0.318,0.318,0.318,0.318,0.318,0.3029,0.2422,0.2219,0.1866,0.0404,0.005,-0.0151,-0.0959,-0.1161,-0.1161,-0.1364,-0.1263,-0.1515,-0.2676,-0.2171,-0.1768,-0.217,-0.1869,-0.1617,-0.1617,-0.1617,-0.1617,-0.1617,-0.1617,-0.1617,-0.1617,-0.1617,-0.1617,-0.1617,-0.1617,-0.1617,-0.1617,-0.1617,-0.1617,-0.1617,-0.1617,-0.1617,-0.1617,-0.1617,-0.1617,-0.1617,-0.2019,-0.227,0.0,0.0,0.0,0.0,0.5983,0.0,0.0,0.0,0.6995,0.7411,0.0,0.6522,0.6535,0.0,0.0,0.0,0.0,0.0,0.592,0.604,0.6124,0.6124,0.6124,0.6168,0.6276,0.5897,0.559,0.5579,0.5055,0.4749,0.478,0.5233,0.5484,0.5484,0.5984,0.6234,0.6234,0.6234,0.6234,0.6234,0.6234,0.6234,0.6184,0.5734,0.5484,0.5484,0.4985,0.4784,0.4784,0.4784,0.4784,0.4734,0.4133,0.3932,0.3833,0.3381,0.318,0.318,0.318,0.318,0.318,0.318,0.318,0.318,0.318,0.318,0.318,0.318,0.318,0.318,0.3079,0.3079,0.2826,0.1917,0.1715,0.1513,0.0706,0.0504,0.0303,-0.0404,0.005,0.005,-0.1515,-0.1667,-0.1617,-0.1667,-0.1617,-0.1617,-0.1617,-0.1617,-0.1617,-0.1617,-0.1617,-0.1617,-0.1617,-0.1617,-0.1617,-0.1617,-0.1617,-0.1617,-0.1617,-0.1617,-0.1617,-0.1617,-0.1617,-0.1617,-0.1617,-0.1617,-0.1617,-0.1617,-0.1667,-0.1667,0.0,0.0,0.0,0.0,0.0,0.0,0.7486,0.0,0.7437,0.0,0.0,0.0,0.0,0.0,0.0,0.0,0.5729,0.0,0.0,0.0,0.5931,0.607,0.0,0.0,0.6157,0.5971,0.5845,0.5891,0.5718,0.565,0.5647,0.5902,0.6084,0.6084,0.6284,0.6387,0.6387,0.6387,0.6387,0.6387,0.6387,0.6387,0.6387,0.6187,0.6084,0.6034,0.5834,0.5734,0.5734,0.5734,0.5734,0.5684,0.5135,0.4533,0.3982,0.3732,0.3482,0.318,0.318,0.318,0.318,0.318,0.318,0.318,0.318,0.318,0.318,0.318,0.318,0.318,0.318,0.318,0.3078,0.2571,0.2469,0.2317,0.1813,0.146,0.1158,0.0806,0.0806,0.0605,-0.0101,-0.0606,-0.1061,-0.1516,-0.1617,-0.1617,-0.1617,-0.1617,-0.1617,-0.1617,-0.1617,-0.1415,-0.096,-0.0909,-0.0707,-0.0252,-0.0656,-0.0909,-0.0909,-0.1364,-0.1617,-0.1617,-0.1617,-0.1617,-0.1617,-0.1617,-0.1617,-0.1617,-0.1617,-0.1617,0.7848,0.0,0.0,0.0,0.0,0.0,0.0,0.0,0.0,0.0,0.0,0.0,0.0,0.0,0.0,0.0,0.0,0.5688,0.0,0.5688,0.0,0.0,0.0,0.0,0.0,0.6034,0.6048,0.6083,0.6138,0.6198,0.6314,0.6344,0.6404,0.6384,0.6387,0.6387,0.6387,0.6387,0.6387,0.6387,0.6387,0.6387,0.6387,0.6387,0.6387,0.6387,0.6387,0.6387,0.6387,0.6387,0.6387,0.6384,0.5984,0.5233,0.4435,0.4284,0.3982,0.3632,0.3632,0.3531,0.3381,0.323,0.318,0.318,0.318,0.318,0.323,0.3381,0.343,0.3432,0.3581,0.3632,0.358,0.3374,0.3373,0.3272,0.312,0.2767,0.2414,0.2212,0.1913,0.1562,0.1108,0.0403,-0.0252,-0.0858,-0.1111,-0.1263,-0.1263,-0.1263,-0.1263,-0.1263,-0.106,-0.0707,-0.0101,-0.005,0.0202,0.0756,0.0252,-0.0151,-0.0404,-0.096,-0.1364,-0.1617,-0.1617,-0.1617,-0.1617,-0.1617,-0.1617,-0.1617,-0.1617,-0.1617,0.0,0.0,0.0,0.8452,0.0,0.0,0.0,0.0,0.9298,0.0,0.0,0.0,0.0,0.0,0.0,0.0,0.0,0.0,0.0,0.0,0.0,0.0,0.0,0.0,0.0,0.5909,0.5958,0.0,0.5977,0.6018,0.6306,0.632,0.6325,0.6384,0.6387,0.6387,0.6387,0.6387,0.6387,0.6387,0.6387,0.6387,0.6387,0.6387,0.6387,0.6387,0.6387,0.6387,0.6387,0.6387,0.6387,0.6387,0.6387,0.6037,0.5484,0.4985,0.4784,0.4734,0.4734,0.4435,0.3882,0.3381,0.318,0.318,0.318,0.318,0.3331,0.3831,0.3982,0.4083,0.4634,0.4734,0.4734,0.4734,0.4734,0.4734,0.4734,0.4734,0.4479,0.3671,0.3726,0.3426,0.1861,0.1108,0.0756,0.0706,0.005,-0.0455,-0.0455,-0.0455,-0.0455,-0.0455,0.0252,0.0756,0.0756,0.0756,0.0756,0.0806,0.0756,0.0403,-0.0354,-0.0404,-0.0808,-0.1566,-0.1617,-0.1617,-0.1617,-0.1617,-0.1617,-0.1617,-0.1617,-0.1617,0.0,0.0,1.0521,1.0524,0.0,0.0,0.0,0.0,0.0,0.0,0.0,0.0,0.0,0.0,0.0,0.0,0.0,0.0,0.0,0.0,0.0,0.0,0.0,0.0,0.0,0.0,0.0,0.0,0.6002,0.0,0.6309,0.6339,0.6396,0.6384,0.6387,0.6387,0.6387,0.6387,0.6387,0.6387,0.6387,0.6387,0.6387,0.6387,0.6387,0.6387,0.6387,0.6387,0.6387,0.6387,0.6387,0.6387,0.6387,0.6284,0.6084,0.5536,0.5085,0.4784,0.4784,0.4684,0.4483,0.4334,0.4033,0.3732,0.3732,0.3481,0.3331,0.3833,0.3982,0.4133,0.4684,0.4784,0.4899,0.5368,0.5486,0.5607,0.6039,0.5846,0.5462,0.5137,0.4822,0.4345,0.3381,0.3022,0.2418,0.1008,0.0555,0.0202,-0.0353,0.005,0.0202,-0.0354,0.0303,0.1008,0.1563,0.2068,0.2371,0.2371,0.1865,0.121,0.0403,-0.0101,-0.0758,-0.1566,-0.1617,-0.1617,-0.1617,-0.1617,-0.1617,-0.1617,-0.1617,-0.1617,0.9212,0.978,0.0,1.0858,1.0641,0.0,0.9972,0.0,0.0,0.0,0.0,0.0,0.0,0.0,0.0,0.0,0.0,0.0,0.0,0.5688,0.0,0.0,0.0,0.5688,0.0,0.5688,0.5718,0.5836,0.5953,0.6075,0.0,0.0,0.6387,0.6387,0.6427,0.643,0.6387,0.6387,0.6387,0.6387,0.6387,0.6387,0.6387,0.6387,0.6387,0.6387,0.6387,0.6387,0.6387,0.6387,0.6387,0.6387,0.6387,0.6387,0.6337,0.6037,0.5684,0.5334,0.5135,0.5085,0.5035,0.4885,0.4583,0.4282,0.4282,0.4033,0.3882,0.4435,0.4583,0.4684,0.5236,0.5386,0.5502,0.5925,0.6075,0.6228,0.6615,0.6508,0.6253,0.618,0.5667,0.5158,0.469,0.4453,0.3679,0.1916,0.1412,0.1059,0.0505,0.0908,0.1009,0.0505,0.116,0.1865,0.2371,0.2944,0.3212,0.3212,0.2769,0.2103,0.1273,0.0509,-0.0305,-0.1162,-0.1475,-0.1628,-0.1617,-0.1628,-0.1627,-0.1617,-0.1617,-0.1617]},{"header":{"parameterUnit":"m.s-1","parameterCategory":1,"la1":30.6,"la2":29.2853,"lo1":-89.7004,"lo2":-87.6739,"dy":0.0162,"dx":0.0183,"nx":112,"ny":82,"refTime":"2024-09-01T00:00:00:Z","depth":0,"parameterNumber":3,"parameterNumberName":"V-component_of_WINDS"},"data":[0.0,0.0,0.0,0.0,0.0,0.0,0.0,0.0,0.0,0.0,0.0,0.0,0.0,0.0,0.0,0.0,0.0,0.0,0.0,0.0,0.0,0.0,0.0,0.0,0.0,0.0,0.0,0.0,0.0,0.0,0.0,0.0,0.0,0.0,0.0,0.0,0.0,0.0,0.0,0.0,0.0,0.0,0.0,0.0,0.0,0.0,0.0,0.0,0.0,0.0,0.0,0.0,0.0,0.0,0.0,0.0,0.0,0.0,0.0,0.0,0.0,0.0,0.0,0.0,0.0,0.0,0.0,0.0,0.0,0.0,0.0,0.0,0.0,0.0,0.0,0.0,0.0,0.0,0.0,0.0,0.0,0.0,0.0,0.0,0.0,0.0,0.0,0.0,0.0,0.0,1.1313,1.0622,1.0347,1.0679,1.1804,1.2576,1.2742,1.214,0.0,0.0,0.0,0.0,0.0,0.0,0.0,0.0,0.0,0.0,0.0,0.0,0.0,0.0,0.0,0.0,0.0,0.0,0.0,0.0,0.0,0.0,0.0,0.0,0.0,0.0,0.0,0.0,0.0,0.0,0.0,0.0,0.0,0.0,0.0,0.0,0.0,0.0,0.0,0.0,0.0,0.0,0.0,0.0,0.0,0.0,0.0,0.0,0.0,0.0,0.0,0.0,0.0,0.0,0.0,0.0,0.0,0.0,0.0,0.0,0.0,0.0,0.0,0.0,0.0,0.0,0.0,0.0,0.0,0.0,0.0,0.0,0.0,0.0,0.0,0.0,0.0,0.0,0.0,0.0,0.0,0.0,0.0,0.0,0.0,0.0,0.0,0.0,0.0,0.0,0.0,0.0,0.0,0.0,0.0,0.0,0.0,0.0,0.0,0.0,0.0,0.0,0.0,0.0,1.0627,1.0663,1.0232,1.039,1.1412,1.2163,1.2224,1.1345,0.0,0.0,0.0,0.0,0.0,0.0,0.0,0.0,0.0,0.0,0.0,0.0,0.0,0.0,0.0,0.0,0.0,0.0,0.0,0.0,0.0,0.0,0.0,0.0,0.0,0.0,0.0,0.0,0.0,0.0,0.0,0.0,0.0,0.0,0.0,0.0,0.0,0.0,0.0,0.0,0.0,0.0,0.0,0.0,0.0,0.0,0.0,0.0,0.0,0.0,0.0,0.0,0.0,0.0,0.0,0.0,0.0,0.0,0.0,0.0,0.0,0.0,0.0,0.0,0.0,0.0,0.0,0.0,0.0,0.0,0.0,0.0,0.0,0.0,0.0,0.0,0.0,0.0,0.0,0.0,0.0,0.0,0.0,0.0,0.0,0.0,0.0,0.0,0.0,0.0,0.0,0.0,0.0,0.0,0.0,0.0,0.0,0.0,0.0,0.0,0.0,0.0,0.0,1.0008,0.9801,1.0232,0.9919,0.9984,1.0748,1.1337,1.151,1.1107,1.2029,0.0,0.0,0.0,0.0,0.0,0.0,0.0,0.0,0.0,0.0,0.0,0.0,0.0,0.0,0.0,0.0,0.0,0.0,0.0,0.0,0.0,0.0,0.0,0.0,0.0,0.0,0.0,0.0,0.0,0.0,0.0,0.0,0.0,0.0,0.0,0.0,0.0,0.0,0.0,0.0,0.0,0.0,0.0,0.0,0.0,0.0,0.0,0.0,0.0,0.0,0.0,0.0,0.0,0.0,0.0,0.0,0.0,0.0,0.0,0.0,0.0,0.0,0.0,0.0,0.0,0.0,0.0,0.0,0.0,0.0,0.0,0.0,0.0,0.0,0.0,0.0,0.0,0.0,0.0,0.0,0.0,0.0,0.0,0.0,0.0,0.0,0.0,0.0,0.0,0.0,0.0,0.0,0.0,0.0,0.0,0.0,0.0,0.0,0.0,0.0,0.0,0.0,0.9729,0.9343,0.9832,0.9705,0.9741,1.021,1.0746,1.1068,1.1031,1.1613,0.0,0.0,0.0,0.0,0.0,0.0,0.0,0.0,0.0,0.0,0.0,0.0,0.0,0.0,0.0,0.0,0.0,0.0,0.0,0.0,0.0,0.0,0.0,0.0,0.0,0.0,0.0,0.0,0.0,0.0,0.0,0.0,0.0,0.0,0.0,0.0,0.0,0.0,0.0,0.0,0.0,0.0,0.0,0.0,0.0,0.0,0.0,0.0,0.0,0.0,0.0,0.0,0.0,0.0,0.0,0.0,0.0,0.0,0.0,0.0,0.0,0.0,0.0,0.0,0.0,0.0,0.0,0.0,0.0,0.0,0.0,0.0,0.0,0.0,0.0,0.0,0.0,0.0,0.0,0.0,0.0,0.0,0.0,0.0,0.0,0.0,0.0,0.0,0.0,0.0,0.0,0.0,0.0,0.0,0.0,0.0,0.0,0.0,0.0,0.0,0.0,0.0,0.9534,0.9657,0.9883,0.9835,0.9888,1.0076,1.0836,1.1155,1.0843,1.1621,0.0,0.0,0.0,0.0,0.0,0.0,0.0,0.0,0.0,0.0,0.0,0.0,0.0,0.0,0.0,0.0,0.0,0.0,0.0,0.0,0.0,0.0,0.0,0.0,0.0,0.0,0.0,0.0,0.0,0.0,0.0,0.0,0.0,0.0,0.0,0.0,0.0,0.0,0.0,0.0,0.0,0.0,0.0,0.0,0.0,0.0,0.0,0.0,0.0,0.0,0.0,0.0,0.0,0.0,0.0,0.0,0.0,0.0,0.0,0.0,0.0,0.0,0.0,0.0,0.0,0.0,0.0,0.0,0.0,0.0,0.0,0.0,0.0,0.0,0.0,0.0,0.0,0.0,0.0,0.0,0.0,0.0,0.0,0.0,0.0,0.0,0.0,0.0,0.0,0.0,0.0,0.0,0.0,0.0,0.0,0.0,0.0,0.0,0.0,0.0,0.0,0.0,0.937,0.9564,0.9487,0.96,0.977,1.003,1.0581,1.0875,1.0752,0.0,0.0,0.0,0.0,0.0,0.0,0.0,0.0,0.0,0.0,0.0,0.0,0.0,0.0,0.0,0.0,0.0,0.0,0.0,0.0,0.0,0.0,0.0,0.0,0.0,0.0,0.0,0.0,0.0,0.0,0.0,0.0,0.0,0.0,0.0,0.0,0.0,0.0,0.0,0.0,0.0,0.0,0.0,0.0,0.0,0.0,0.0,0.0,0.0,0.0,0.0,0.0,0.0,0.0,0.0,0.0,0.0,0.0,0.0,0.0,0.0,0.0,0.0,0.0,0.0,0.0,0.0,0.0,0.0,0.0,0.0,0.0,0.0,0.0,0.0,0.0,0.0,0.0,0.0,0.0,0.0,0.0,0.0,0.0,0.0,0.0,0.0,0.0,0.0,0.0,0.0,0.0,0.0,0.0,0.0,0.0,0.0,0.0,0.0,0.0,0.0,0.0,0.9178,0.9728,1.0028,0.9748,0.9935,1.0105,1.0186,1.0414,1.0553,1.0602,0.0,0.0,0.0,0.0,0.0,0.0,0.0,0.0,0.0,0.0,0.0,0.0,0.0,0.0,0.0,0.0,0.0,0.0,0.0,0.0,0.0,0.0,0.0,0.0,0.0,0.0,0.0,0.0,0.0,0.0,0.0,0.0,0.0,0.0,0.0,0.0,0.0,0.0,0.0,0.0,0.0,0.0,0.0,0.0,0.0,0.0,0.0,0.0,0.0,0.0,0.0,0.0,0.0,0.0,0.0,0.0,0.0,0.0,0.0,0.0,0.0,0.0,0.0,0.0,0.0,0.0,0.0,0.0,0.0,0.0,0.0,0.0,0.0,0.0,0.0,0.0,0.0,0.0,0.0,0.0,0.0,0.0,0.0,0.0,0.0,0.0,0.0,0.0,0.0,0.0,0.0,0.0,0.0,0.0,0.0,0.0,0.0,0.0,0.0,0.0,0.0,0.0,0.9971,1.0714,1.1171,1.0818,1.0969,1.0951,1.0632,1.0371,1.0255,0.0,0.0,0.0,0.0,0.0,0.0,0.0,0.0,0.0,0.0,0.0,0.0,0.0,0.0,0.0,0.0,0.0,0.0,0.0,0.0,0.0,0.0,0.0,0.0,0.0,0.0,0.0,0.0,0.0,0.0,0.0,0.0,0.0,0.0,0.0,0.0,0.0,0.0,0.0,0.0,0.0,0.0,0.0,0.0,0.0,0.0,0.0,0.0,0.0,0.0,0.0,0.0,0.0,0.0,0.0,0.0,0.0,0.0,0.0,0.0,0.0,0.0,0.0,0.0,0.0,0.0,0.0,0.0,0.0,0.0,0.0,0.0,0.0,0.0,0.0,0.0,0.0,0.0,0.0,0.0,0.0,0.0,0.0,0.0,0.0,0.0,0.0,0.0,0.0,0.0,0.0,0.0,0.0,0.0,0.0,0.0,0.0,0.0,0.0,0.0,0.0,0.0,0.0,0.9844,1.0839,1.1307,1.0582,1.0786,1.099,1.1088,1.0771,1.0617,1.0741,0.0,0.0,0.0,0.0,0.0,0.0,0.0,0.0,0.0,0.0,0.0,0.0,0.0,0.0,0.0,0.0,0.0,0.0,0.0,0.0,0.0,0.0,0.0,0.0,0.0,0.0,0.0,0.0,0.0,0.0,0.0,0.0,0.0,0.0,0.0,0.0,0.0,0.0,0.0,0.0,0.0,0.0,0.0,0.0,0.0,0.0,0.0,0.0,0.0,0.0,0.0,0.0,0.0,0.0,0.0,0.0,0.0,0.0,0.0,0.0,0.0,0.0,0.0,0.0,0.0,0.0,0.0,0.0,0.0,0.0,0.0,0.0,0.0,0.0,0.0,0.0,0.0,0.0,0.0,0.0,0.0,0.0,0.0,0.0,0.0,0.0,0.0,0.0,0.0,0.0,0.0,0.0,0.0,0.0,0.0,0.0,0.0,0.0,0.0,0.0,0.0,0.0,1.0513,1.127,1.1722,1.137,1.1352,1.1447,1.162,1.1369,1.1177,1.1062,0.0,0.0,0.0,0.0,0.0,0.0,0.0,0.0,0.0,0.0,0.0,0.0,0.0,0.0,0.0,0.0,0.0,0.0,0.0,0.0,0.0,0.0,0.0,0.0,0.0,0.0,0.0,0.0,0.0,0.0,0.0,0.0,0.0,0.0,0.0,0.0,0.0,0.0,0.0,0.0,0.0,0.0,0.0,0.0,0.0,0.0,0.0,0.0,0.0,0.0,0.0,0.0,0.0,0.0,0.0,0.0,0.0,0.0,0.0,0.0,0.0,0.0,0.0,0.0,0.0,0.0,0.0,0.0,0.0,0.0,0.0,0.0,0.0,0.0,0.0,0.0,0.0,0.0,0.0,0.0,0.0,0.0,0.0,0.0,0.0,0.0,0.0,0.0,0.0,0.0,0.0,0.0,0.0,0.0,0.0,0.0,0.0,0.0,0.0,0.0,0.0,0.0,1.1519,1.1834,1.2239,1.2597,1.2312,1.2126,1.215,1.2063,1.1839,1.1452,0.0,0.0,0.0,0.0,0.0,0.0,0.0,0.0,0.0,0.0,0.0,0.0,0.0,0.0,0.0,0.0,0.0,0.0,0.0,0.0,0.0,0.0,0.0,0.0,0.0,0.0,0.0,0.0,0.0,0.0,0.0,0.0,0.0,0.0,0.0,0.0,0.0,0.0,0.0,0.0,0.0,0.0,0.0,0.0,0.0,0.0,0.0,0.0,0.0,0.0,0.0,0.0,0.0,0.0,0.0,0.0,0.0,0.0,0.0,0.0,1.6548,0.0,0.0,0.0,0.0,0.0,0.0,0.0,0.0,0.0,0.0,0.0,0.0,0.0,0.0,0.0,0.0,0.0,0.0,0.0,0.0,0.0,0.0,0.0,0.0,0.0,0.0,0.0,0.0,0.0,0.0,0.0,0.0,0.0,0.0,0.0,0.0,0.0,0.0,0.0,0.0,0.0,1.1388,1.1793,1.2128,1.222,1.2147,1.2224,1.2554,1.2215,1.2102,1.2298,1.209,0.0,0.0,0.0,0.0,0.0,0.0,0.0,0.0,0.0,0.0,0.0,0.0,0.0,0.0,0.0,0.0,0.0,0.0,0.0,0.0,0.0,0.0,0.0,0.0,0.0,0.0,0.0,0.0,0.0,0.0,0.0,0.0,0.0,0.0,0.0,0.0,0.0,0.0,0.0,0.0,0.0,0.0,0.0,0.0,0.0,0.0,0.0,0.0,0.0,0.0,0.0,0.0,0.0,0.0,0.0,0.0,0.0,0.0,0.0,0.0,1.7771,0.0,0.0,0.0,0.0,0.0,0.0,0.0,0.0,0.0,0.0,0.0,0.0,0.0,0.0,0.0,0.0,0.0,0.0,0.0,0.0,0.0,0.0,0.0,0.0,0.0,0.0,0.0,0.0,0.0,0.0,0.0,0.0,0.0,0.0,0.0,0.0,0.0,0.0,0.0,0.0,1.2211,1.2568,1.2934,1.3275,1.2897,1.272,1.2924,1.3007,1.3053,1.3028,1.3129,0.0,0.0,0.0,0.0,0.0,0.0,0.0,0.0,0.0,0.0,0.0,0.0,0.0,0.0,0.0,0.0,0.0,0.0,0.0,0.0,0.0,0.0,0.0,0.0,0.0,0.0,0.0,0.0,0.0,0.0,0.0,0.0,0.0,0.0,0.0,0.0,0.0,0.0,0.0,0.0,0.0,0.0,0.0,0.0,0.0,0.0,0.0,0.0,0.0,0.0,0.0,0.0,0.0,2.2899,2.2894,2.2894,2.27,2.2959,2.3427,2.1463,2.0609,2.0539,1.9527,0.0,0.0,0.0,0.0,0.0,0.0,0.0,0.0,0.0,0.0,0.0,0.0,0.0,0.0,0.0,0.0,0.0,0.0,0.0,0.0,0.0,0.0,0.0,0.0,1.8878,1.8876,0.0,0.0,0.0,0.0,0.0,0.0,0.0,0.0,0.0,0.0,0.0,0.0,1.3255,1.3524,1.3876,1.445,1.3809,1.3351,1.3423,1.392,1.4118,1.3805,1.4211,1.4251,0.0,0.0,0.0,0.0,0.0,0.0,0.0,0.0,0.0,0.0,0.0,0.0,0.0,0.0,0.0,0.0,0.0,0.0,0.0,0.0,0.0,0.0,0.0,0.0,0.0,0.0,0.0,0.0,0.0,0.0,0.0,0.0,2.2626,2.3454,0.0,0.0,0.0,0.0,0.0,0.0,0.0,0.0,0.0,0.0,0.0,0.0,0.0,2.4536,2.5214,2.5795,2.6063,2.6015,2.6079,2.6084,2.607,2.5071,2.4884,2.5347,2.5141,0.0,2.1852,2.1676,0.0,0.0,0.0,0.0,0.0,0.0,0.0,0.0,0.0,0.0,0.0,0.0,0.0,0.0,0.0,0.0,0.0,0.0,0.0,0.0,0.0,0.0,2.0831,2.0912,2.0992,2.1003,0.0,1.8861,1.7027,1.6386,1.5753,0.0,0.0,0.0,0.0,0.0,0.0,0.0,1.3685,1.3837,1.3973,1.4076,1.3981,1.4014,1.4295,1.4411,1.4584,1.4869,1.4744,1.4551,1.4322,1.3994,0.0,0.0,0.0,0.0,0.0,0.0,0.0,0.0,0.0,0.0,0.0,0.0,0.0,0.0,0.0,0.0,0.0,0.0,0.0,0.0,0.0,0.0,0.0,0.0,0.0,0.0,0.0,0.0,0.0,2.1778,2.3605,2.3863,2.3989,2.3804,0.0,0.0,0.0,0.0,0.0,0.0,0.0,0.0,0.0,2.6228,2.6637,2.6942,2.729,2.7575,2.753,2.7165,2.7198,2.7203,2.7188,2.6689,2.6583,2.6785,2.6825,2.6007,2.4591,2.3904,2.305,2.2116,0.0,0.0,0.0,0.0,2.1653,2.1745,2.2352,2.2626,0.0,2.1758,0.0,0.0,0.0,0.0,0.0,0.0,0.0,0.0,0.0,0.0,2.0979,2.1318,2.1656,2.1792,2.1467,2.0745,1.979,0.0,1.7661,1.6726,1.5536,0.0,0.0,0.0,0.0,1.504,1.4982,1.5163,1.5229,1.5028,1.4772,1.4674,1.4823,1.4994,1.513,1.5311,1.5323,1.5292,1.5193,1.4721,1.4323,0.0,0.0,0.0,0.0,0.0,0.0,0.0,0.0,0.0,0.0,0.0,0.0,0.0,0.0,0.0,0.0,0.0,0.0,0.0,0.0,0.0,0.0,0.0,0.0,0.0,0.0,0.0,0.0,2.3178,2.4835,2.4783,2.5621,2.5721,0.0,0.0,0.0,0.0,0.0,0.0,2.5561,2.6108,2.6976,2.8304,2.8884,2.9064,2.8861,2.8899,2.8464,2.76,2.76,2.7625,2.765,2.7625,2.7625,2.765,2.7625,2.7315,2.6757,2.5707,2.4853,2.4192,2.3324,2.2913,2.2876,2.3392,2.3569,2.3638,2.4491,2.4818,2.4665,2.3621,0.0,2.2323,2.0433,0.0,0.0,0.0,0.0,2.0609,2.1166,2.1084,2.0937,2.1411,2.186,2.2027,2.1518,2.1738,2.1693,0.0,1.9439,1.8416,1.7047,0.0,0.0,0.0,0.0,1.6633,1.6138,1.6326,1.6349,1.5858,1.5498,1.5335,1.5475,1.5539,1.5639,1.577,1.5797,1.5792,1.5792,1.5324,1.5029,1.4992,0.0,0.0,0.0,0.0,0.0,0.0,0.0,0.0,0.0,0.0,0.0,0.0,0.0,0.0,0.0,0.0,0.0,0.0,0.0,0.0,0.0,0.0,0.0,0.0,0.0,0.0,0.0,0.0,0.0,2.7377,2.7796,0.0,0.0,0.0,0.0,2.5383,2.5495,2.6348,2.8293,2.8427,2.9041,3.0313,3.0569,3.0313,2.9562,2.9681,2.9004,2.76,2.76,2.7675,2.779,2.765,2.7675,2.779,2.765,2.757,2.7495,2.6811,2.6114,2.5508,2.5455,2.5141,2.482,2.5281,2.5593,2.571,2.558,2.5869,2.6273,2.6218,2.5191,2.3812,2.2743,2.1983,0.0,0.0,2.1645,2.1828,2.236,2.2128,2.1742,2.1769,2.1797,2.1739,2.1447,2.1412,2.1426,0.0,2.0823,2.0204,1.9619,0.0,1.8392,1.765,1.7913,1.7811,1.6713,1.6918,1.6813,1.591,1.5782,1.5974,1.6476,1.608,1.6008,1.6512,1.6068,1.5792,1.5792,1.5768,1.5516,1.5013,1.4932,0.0,0.0,0.0,0.0,0.0,0.0,0.0,0.0,0.0,0.0,0.0,0.0,0.0,0.0,0.0,0.0,0.0,0.0,0.0,0.0,0.0,0.0,0.0,0.0,0.0,0.0,0.0,0.0,2.8181,2.9399,0.0,2.7785,2.7597,2.7589,2.758,2.8109,2.8923,3.006,3.012,3.0555,3.1447,3.1957,3.1866,3.1144,3.12,3.0492,2.9004,2.8568,2.8172,2.779,2.765,2.7675,2.779,2.765,2.7785,2.8021,2.7792,2.737,2.6896,2.6896,2.6773,2.6674,2.6822,2.6947,2.6985,2.6897,2.6996,2.7056,2.6282,2.529,2.4297,2.3688,2.3331,2.3094,2.2863,2.2715,2.2632,2.2601,2.2324,2.2067,2.2067,2.1926,2.1817,2.1902,2.1769,2.1712,2.1864,2.1462,2.0833,2.0041,2.0011,1.9792,1.8914,1.9216,1.9242,1.8503,1.8535,1.8356,1.7682,1.7597,1.7685,1.7874,1.7373,1.7,1.6997,1.6436,1.6032,1.5814,1.5792,1.5708,1.5516,1.5181,1.4674,0.0,0.0,0.0,0.0,0.0,0.0,0.0,0.0,0.0,0.0,0.0,0.0,0.0,0.0,0.0,0.0,0.0,0.0,0.0,0.0,0.0,0.0,0.0,0.0,0.0,2.7369,2.8965,2.8691,3.0255,3.0729,2.9189,2.9651,3.0046,3.0029,3.0557,3.1087,3.1597,3.16,3.1839,3.2329,3.2813,3.2828,3.233,3.2159,3.1447,3.0189,2.9524,2.8884,2.8273,2.8293,2.8271,2.8155,2.8213,2.8376,2.867,2.867,2.8496,2.8198,2.8125,2.8116,2.8116,2.8116,2.7993,2.779,2.7563,2.7463,2.7297,2.6312,2.55,2.4803,2.4416,2.4164,2.394,2.3674,2.337,2.3061,2.2904,2.2586,2.2324,2.2324,2.2208,2.2091,2.2184,2.2067,2.1996,2.2184,2.1926,2.1479,2.0857,2.0957,2.0873,2.0124,2.035,2.0302,1.9486,1.9507,1.9348,1.8683,1.8596,1.8673,1.8843,1.8151,1.7782,1.7924,1.71,1.6606,1.6588,1.6274,1.611,1.611,1.5776,1.5662,1.5749,0.0,0.0,0.0,0.0,0.0,0.0,0.0,0.0,0.0,0.0,0.0,0.0,0.0,0.0,0.0,0.0,0.0,0.0,0.0,0.0,0.0,0.0,0.0,2.7925,2.9045,2.9679,2.9202,3.0428,3.1024,3.0318,3.0474,3.1181,3.2529,3.2632,3.2701,3.2837,3.2841,3.2912,3.3069,3.3215,3.323,3.3072,3.2588,3.19,3.1046,3.0403,2.9785,2.9286,2.9583,2.9428,2.8982,2.9264,2.9406,2.9429,2.9429,2.9429,2.9406,2.9212,2.9097,2.9097,2.9097,2.8756,2.822,2.7511,2.7233,2.7141,2.6593,2.5957,2.5352,2.5004,2.4483,2.4024,2.4024,2.3603,2.3194,2.3377,2.3024,2.2646,2.2638,2.2615,2.2532,2.2278,2.2231,2.2208,2.2231,2.2231,2.2231,2.2208,2.1996,2.1674,2.1286,2.1323,0.0,1.9657,1.9832,1.9716,1.8804,1.8693,1.8913,1.9444,1.8454,1.8264,1.9346,1.8043,1.7515,1.8087,1.7256,1.6769,1.6782,1.6833,1.7426,1.8606,0.0,0.0,0.0,0.0,0.0,0.0,0.0,0.0,0.0,0.0,0.0,0.0,0.0,0.0,0.0,0.0,0.0,0.0,0.0,0.0,0.0,2.9179,2.9899,2.8837,2.9921,3.1173,3.2077,3.3033,3.3503,3.3302,3.3475,3.3576,3.3404,3.3535,3.3634,3.3665,3.3665,3.3934,3.4489,3.5074,3.5169,3.4754,3.4979,3.4195,3.2438,3.2161,3.169,3.1078,3.0529,3.0257,3.0181,2.963,2.9585,2.9908,2.9908,3.0097,3.0284,2.9601,2.9248,2.9164,2.9164,2.9042,2.8857,2.8646,2.8231,2.7675,2.7036,2.6345,2.5665,2.5133,2.4847,2.4666,2.4421,2.4234,2.4073,2.3882,2.3732,2.3538,2.3246,2.3068,2.2918,2.2752,2.2592,2.2532,2.2684,2.2706,2.2615,2.2254,2.2137,2.2053,2.1945,2.1959,0.0,2.1474,2.1531,2.1429,2.0968,2.0908,2.0975,2.1138,2.046,1.9926,1.9692,1.8895,1.8386,1.8321,1.8067,1.8165,1.8645,1.8286,1.8275,0.0,0.0,0.0,0.0,0.0,0.0,0.0,0.0,0.0,0.0,0.0,0.0,0.0,0.0,0.0,0.0,0.0,0.0,0.0,0.0,0.0,0.0,3.0954,3.1816,3.0954,3.1579,3.2324,3.2865,3.3592,3.415,3.4455,3.4594,3.462,3.4503,3.4608,3.4577,3.4358,3.4333,3.4544,3.504,3.5509,3.5712,3.5703,3.5706,3.5074,3.3847,3.3478,3.2943,3.2296,3.1976,3.1727,3.1508,3.0877,3.094,3.1456,3.1141,3.1145,0.0,0.0,0.0,0.0,0.0,2.9445,2.9345,2.9035,2.8652,2.8168,2.7503,2.6862,2.6242,2.5619,2.5282,2.5064,2.4802,2.462,2.4457,2.4271,2.4109,2.394,2.3717,2.3566,2.3473,2.3378,2.3275,2.3209,2.3334,2.3356,0.0,2.2994,2.2632,2.237,2.237,2.2278,2.2208,2.2208,2.2208,2.2137,2.1996,2.1973,2.1973,2.1973,2.1402,0.0,0.0,0.0,1.9495,1.917,1.9135,0.0,0.0,0.0,0.0,0.0,0.0,0.0,0.0,2.0113,2.0405,0.0,0.0,0.0,0.0,0.0,0.0,0.0,0.0,0.0,0.0,0.0,0.0,0.0,0.0,0.0,0.0,3.2209,3.3525,3.3525,3.3609,3.3372,3.2649,3.3119,3.3812,3.4539,3.4624,3.4895,3.5549,3.5667,3.5486,3.4927,0.0,0.0,0.0,0.0,3.5548,3.607,3.5484,3.5136,3.4978,3.4453,3.3868,3.3298,3.3641,3.3466,3.2884,3.2568,3.2797,3.3355,3.2679,3.2296,3.2004,3.1078,3.063,3.0468,3.0049,2.9875,2.9778,2.9129,0.0,0.0,2.8053,2.7545,2.6997,2.6345,2.5807,2.5368,2.5171,2.4829,2.4559,2.4559,2.4354,2.4109,2.4067,2.4067,2.4046,2.4003,2.4003,2.4003,2.4003,2.4003,2.4003,2.4003,2.3319,2.276,2.276,2.2555,2.2379,2.2333,2.2333,2.231,2.2254,0.0,0.0,2.2254,2.1747,2.1671,2.2136,2.1347,2.072,2.0414,2.047,2.0779,2.1378,2.1392,2.1885,2.2888,2.3514,2.3687,2.3479,2.1287,2.1533,0.0,0.0,0.0,0.0,0.0,0.0,0.0,0.0,0.0,0.0,0.0,0.0,0.0,0.0,0.0,3.2988,3.3826,3.4286,3.4286,3.481,3.4912,3.415,3.4201,3.4573,3.5312,3.538,3.5447,3.5583,3.6197,3.6236,3.5481,3.606,3.6441,3.6441,3.6458,3.6334,3.6034,3.6317,3.5909,3.4847,0.0,0.0,3.5081,3.4583,3.4273,3.4127,3.3465,3.3271,3.3389,3.3254,3.2769,3.2004,3.1078,3.0692,3.0651,3.0426,3.0363,3.0347,3.0198,2.9753,2.9222,2.8915,2.8403,2.7803,2.727,2.6686,0.0,2.5885,2.5368,2.4886,2.4886,2.4866,2.4746,2.4477,2.4395,2.4333,2.4067,2.4003,2.4003,2.4003,2.4003,2.4003,2.4003,2.3855,2.3732,2.3732,2.3689,2.3523,2.3209,2.3165,2.3001,2.2578,2.2509,2.2509,2.2509,2.2432,2.2271,2.2039,2.186,2.1715,2.1636,2.2104,2.2435,2.2565,2.2565,2.2682,2.2888,2.3041,2.3337,2.3835,2.4144,2.4549,0.0,0.0,0.0,0.0,0.0,0.0,0.0,0.0,0.0,0.0,0.0,3.054,3.2151,0.0,3.3631,3.4807,3.5427,3.5663,3.5467,3.5724,3.5598,3.4634,3.4827,3.5199,3.5566,3.56,3.56,3.56,3.5977,3.6197,3.6197,3.6197,3.6366,3.6795,3.64,3.6066,3.5793,3.6083,3.5857,3.5201,3.547,3.56,3.5583,3.5211,3.5064,3.5013,3.4269,3.4167,3.4433,3.3664,3.3098,3.2559,3.1307,3.0753,3.0692,3.0547,3.0506,3.0506,3.0506,3.0257,2.9922,2.9716,2.9239,2.8664,2.8239,2.7692,2.7098,2.6406,2.5954,2.5604,2.512,2.5005,2.4946,2.4786,2.4762,2.4706,2.4544,2.4503,2.4503,2.4503,2.4503,2.4503,2.4503,2.4503,2.44,2.4046,2.4003,2.394,2.3739,2.3696,2.3588,2.3341,2.3297,2.3297,2.3297,2.3127,2.284,2.2461,2.2446,2.2446,2.2446,2.2751,2.2888,2.2888,2.2888,2.2888,2.2888,2.3577,2.408,2.4428,2.5579,2.5931,0.0,0.0,0.0,0.0,0.0,0.0,0.0,3.0289,3.0571,3.1968,3.2279,3.2807,3.4558,3.5301,3.582,3.6257,3.6729,3.6941,3.6603,3.6495,3.6063,3.5108,3.5343,3.56,3.56,3.56,3.56,3.56,3.5735,3.6129,3.6778,3.618,3.6129,3.6778,3.6028,3.56,3.56,3.56,3.56,3.56,3.56,3.56,3.56,3.56,3.56,3.5566,3.4979,3.5064,3.5498,3.4093,3.3448,3.3174,3.1711,3.0968,3.0712,3.0589,3.0547,3.0547,3.0506,3.0506,3.0468,3.0316,2.9968,2.9551,2.9174,2.8706,2.8081,2.7151,2.6543,2.6014,2.5246,2.4835,2.4606,2.4748,2.478,2.4827,2.4954,2.5005,2.5005,2.5005,2.5005,2.5005,2.5005,2.5005,2.4826,2.4276,2.4193,2.4172,2.4109,2.4088,2.4067,2.4003,2.4003,2.4003,2.4003,2.3696,2.337,2.3023,2.3,2.2978,2.2888,2.2888,2.2888,2.2888,2.2888,2.2946,2.3113,2.4181,2.4762,2.4907,2.6054,2.6399,3.0784,3.1029,3.1292,3.2014,3.2197,3.2766,0.0,3.4876,3.4601,3.5555,3.5752,3.5984,3.6818,3.6737,3.6781,3.7468,3.7361,3.7154,3.7133,3.7001,3.6869,3.6742,3.6049,3.56,3.56,3.56,3.56,3.56,3.6265,3.6711,3.6795,3.6711,3.6711,3.6795,3.6028,3.56,3.56,3.56,3.56,3.56,3.56,3.56,3.56,3.56,3.56,3.56,3.5498,3.5515,3.5532,3.4704,3.3977,3.328,3.2332,3.1526,3.0871,3.0733,3.0671,3.0651,3.0547,3.0506,3.0506,3.0468,3.0418,3.0332,3.0117,2.955,2.8907,2.8626,2.703,2.5416,2.5282,2.4204,2.3293,2.3872,2.4014,2.4207,2.4859,2.5005,2.5005,2.5005,2.5005,2.5005,2.5005,2.5005,2.4966,2.4906,2.4886,2.4766,2.4477,2.4436,2.4333,2.4024,2.4003,2.4003,2.4003,2.3961,2.376,2.3377,2.3341,2.3216,2.291,2.2888,2.2888,2.2888,2.2888,2.3186,2.3789,2.3934,2.4297,2.4839,2.5575,2.6195,3.1751,3.21,3.2412,3.3683,3.438,3.5018,3.6064,3.6028,3.5991,3.6831,3.6997,3.7239,3.7983,3.7987,3.8113,3.8899,3.8859,3.8634,3.8349,3.8221,3.7875,3.7092,3.6646,3.6312,3.6028,3.6002,3.5893,3.5622,3.5972,3.6616,3.7522,3.6718,3.6656,3.7574,3.6299,3.5644,3.5728,3.5644,3.56,3.56,3.56,3.56,3.56,3.56,3.56,3.56,3.56,3.5346,3.4912,3.4167,3.3423,3.2679,3.1894,3.1381,3.1052,3.0794,3.0651,3.0589,3.0526,3.0506,3.0506,3.0506,3.0506,3.0468,3.0401,3.0149,2.9782,2.9165,2.7981,2.6675,2.5571,2.4492,2.3599,2.3375,2.3307,2.3401,2.3705,2.3784,2.3784,2.3784,2.3784,2.391,2.4286,2.4349,2.4507,2.4938,2.5005,2.4946,2.4822,2.4786,2.4726,2.4605,2.4569,2.4503,2.4312,2.4291,2.4151,2.376,2.3739,2.3689,2.3553,2.3553,2.3553,2.3553,2.3925,2.4253,2.4544,2.5305,2.5708,2.5747,2.6409,2.6751,3.1845,3.2501,3.3322,3.4669,3.5811,3.6703,3.6909,3.6964,3.7129,3.7713,3.7841,3.8025,3.8597,3.8707,3.8964,3.9772,3.9852,3.9705,3.938,3.9261,3.8761,3.7559,3.7396,3.721,3.6761,3.6557,3.6329,3.6011,3.6264,3.6984,3.8156,3.7122,3.7019,3.8063,3.6771,3.6006,3.5932,3.5963,3.5968,3.5963,3.5963,3.5963,3.5963,3.5963,3.5963,3.5963,3.5963,3.5536,3.4767,3.4032,3.33,3.253,3.1794,3.1485,3.1411,3.112,3.0898,3.0736,3.0757,3.0777,3.0777,3.0777,3.0777,3.0777,3.0777,3.0777,3.064,2.9952,2.8942,2.7734,2.6367,2.5129,2.4113,2.3665,2.342,2.3306,2.3481,2.3351,2.3189,2.3189,2.3366,2.359,2.3857,2.3989,2.4169,2.4522,2.4493,2.4559,2.4958,2.5005,2.5005,2.5005,2.5005,2.4886,2.4661,2.4641,2.4482,2.4151,2.413,2.4088,2.4003,2.4003,2.4095,2.4277,2.4748,2.5188,2.5553,2.6525,2.6928,2.6817,2.731,2.7372,3.1035,3.2263,3.4209,3.4839,3.6248,3.7676,3.845,3.8634,3.8634,3.867,3.867,3.867,3.8707,3.8707,3.8964,3.9772,3.99,3.9882,3.9884,3.9823,3.9447,3.8554,3.8399,3.8201,3.779,3.7228,3.6902,3.6943,3.767,3.8219,3.8463,3.8383,3.8189,3.7919,3.7422,3.6862,3.6301,3.6724,3.6921,3.686,3.686,3.686,3.686,3.686,3.686,3.686,3.686,3.6402,3.5595,3.486,3.4089,3.33,3.2546,3.2196,3.2057,3.1913,3.1618,3.1295,3.1428,3.1466,3.1466,3.1466,3.1466,3.1466,3.1466,3.1466,3.1466,3.1449,2.9734,2.7877,2.7843,2.6067,2.4455,2.5078,2.4678,2.4344,2.498,2.453,2.3965,2.3965,2.4531,2.4779,2.4017,2.4224,2.4254,2.3538,2.3177,2.3452,2.4831,2.5005,2.5005,2.5005,2.5005,2.5001,2.4985,2.4985,2.4826,2.4498,2.4477,2.4354,2.4003,2.4003,2.4307,2.496,2.4991,2.5644,2.6935,2.6966,2.73,2.7843,2.7874,2.7889,3.3106,3.46,3.6201,3.6995,3.8014,3.8856,3.8947,3.8964,3.8759,3.8036,3.7915,3.7749,3.7202,3.7533,3.8355,3.968,4.0359,4.0891,4.1423,4.148,4.1137,4.0264,4.014,4.0055,3.9938,3.8456,3.7609,3.7897,3.822,3.889,4.0031,3.9049,3.8675,3.9147,3.7791,3.7001,3.6902,3.6921,3.6921,3.69,3.69,3.69,3.69,3.69,3.69,3.69,3.69,3.618,3.495,3.4687,3.3845,3.2651,3.2405,3.2265,3.2231,3.2335,3.2179,3.1913,3.1617,3.1485,3.1485,3.1485,3.1485,3.1485,3.1485,3.1485,3.1485,3.1485,3.0183,2.8628,2.8065,2.6538,2.5068,2.4721,2.4454,2.4337,2.454,2.439,2.4205,2.4205,2.4391,2.4626,2.4812,2.4946,2.5077,2.5221,2.4291,2.3733,2.4207,2.4701,2.5005,2.5005,2.5005,2.5005,2.5005,2.5005,2.4946,2.4842,2.4826,2.497,2.5321,2.5316,2.5659,2.6377,2.6836,2.7273,2.7741,2.8171,2.8357,2.8295,2.8295,2.8158,3.4405,3.5924,3.7324,3.8101,3.89,3.9446,3.9285,3.896,3.847,3.7788,3.7088,3.6541,3.634,3.6468,3.7331,3.9533,4.0322,4.1056,4.2158,4.2304,4.1994,4.1139,4.1048,4.1048,4.1048,3.9792,3.9082,3.9318,3.9642,4.0179,4.0989,4.0018,3.9515,3.9692,3.8327,3.7542,3.7433,3.7433,3.7469,3.7433,3.7414,3.7413,3.7413,3.7376,3.7357,3.7357,3.7357,3.6629,3.5439,3.5155,3.4284,3.3093,3.2808,3.2702,3.2685,3.2687,3.2672,3.2521,3.2056,3.1857,3.1819,3.1819,3.1819,3.1819,3.1819,3.1819,3.1819,3.1819,3.0904,2.9713,2.8904,2.7735,2.6567,2.5718,2.5311,2.5107,2.5107,2.4902,2.4697,2.4697,2.4921,2.513,2.5289,2.5417,2.5713,2.6251,2.5709,2.4996,2.4365,2.4703,2.4839,2.4483,2.464,2.463,2.4277,2.472,2.5005,2.5005,2.5223,2.5661,2.6356,2.6404,2.6735,2.7446,2.7873,2.8221,2.8474,2.8893,2.8982,2.8716,2.8716,2.8574,3.498,3.6339,3.7687,3.8263,3.8971,3.9551,3.9508,3.8689,3.7896,3.7795,3.6269,3.5183,3.5899,3.5463,3.605,3.9258,3.9879,4.0524,4.2139,4.2359,4.2084,4.1297,4.1224,4.1224,4.1224,4.1224,4.1207,4.1124,0.0,4.1976,4.1444,4.1211,4.0633,3.9611,3.9003,3.8417,3.7843,3.8265,3.8462,3.8399,3.8338,3.8307,3.8307,3.8224,3.8209,3.8209,3.8209,3.7738,3.6941,3.6182,3.5351,3.4519,3.3755,3.3447,3.3364,3.3042,3.3011,3.3055,3.2737,3.2523,3.2405,3.2388,3.2406,3.2406,3.2406,3.2406,3.2388,3.2353,3.1791,3.1019,3.0299,2.9509,2.8719,2.7982,2.7262,2.6721,2.6756,2.6177,2.5647,2.5647,2.6205,2.6443,2.5673,2.5868,2.6252,2.6691,2.7316,2.7093,2.536,2.5126,2.4742,2.3708,2.4173,2.4142,2.3195,2.4363,2.5136,2.5136,2.5733,2.6409,2.7173,2.7205,2.7506,2.817,2.8186,2.8496,2.9144,2.9144,2.9144,2.9144,2.9144,2.9144,3.6956,3.8363,3.965,3.9767,3.9938,4.005,3.984,3.9078,3.7957,3.636,3.5168,3.4036,3.2868,3.3954,3.5683,3.7768,3.9625,4.1368,4.2965,4.3185,4.3112,4.291,4.2892,4.2892,4.2892,4.2892,4.2892,0.0,4.2491,4.2458,4.2921,4.1762,4.0978,4.0702,3.9303,3.8478,3.8314,3.8399,3.8415,3.8399,3.8385,3.8354,3.8307,3.829,3.8259,3.8209,3.8209,3.7738,3.6977,3.6777,3.5874,3.4588,3.4356,3.3936,3.3378,3.3304,3.3196,3.3086,3.3008,3.2786,3.254,3.244,3.2406,3.2406,3.2406,3.2406,3.2283,3.1668,3.1352,3.1019,3.0299,2.9509,2.9,2.9404,2.8895,2.8491,2.9088,2.9037,2.8912,2.8912,2.9055,2.9127,2.8917,2.8944,2.9041,2.905,2.9191,2.8732,2.7145,2.6887,2.6749,2.6477,2.6425,2.6309,2.6054,2.6691,2.7086,2.7086,2.7247,2.7646,2.835,2.8361,2.8667,2.9343,2.9359,2.9456,2.9633,2.9633,2.9633,2.9633,2.9633,2.9633,3.7816,3.89,3.9849,3.9795,3.9761,3.9631,3.9051,3.8191,3.6959,3.5007,3.3608,3.2497,3.1793,3.2988,3.4745,3.6772,3.9044,4.1148,4.2745,4.3277,4.3515,4.3515,4.3515,4.3515,4.3515,4.3515,4.3515,4.3515,4.3075,4.302,4.3478,4.1974,4.1095,4.1095,3.9467,3.8593,3.8593,3.8562,3.853,3.853,3.8462,3.8417,3.8354,3.8305,3.8257,3.8209,0.0,3.7937,3.7502,3.7158,3.6469,3.5584,3.4878,3.432,3.3867,3.343,3.3256,3.3211,3.3055,3.293,3.2786,3.2557,3.2457,3.2406,3.2406,3.2142,3.1774,3.1317,3.0966,3.0545,2.9772,2.9246,2.9018,2.9474,2.9228,2.9123,2.993,3.0106,3.0106,3.0106,3.0106,3.0195,3.0527,3.058,3.0687,3.0953,3.1005,3.0679,2.9834,2.8716,2.7845,2.7369,2.7448,2.7356,2.6913,2.7558,2.797,2.797,2.8156,2.8556,2.9211,2.9227,2.9421,2.9793,2.9793,2.9793,2.9793,2.9793,2.9793,2.9793,2.9793,2.9793,3.7969,3.8516,3.9015,3.8955,3.8944,3.8691,3.7749,3.6728,3.5505,3.379,3.2062,3.1025,3.1577,3.2269,3.3584,3.6085,3.8278,4.032,4.2143,4.3008,4.3503,4.3614,4.3614,4.3614,4.3614,4.3614,4.3614,4.3614,4.3614,4.358,4.3496,4.1974,4.1003,4.0783,3.9441,3.8707,3.8707,3.8707,3.8707,3.8707,3.8575,3.8478,3.8399,3.8338,3.8274,3.8209,3.8209,0.0,3.8154,3.7448,3.7102,3.6898,3.5473,3.4803,3.4531,3.364,3.3361,3.3408,3.3119,3.3086,3.3114,3.277,3.254,3.2422,3.2422,3.1914,3.1335,3.123,3.0738,3.0071,2.9263,2.8983,2.893,2.9035,2.8983,2.9123,2.993,3.0176,3.0282,3.0371,3.0422,3.0615,3.1247,3.1352,3.1598,3.2283,3.2406,3.2406,3.2406,3.0429,2.8681,2.7747,2.8131,2.8117,2.7233,2.8074,2.863,2.863,2.896,2.9412,3.0,3.0032,3.0032,3.0032,2.9968,2.9946,2.9946,2.9903,2.9897,2.9897,2.9897,2.9897,3.7796,3.8096,3.8197,3.8132,3.8104,3.786,3.6919,3.6012,3.484,3.2981,3.1829,3.0899,3.0152,3.119,3.2975,3.545,3.7337,3.9554,4.2539,4.3095,4.3432,4.4152,4.4227,4.4227,4.4227,4.4227,4.4227,4.4227,4.4227,4.4023,4.3513,4.1974,4.049,3.9166,3.8854,3.8707,3.8707,3.8707,3.8707,3.8707,3.8692,3.8578,3.8399,3.8401,3.8322,3.8209,3.8209,0.0,3.8191,3.8064,3.7705,3.7189,3.6767,3.5869,3.4816,3.4471,3.4043,3.3629,3.3587,3.3578,3.351,3.3006,3.2705,3.2556,3.2556,3.2384,3.2055,3.1388,3.1107,3.0843,3.0088,2.9404,2.907,2.9737,2.9386,2.9123,2.993,3.058,3.1212,3.1861,3.2002,3.2037,3.2177,3.2195,3.223,3.2371,3.2406,3.2406,3.2406,3.1441,3.0689,3.0499,3.0403,3.0249,3.0093,3.0597,3.094,3.094,3.1002,3.1082,3.1198,3.1198,3.1198,3.1198,3.0938,3.0797,3.0797,3.051,3.0384,3.0384,3.0384,3.0384,3.7424,3.7371,3.7416,3.7794,3.7598,3.7037,3.6082,3.5224,3.398,3.1725,3.0948,3.0514,3.0013,3.1146,3.2684,3.4333,3.6246,3.8546,4.1434,4.2203,4.2948,4.4252,4.4397,4.4397,4.4397,4.4397,4.4397,4.4397,4.4397,4.4256,4.3977,4.2404,4.0769,3.9171,3.9129,3.9129,3.9129,3.9129,3.9129,3.9129,3.9129,3.9022,3.8872,3.8818,3.8778,3.8715,3.8603,0.0,3.8612,3.8575,3.8383,3.807,3.7561,3.6949,3.6227,3.5274,3.4734,3.4425,3.4002,3.385,3.3818,3.3564,3.3288,3.3078,3.3078,3.2714,3.2228,3.1831,3.1407,3.0927,3.0144,2.9662,2.9465,2.9815,2.9925,3.0006,3.0249,3.059,3.0991,3.1504,3.1499,3.1593,3.2141,3.2101,3.2129,3.2551,3.249,3.2406,3.2406,3.2055,3.1809,3.1809,3.1724,3.1638,3.1638,3.1668,3.171,3.171,3.1579,3.1485,3.1485,3.1485,3.1485,3.1485,3.1332,3.1271,3.1271,3.069,3.0407,3.0407,3.0407,3.0407,3.682,3.6554,3.6657,3.7488,3.7048,3.6185,3.525,3.4407,3.3135,3.0691,3.0194,3.0258,3.0421,3.1374,3.2538,3.3751,3.5564,3.7762,4.0483,4.1575,4.2718,4.4384,4.4591,4.4591,4.4591,4.4591,4.4591,4.4591,4.4591,4.4463,4.4153,4.2726,4.1242,3.9796,3.9589,3.9514,3.9514,3.9514,3.9514,3.9514,3.9514,3.9427,3.9314,3.9248,3.9189,3.9139,3.898,0.0,0.0,3.8917,3.8939,3.8909,3.8219,3.7896,3.759,3.6241,3.5645,3.5425,3.4611,3.4358,3.4377,3.4192,3.3858,3.3542,3.3542,3.3044,3.2479,3.2479,3.1901,3.1129,3.0485,3.0212,3.0054,2.9989,3.0451,3.0924,3.0876,3.085,3.0923,3.1137,3.1009,3.1081,3.1729,3.1624,3.1658,3.2284,3.2206,3.2047,3.1998,3.1998,3.1964,3.1897,3.2195,3.2406,3.2406,3.2144,3.2002,3.2002,3.1802,3.169,3.169,3.1518,3.1432,3.1432,3.1203,3.1099,3.1099,3.056,3.0302,3.0302,3.0472,3.0557,3.584,3.5752,3.5919,3.6783,3.6247,3.529,3.4407,3.3534,3.2407,3.0577,3.0207,3.043,3.1159,3.145,3.2333,3.4661,3.5885,3.7688,4.0959,4.2161,4.3344,4.5014,4.5224,4.5224,4.5224,4.5224,4.5224,4.5224,4.5224,4.4653,4.3386,4.2406,4.1505,4.0622,3.989,3.9514,3.9514,3.9514,3.9514,3.9514,3.9514,3.9427,3.9295,3.9301,3.9197,3.9022,3.8994,0.0,0.0,3.8892,3.9007,3.9156,3.8905,3.8447,3.7936,3.7586,3.7121,3.6528,3.5665,3.5513,3.5589,3.4802,3.416,3.3688,3.3688,3.3538,3.3391,3.3391,3.2803,3.2146,3.2006,3.1492,3.0964,3.0902,3.0943,3.1184,3.189,3.2041,3.2046,3.2073,3.2115,3.191,3.1152,3.0985,3.0998,3.1069,3.1044,3.0948,3.0716,3.067,3.0581,3.0333,3.1563,3.2406,3.2406,3.2371,3.2354,3.2354,3.2336,3.2319,3.2319,3.1618,3.1233,3.1233,3.0265,2.9765,2.9782,3.0138,3.0302,3.0319,3.1056,3.1382,3.5674,3.6126,3.6643,3.7512,3.7016,3.6202,3.5804,3.4648,3.33,3.2011,3.1767,3.1869,3.2185,3.2225,3.2718,3.4235,3.477,3.6165,3.9527,4.0291,4.1514,4.4208,4.4532,4.4723,4.525,4.5307,4.5307,4.5307,4.5307,4.505,4.449,4.3175,4.2055,4.1201,4.0403,3.9975,3.9975,3.9975,3.9975,3.9975,3.9975,3.9946,3.9895,3.9829,3.9777,3.9766,3.9525,0.0,0.0,3.9362,3.9367,3.9432,3.9354,3.9175,3.8883,3.8271,3.7922,3.7573,3.6749,3.6534,3.6566,3.6228,3.5951,3.5559,3.456,3.4172,3.4099,3.4099,3.3846,3.3451,3.2933,3.2223,3.1589,3.1409,3.1482,3.1653,3.1789,3.1831,3.1894,3.2052,3.1544,3.1189,3.1512,3.0986,3.0692,3.1135,3.102,3.0857,3.0746,3.0672,3.0588,3.0529,3.0826,3.1019,3.1019,3.1019,3.1019,3.1019,3.1019,3.1019,3.1019,3.0703,3.0756,3.1177,3.0779,3.08,3.1271,3.0994,3.0838,3.0838,3.1168,3.1324,3.5931,3.6498,3.7008,3.8366,3.7801,3.6909,3.6875,3.549,3.3961,3.3045,3.2826,3.2867,3.3106,3.3119,3.3349,3.4216,3.477,3.6012,3.8629,3.9431,4.0711,4.3319,4.3854,4.4236,4.4857,4.5144,4.5307,4.5307,4.5307,4.5307,4.5307,4.394,4.287,4.2259,4.1208,4.0654,4.0654,4.0416,4.0301,4.0301,4.0301,4.0301,4.0301,4.0205,4.0195,4.0225,3.9943,0.0,0.0,3.9703,3.9626,3.9589,3.9589,3.9589,3.9533,3.8901,3.8676,3.8563,3.7737,3.7437,3.7418,3.7185,3.711,3.6885,3.5702,3.5312,3.5222,3.4978,3.469,3.4308,3.3728,3.3149,3.272,3.2797,3.297,3.3112,3.315,3.3194,3.3111,3.2801,3.2106,3.1678,3.1976,3.1362,3.1006,3.1496,3.1575,3.1466,3.1151,3.1238,3.1306,3.1279,3.0983,3.063,3.0249,3.0215,3.0215,3.0215,3.0427,3.0552,3.0486,3.0502,3.0838,3.1528,3.1107,3.137,3.2406,3.1826,3.1545,3.1563,3.1774,3.1756,3.6579,3.661,3.6512,3.9042,3.8334,3.6992,3.6992,3.5597,3.4054,3.3188,3.2897,3.3039,3.3845,3.398,3.4254,3.5057,3.6585,3.796,3.8877,4.0425,4.18,4.2717,4.351,4.4006,4.4006,4.4781,4.5307,4.5307,4.5307,0.0,4.5307,4.4475,4.3987,4.3968,4.2354,4.1495,4.1495,4.0711,4.0301,4.0301,4.0301,4.0301,4.0301,4.0301,4.0225,0.0,0.0,0.0,0.0,3.9705,3.9672,3.9589,3.9589,3.9589,3.9589,3.9589,3.9589,3.9458,3.8582,3.83,3.8169,3.7373,3.711,3.711,3.7073,3.7073,3.6904,3.6104,3.5214,3.4495,3.4476,3.4443,3.4591,3.545,3.5656,3.5892,3.6658,3.6893,3.6454,3.4795,3.4531,3.4017,3.2371,3.2098,3.2058,3.1998,3.2678,3.2788,3.1735,3.2292,3.2687,3.2407,3.2381,3.1874,3.06,3.0502,3.0502,3.0502,3.1232,3.158,3.1386,3.1453,3.1762,3.2371,3.0896,3.0878,3.2406,3.2388,3.2388,3.2406,3.3143,3.309,3.4411,3.5282,3.6152,3.6969,3.6701,3.6385,3.693,3.6134,3.5189,3.4893,3.5282,3.5745,3.6005,3.6408,3.7016,3.7863,3.8369,3.895,3.9772,4.1323,4.2488,4.2775,4.4036,4.4895,4.4895,4.5144,4.5307,4.5307,4.5307,4.5307,4.5307,4.5029,4.4628,4.4025,4.2947,4.2393,4.2393,4.2144,4.1705,4.1113,4.1113,4.0826,4.0301,4.0301,4.0282,0.0,0.0,0.0,0.0,3.9792,3.9747,3.9796,3.965,3.9631,3.9654,3.9626,3.9589,3.9552,3.9289,3.9195,3.9157,3.8894,3.88,3.88,3.88,3.8012,3.7054,3.6791,3.6517,3.6269,3.6269,3.6257,3.6321,3.6583,3.6658,3.6733,3.6977,3.7045,3.6906,3.6381,3.5848,3.5323,3.4786,3.4205,3.3789,3.3716,3.3941,3.3964,3.3627,3.3711,3.3814,3.3777,3.3648,3.3248,3.248,3.2418,3.2346,3.2217,3.2451,3.2561,3.2495,3.2495,3.2854,3.3554,3.3074,3.334,3.4372,3.4372,3.4372,3.4372,3.3916,3.3581,3.4684,3.5426,3.6168,3.6813,3.67,3.6562,3.7069,3.6673,3.6234,3.6234,3.688,3.7447,3.7447,3.7781,3.8251,3.8792,3.9054,3.9457,4.0257,4.178,4.3024,4.3673,4.436,4.4965,4.5331,4.5338,4.5328,4.537,4.5338,4.5307,4.5307,4.5307,4.5048,4.4513,4.3692,4.3252,4.3252,4.2947,4.2526,4.1991,4.1991,4.1552,4.075,4.075,4.0597,0.0,0.0,0.0,0.0,3.9922,3.9859,3.9878,3.9696,3.9654,3.9682,3.9619,3.9589,3.9589,3.9589,3.9589,3.9589,3.9589,3.9589,3.9589,3.9589,3.865,3.7549,3.7549,3.7336,3.711,3.711,3.711,3.7185,3.7474,3.7549,3.7655,3.7974,3.803,3.7955,3.7624,3.7155,3.6704,3.6404,3.5908,3.5529,3.5477,3.5728,3.5822,3.5514,3.5677,3.5836,3.586,3.5757,3.5638,3.5536,3.4258,3.3412,3.3271,3.3486,3.3573,3.349,3.3795,3.4266,3.4951,3.4683,3.5094,3.6166,3.5863,3.572,3.5702,3.4779,3.4372,0.0,3.6579,3.6305,3.7927,3.7752,3.7223,3.7282,3.7256,0.0,3.72,3.7805,3.8328,3.8387,3.8403,3.8443,3.8559,3.9145,3.9842,4.0591,4.198,4.3561,4.5311,4.4688,4.4489,4.5417,4.539,4.538,4.5504,4.54,4.5338,4.5338,4.5338,4.5338,4.5338,4.4544,4.4113,4.4083,4.3348,4.2947,4.2889,4.2889,4.2431,4.159,4.159,4.1189,0.0,0.0,0.0,0.0,4.0125,4.0036,3.9911,3.9773,3.9721,3.9739,3.9661,3.9644,3.9644,3.9644,3.9644,3.9631,3.9638,3.9614,3.9589,3.9589,3.9032,3.8394,3.8394,3.785,3.7279,3.7279,3.7279,3.7467,3.8206,3.8394,3.8601,3.9439,3.9589,3.9364,3.8544,3.8394,3.815,3.7411,3.7279,3.7279,3.7279,3.7906,3.8112,3.7373,3.7925,3.8394,3.8394,3.8394,3.8621,3.9181,3.6066,3.4092,3.4064,3.4571,3.4777,3.4616,3.5305,3.5943,3.6523,3.5862,3.6201,3.7631,3.6899,3.6541,3.6523,3.5737,3.5397,3.6187,0.0,3.5096,3.5506,3.5955,3.648,0.0,3.7785,3.8248,3.8248,3.8861,3.9633,4.0298,4.0376,4.0765,4.205,4.2301,4.2425,4.2621,4.3438,4.4905,4.7306,4.624,4.5382,4.563,4.561,4.5627,4.566,4.5616,4.561,4.561,4.561,4.561,4.561,4.5398,4.5196,4.4991,4.48,4.438,4.372,4.372,4.3291,4.2488,4.2488,4.2393,0.0,0.0,0.0,4.1112,4.0394,4.0137,4.0186,4.007,4.008,4.0148,4.0072,4.0062,4.0062,4.0062,4.0062,4.0024,3.987,3.9724,3.9589,3.9589,3.9458,3.9289,3.9289,3.9157,3.9007,3.9007,3.9007,3.9063,3.9251,3.9289,3.9345,3.9552,3.9589,3.9533,3.9326,3.9289,3.9232,3.9045,3.9007,3.9007,3.9007,3.9176,3.9232,3.9045,3.9176,3.9289,3.9289,3.9289,3.9339,3.9477,3.8516,3.784,3.769,3.7619,3.7557,3.7525,3.7551,3.7636,3.7766,3.7621,3.7711,3.8055,3.7874,3.7784,3.7748,3.6818,3.6373,3.648,3.654,3.6483,3.6483,3.7126,3.7866,3.8336,3.8804,3.9156,3.9156,3.9819,4.0542,4.1012,4.1404,4.1949,4.2846,4.3229,4.3802,4.4896,4.5034,4.5847,4.8031,4.6796,4.5756,0.0,4.5742,4.573,4.5791,4.5739,4.5708,4.5708,4.5708,4.5708,4.5708,4.5708,4.5635,4.5485,4.5485,4.5255,4.4785,4.4785,4.4344,4.3527,4.3527,4.3335,0.0,0.0,0.0,4.2202,4.1306,4.0961,4.0984,4.0456,4.0283,4.0326,4.0232,4.0204,4.0204,4.0204,4.0204,4.0187,4.0072,3.9955,3.987,3.987,3.987,3.9835,3.9656,3.9589,3.9589,3.9589,3.9589,3.9589,3.9589,3.9589,3.9589,3.9589,3.9589,3.9589,3.9589,3.9589,3.9589,3.9589,3.9589,3.9589,3.9589,3.9589,3.9589,3.9589,3.9589,3.9589,3.9589,3.9589,3.9589,3.9589,3.9458,3.9283,3.9064,3.8815,3.868,3.868,3.8575,3.8467,3.8338,3.8241,3.8209,3.8209,3.8209,3.8209,3.8191,3.7637,3.7454,3.7067,3.8123,3.8923,3.8669,3.9294,3.9956,3.9839,3.9897,3.9995,3.9995,4.0581,4.1148,4.1265,4.1908,4.2435,4.2572,4.3397,4.4837,4.7218,4.6679,4.6618,4.8188,4.6896,0.0,4.5947,4.5834,4.5803,4.5899,4.5819,4.5742,4.5742,4.5742,4.5742,4.5742,4.5742,4.5742,4.5742,4.5723,4.5708,4.5708,4.5708,4.5302,4.4608,4.4608,4.4222,4.3581,0.0,0.0,4.333,4.2454,4.21,4.2015,4.1161,4.0831,4.0823,4.0739,4.0696,4.0696,4.0696,4.0672,4.0647,4.0647,4.0622,4.0577,4.0443,4.0501,4.0498,4.0015,3.979,3.9684,3.9691,3.9691,3.9691,3.9691,3.9691,3.9691,3.9691,3.9691,3.9691,3.9691,3.9691,3.9679,3.9662,3.965,3.9638,3.9602,3.9589,3.9589,3.9589,3.9589,3.9589,3.9589,3.9589,3.9589,3.9589,3.9589,3.9496,3.9283,3.9064,3.8921,3.891,3.891,3.8788,3.8572,3.8354,3.8257,3.8307,3.8224,3.8242,3.8307,3.8257,3.837,3.7067,3.8961,4.0387,3.8942,3.9762,4.0717,3.9976,4.0366,4.0894,4.0894,4.1012,4.1324,4.2064,4.2318,4.265,4.3372,4.4797,4.6694,4.9279,4.8201,4.754,4.8591,4.7184,4.6135,4.6154,4.6074,4.6027,4.5986,4.5969,4.5939,4.5939,4.5939,4.5939,4.5939,4.5939,4.5939,4.5939,4.5786,4.5708,4.5708,4.5708,4.563,4.5495,4.5495,4.5438,4.5283,0.0,4.4222,4.4145,4.3342,4.3002,4.299,4.2892,4.2847,4.2873,4.2959,4.2981,4.2981,4.2981,4.284,4.2649,4.2649,4.2537,4.2272,4.1526,4.1822,4.2235,4.1436,4.0683,4.012,4.0101,4.011,4.011,4.011,4.011,4.011,4.011,4.011,4.011,4.011,4.011,4.005,3.9881,3.9848,3.98,3.9626,3.9589,3.9589,3.9589,3.9589,3.9589,3.9589,3.9589,3.9589,3.9589,3.9589,3.9577,3.954,3.9296,3.9092,3.891,3.891,3.8877,3.8833,3.8606,3.8575,3.8788,3.8387,3.8387,3.8792,3.8556,3.8588,3.7633,3.9175,4.0444,4.06,4.1947,4.3099,4.2708,4.2552,4.2378,4.1908,4.1791,4.1927,4.2337,4.2786,4.3704,4.5519,4.6448,4.7693,4.979,4.8604,4.7838,4.8699,0.0,4.6242,4.6209,4.6174,4.6146,4.6106,4.6102,4.6102,4.6102,4.6075,4.6042,4.6042,4.6017,4.6002,4.6002,4.5917,4.5854,4.5854,4.5854,4.5854,4.5854,4.5854,4.5854,4.5835,0.0,4.5254,4.5196,4.4408,4.4059,4.402,4.3577,4.3419,4.3419,4.3476,4.3505,4.3505,4.3505,4.341,4.3321,4.3321,4.3253,4.3091,4.2698,4.2859,4.3085,4.2639,4.1732,4.1003,4.1473,4.1254,4.1016,4.1484,4.158,4.1552,4.1552,4.1552,4.1399,4.0941,4.0845,4.0673,4.0157,4.0061,4.0021,3.984,3.984,3.9837,3.9773,4.0111,4.0382,4.0453,4.0716,4.0929,4.1004,4.0942,4.0534,3.9646,3.9483,3.9362,3.9288,3.9133,3.9045,3.9045,3.8829,3.8773,3.891,3.8667,3.8701,3.891,3.8773,3.8829,3.8181,3.9333,4.0464,4.2025,4.3391,4.4502,4.4912,4.4328,4.3567,4.3099,4.3001,4.2884,4.2474,4.3118,4.4563,4.7176,4.7762,4.8406,4.9889,4.8816,4.8037,4.8466,4.7217,4.6273,4.6209,4.6206,4.6195,4.6199,4.6199,4.6199,4.6199,4.615,4.6126,4.6098,4.6042,4.6012,4.6002,4.6002,4.6002,4.6002,4.6002,4.6002,4.6002,4.6002,4.6002,4.6002,4.6002,4.6002,4.5944,4.5336,4.5084,4.5006,4.4345,4.4093,4.4093,4.4093,4.4093,4.4093,4.4093,4.4093,4.4093,4.4093,4.4093,4.4054,4.386,4.3938,4.4049,4.3801,4.3021,4.2367,4.2821,4.2453,4.2112,4.2783,4.2892,4.2865,4.2865,4.2865,4.2673,4.1993,4.1878,4.1649,4.0992,4.0875,4.083,4.0673,4.0702,4.0682,4.0547,4.1037,4.14,4.1476,4.185,4.214,4.2239,4.2153,4.155,4.0296,4.0184,4.0171,4.0171,3.9967,3.9762,3.9576,3.937,3.9192,3.905,3.895,3.8968,3.905,3.8993,3.9092,3.8357,3.9782,4.1226,4.2162,4.2494,4.3001,4.4619,4.4328,4.3918,4.466,4.4815,4.4327,4.2708,4.3118,4.4563,4.7176,4.8232,4.9032,4.9967,4.9306,4.8466,4.7762,4.6866,4.6273,4.6209,4.6206,4.6195,4.6199,4.6199,4.6199,4.6199,4.6196,4.6158,4.6098,4.6093,4.6071,4.6002,4.6002,4.6002,4.6002,4.6002,4.6002,4.6002,4.6002,4.6002,4.6002,4.6002,4.6002,4.6002,4.5944,4.5905,4.5905,4.5846,4.5827,4.5827,4.5827,4.5827,4.5827,4.5827,4.5827,4.5827,4.5827,4.5827,4.5691,4.4928,4.522,4.5666,4.4909,4.4621,4.4386,4.3573,4.3303,4.3284,4.3342,4.3355,4.3355,4.3355,4.3355,4.3336,4.3278,4.3258,4.3182,4.2917,4.2895,4.2811,4.2626,4.26,4.2564,4.2419,4.2446,4.2441,4.2333,4.2356,4.2382,4.2375,4.2393,4.2267,4.2033,4.1895,4.1835,4.1835,4.1804,4.1447,4.0697,4.0424,4.0037,3.9552,3.9106,3.912,3.954,3.9296,3.9322,3.8357,3.9821,4.1304,4.2181,4.2806,4.3665,4.5402,4.5558,4.5558,4.6435,4.6183,4.5285,4.3528,4.4367,4.5812,4.7352,4.8271,4.9091,4.9987,4.9345,4.8505,4.7703,4.6827,4.6298,4.6251,4.6269,4.6267,4.6258,4.6255,4.6255,4.6255,4.622,4.6186,4.6154,4.6169,4.6134,4.6071,4.6071,4.6032,4.6002,4.6002,4.6002,4.6002,4.6002,4.6002,4.6002,4.6002,4.6002,4.6002,4.6002,4.6002,4.6002,4.6002,4.6002,4.6002,4.6002,4.6002,4.6002,4.6002,4.6002,4.6002,4.6002,4.6002,4.5944,4.5633,4.5769,4.5944,4.5633,4.5555,4.5453,4.5101,4.4614,4.4345,4.4893,4.4992,4.4961,4.4961,4.4961,4.4806,4.4316,4.4219,4.4013,4.3389,4.3298,4.326,4.3137,4.3106,4.3076,4.2989,4.3254,4.3483,4.3522,4.3863,4.4041,4.3959,4.3947,4.3935,4.3887,4.2787,4.2077,4.2004,4.2004,4.1854,4.1554,4.1451,4.1301,4.1098,4.0416,4.0173,4.0328,3.9727,3.9496,3.8747,4.0016,4.1304,4.2181,4.306,4.4153,4.589,4.63,4.6554,4.7411,4.6475,4.5207,4.427,4.4855,4.5851,4.7002,4.7881,4.8623,4.9226,4.8798,4.8115,4.7295,4.6651,4.63,4.63,4.63,4.63,4.63,4.63,4.63,4.63,4.6267,4.6216,4.6209,4.6206,4.6176,4.6138,4.6138,4.6093,4.6027,4.6027,4.6017,4.6002,4.6002,4.6002,4.6002,4.6002,4.6002,4.6002,4.6002,4.6002,4.6002,4.6002,4.6002,4.6002,4.6002,4.6002,4.6002,4.6002,4.6002,4.6002,4.6002,4.6002,4.6002,4.6002,4.6002,4.6002,4.6002,4.6002,4.6002,4.6002,4.5559,4.5271,4.5853,4.5953,4.5922,4.5922,4.5922,4.5766,4.5217,4.5101,4.4927,4.4311,4.4212,4.4206,4.4162,4.4155,4.4136,4.4051,4.4372,4.4589,4.4611,4.4945,4.5125,4.5026,4.5033,4.5022,4.4974,4.3803,4.3069,4.2919,4.2919,4.2806,4.2542,4.2542,4.2391,4.2128,4.1563,4.1287,4.1236,4.0685,4.0265,3.9585,4.0444,4.1324,4.2181,4.3079,4.4174,4.589,4.63,4.6554,4.7411,4.5539,4.3997,4.4836,4.4309,4.4289,4.6027,4.7022,4.7606,4.7606,4.7606,4.7276,4.6397,4.63,4.63,4.63,4.63,4.63,4.63,4.63,4.63,4.63,4.63,4.6273,4.6209,4.6209,4.6192,4.6199,4.6199,4.6177,4.6098,4.6098,4.6071,4.6002,4.6002,4.6002,4.6002,4.6002,4.6002,4.6002,4.6002,4.6002,4.6002,4.6002,4.6002,4.6002,4.6002,4.6002,4.6002,4.6002,4.6002,4.6002,4.6002,4.6002,4.6002,4.6002,4.6002,4.6002,4.6002,4.6002,4.6002,4.6002,4.6002,4.6002,4.6002,4.6002,4.6002,4.6002,4.6002,4.6002,4.6002,4.6002,4.6002,4.6002,4.6002,4.6002,4.6002,4.6002,4.5989,4.5912,4.59,4.5791,4.5531,4.538,4.5307,4.5307,4.5307,4.5235,4.5114,4.5103,4.5045,4.4914,4.4895,4.4516,4.3725,4.3706,4.3289,4.2424,4.2416,4.2335,4.2203,4.2203,4.1707,3.9741,4.0873,4.2084,4.2337,4.3977,4.55,4.5402,4.6339,4.7295,4.7547,4.6981,4.6144,4.5185,4.5285,4.5695,4.6222,4.7022,4.7606,4.7606,4.7606,4.7276,4.6397,4.63,4.63,4.63,4.63,4.63,4.63,4.63,4.63,4.63,4.63,4.6298,4.6273,4.6273,4.6243,4.6195,4.6195,4.6196,4.6162,4.6162,4.6102,4.6002,4.6002,4.6002,4.6002,4.6002,4.6002,4.6002,4.6002,4.6002,4.6002,4.6002,4.6002,4.6002,4.6002,4.6002,4.6002,4.6002,4.6002,4.6002,4.6002,4.6002,4.6002,4.6002,4.6002,4.6002,4.6002,4.6002,4.6002,4.6002,4.6002,4.6002,4.6002,4.6002,4.6002,4.6002,4.6002,4.6002,4.6002,4.6002,4.6002,4.6002,4.6002,4.6002,4.6002,4.6002,4.5989,4.5912,4.59,4.5791,4.5531,4.5457,4.5409,4.5317,4.5307,4.5286,4.5235,4.5235,4.5136,4.4907,4.4895,4.4781,4.4547,4.4535,4.4421,4.4156,4.358,4.3284,4.3249,4.2643,4.2203,4.0639,4.1596,4.2572,4.3255,4.4875,4.6241,4.6064,4.6573,4.7082,4.7074,4.6802,4.6335,4.562,4.562,4.5873,4.6238,4.6743,4.7072,4.7082,4.7081,4.6885,4.6358,4.63,4.63,4.63,4.63,4.63,4.63,4.63,4.63,4.63,4.63,4.63,4.63,4.63,4.6275,4.6243,4.6243,4.6228,4.62,4.62,4.6169,4.608,4.608,4.6051,4.6032,4.6012,4.6012,4.6032,4.6007,4.6002,4.6002,4.6002,4.6002,4.6002,4.6002,4.6002,4.6002,4.6002,4.6002,4.6002,4.6002,4.6002,4.6002,4.6002,4.6002,4.6002,4.6002,4.6002,4.6002,4.6002,4.6002,4.6002,4.6002,4.6002,4.6002,4.6002,4.6002,4.6002,4.6002,4.6002,4.6002,4.6002,4.6002,4.6002,4.6002,4.6002,4.598,4.5949,4.5925,4.5845,4.5684,4.5618,4.5531,4.539,4.5438,4.54,4.5307,4.535,4.5269,4.508,4.5068,4.5068,4.5068,4.5068,4.5068,4.5068,4.4566,4.4315,4.425,4.3719,4.3266,4.1949,4.2396,4.2825,4.4563,4.5657,4.6539,4.7398,4.6912,4.6293,4.6305,4.5663,4.5332,4.6069,4.5558,4.5308,4.6152,4.6288,4.6286,4.6291,4.6288,4.6288,4.6288,4.6288,4.6288,4.6288,4.6288,4.6288,4.6288,4.6288,4.6288,4.6288,4.6305,4.6305,4.6288,4.6305,4.6303,4.6303,4.6303,4.6275,4.6211,4.6211,4.6217,4.6206,4.6199,4.6177,4.6102,4.6037,4.6042,4.6098,4.6037,4.6017,4.6017,4.6017,4.6012,4.6007,4.6007,4.6007,4.6002,4.6002,4.6002,4.6002,4.6002,4.6002,4.6002,4.6002,4.6002,4.6002,4.6002,4.6002,4.6002,4.6002,4.6002,4.6002,4.6002,4.6002,4.6002,4.6002,4.6002,4.6002,4.6002,4.6002,4.6002,4.6002,4.6002,4.6002,4.6002,4.6002,4.6002,4.6002,4.5949,4.5906,4.59,4.5791,4.5648,4.5531,4.5635,4.5601,4.535,4.5429,4.5458,4.5309,4.5307,4.5307,4.5307,4.5307,4.5307,4.5307,4.5307,4.5243,4.5125,4.5125,4.465,4.2119,4.2406,4.2827,4.4551,4.5654,4.6501,4.7324,4.6855,4.625,4.6288,4.6113,4.5992,4.6166,4.6048,4.599,4.6188,4.6227,4.6228,4.6229,4.6229,4.6229,4.6229,4.6229,4.6229,4.6229,4.6229,4.6229,4.6229,4.6229,4.6229,4.6229,4.6268,4.6288,4.623,4.6268,4.6304,4.6304,4.6304,4.6297,0.0,4.6275,4.6273,4.6286,4.6222,4.6192,4.6185,4.6158,4.6177,4.6185,4.6158,4.6154,4.6154,4.6154,4.6115,4.608,4.608,4.6056,4.6002,4.6002,4.6002,4.6002,4.6002,4.6002,4.6002,4.6002,4.6002,4.6002,4.6002,4.6002,4.6002,4.6002,4.6002,4.6002,4.6002,4.6002,4.6002,4.6002,4.6002,4.6002,4.6002,4.6002,4.6002,4.6002,4.6002,4.6002,4.6002,4.6002,4.6002,4.6002,4.5986,4.5966,4.5906,4.588,4.5798,4.5676,4.5673,4.5684,4.5627,4.5549,4.5485,4.5457,4.535,4.5307,4.5307,4.5307,4.5307,4.5307,4.5307,4.5286,4.5265,4.5265,4.5159,4.1502,4.2322,4.3358,4.5097,4.5877,4.6324,4.6771,4.6529,4.6213,4.6242,4.6218,4.6206,4.6193,4.6208,4.6195,4.6207,4.6191,4.6194,4.6203,4.6204,4.6204,4.6204,4.6204,4.6204,4.6204,4.6204,4.6204,4.6204,4.6204,4.6204,4.6204,4.6229,4.6249,4.6204,4.6229,4.625,4.625,4.625,4.625,4.6248,4.6248,4.6248,4.6247,4.6221,4.6212,4.6242,4.6213,4.6206,4.6203,4.6206,4.6199,4.6199,4.6199,4.6185,4.6146,4.6146,4.6122,4.6056,4.6056,4.6022,4.6002,4.6002,4.6002,4.6002,4.6002,4.6002,4.6002,4.6002,4.6002,4.6002,4.6002,4.6002,4.6002,4.6002,4.6002,4.6002,4.6002,4.6002,4.6002,4.6002,4.6002,4.6002,4.6002,4.6002,4.6002,4.6002,4.6002,4.6002,4.6002,4.6002,4.598,4.5955,4.5949,4.5912,4.5805,4.5821,4.5807,4.5715,4.568,4.5648,4.5601,4.5467,4.536,4.5307,4.5307,4.5307,4.5307,4.5307,4.5307,4.5307,4.5307,4.5307,4.0545,4.2112,4.3887,4.5484,4.5998,4.6101,4.617,4.6195,4.6197,4.6197,4.6197,4.6206,4.6206,4.6199,4.6193,4.6192,4.6197,4.6208,4.6192,4.6195,4.6195,4.6195,4.6195,4.6195,4.6195,4.6195,4.6195,4.6195,4.6195,4.6195,4.6195,4.6199,4.6199,4.6195,4.6199,4.62,4.62,4.62,4.6201,4.6204,4.6204,4.6204,4.6205,4.6199,4.6239,4.6305,4.6242,4.6212,4.6211,4.6228,4.6216,4.6216,4.6216,4.6213,4.6206,4.6206,4.6165,4.6126,4.6098,4.6051,4.6012,4.6002,4.6002,4.6002,4.6002,4.6002,4.6002,4.6002,4.6002,4.6002,4.6002,4.6002,4.6002,4.6002,4.6002,4.6002,4.6002,4.6002,4.6002,4.6002,4.6002,4.6002,4.6002,4.6002,4.6002,4.6002,4.6002,4.6002,4.6002,4.6002,4.6002,4.6002,4.6002,4.5969,4.5912,4.5978,4.5935,4.5764,4.5859,4.5859,4.5739,4.561,4.5485,4.537,4.5339,4.5339,4.537,4.537,4.537,4.537,4.537,4.537,3.9638,4.1646,4.3733,4.4722,4.5534,4.6105,4.6103,4.6153,4.6209,4.6209,4.6209,4.6206,4.6199,4.6199,4.6199,4.6206,4.6209,4.6193,4.62,4.62,4.62,4.62,4.62,4.62,4.62,4.62,4.62,4.62,4.62,4.62,4.62,4.6197,4.6199,4.62,4.6197,4.6195,4.6195,4.6195,4.6206,4.6204,4.6204,4.6204,4.6204,4.6208,4.623,4.6305,4.6285,4.6294,4.6296,4.6294,4.6292,4.6292,4.6292,4.624,4.6201,4.6201,4.6183,4.6185,4.613,4.6093,4.608,4.6017,4.6002,4.6002,4.6002,4.6002,4.6002,4.6002,4.6002,4.6002,4.6002,4.6002,4.6002,4.6002,4.6002,4.6002,4.6002,4.6002,4.6002,4.6002,4.6002,4.6002,4.6002,4.6002,4.6002,4.6002,4.6002,4.6002,4.6002,4.6002,4.6002,4.6002,4.6002,4.5997,4.5986,4.5991,4.5991,4.5969,4.5918,4.5893,4.588,4.5746,4.5648,4.5651,4.554,4.5531,4.5651,4.5651,4.5651,4.5651,4.5651,4.5651,3.9809,4.1451,4.2996,4.4394,4.5036,4.5444,4.5977,4.6111,4.615,4.6192,4.6199,4.6199,4.6199,4.6199,4.6199,4.6199,4.6199,4.6199,4.6199,4.6199,4.6199,4.6199,4.6199,4.6199,4.6199,4.6199,4.6199,4.6199,4.6199,4.6199,4.6199,4.62,4.6203,4.6199,4.62,4.6192,4.6192,4.6192,4.6203,4.6199,4.6199,4.6199,4.6201,4.62,4.6219,4.6249,4.6286,4.6284,4.6249,4.6273,4.6309,4.6299,4.6306,4.6275,4.6267,4.6267,4.6233,4.6206,4.617,4.6153,4.6146,4.608,4.6066,4.6061,4.6012,4.6002,4.6002,4.6002,4.6002,4.6002,4.6002,4.6002,4.6002,4.6002,4.6002,4.6002,4.6002,4.6002,4.6002,4.6002,4.6002,4.6002,4.6002,4.6002,4.6002,4.6002,4.6002,4.6002,4.6002,4.6002,4.6002,4.6002,4.6002,4.6002,4.6002,4.6002,4.6002,4.6002,4.5964,4.596,4.596,4.5867,4.5833,4.5874,4.5704,4.5651,4.5708,4.5708,4.5708,4.5708,4.5708,4.5708,3.9499,4.0732,4.179,4.3562,4.4362,4.4882,4.5575,4.5924,4.6106,4.6158,4.6192,4.6199,4.6199,4.6199,4.6199,4.6199,4.6199,4.6199,4.6199,4.6199,4.6199,4.6199,4.6199,4.6199,4.6199,4.6199,4.6199,4.6199,4.6199,4.6199,4.6199,4.6199,4.6199,4.6199,4.6199,4.6199,4.6199,4.6199,4.6199,4.6199,4.6199,4.6199,4.6199,4.6198,4.6208,4.6191,4.6249,4.6249,4.6205,4.6247,4.6265,4.6269,4.6263,4.6278,4.6278,4.6278,4.6233,4.6202,4.6208,4.6209,4.6183,4.6131,4.6134,4.6126,4.6071,4.6032,4.6022,4.6022,4.6012,4.6002,4.6002,4.6002,4.6002,4.6002,4.6002,4.6002,4.6002,4.6002,4.6002,4.6002,4.6002,4.6002,4.6002,4.6002,4.6002,4.6002,4.6002,4.6002,4.6002,4.6002,4.6002,4.6002,4.6002,4.6002,4.6002,4.6002,4.6002,4.6002,4.6002,4.6002,4.6002,4.5955,4.5955,4.5997,4.5841,4.5778,4.5778,4.5778,4.5778,4.5778,4.5778,4.5778,3.787,3.8972,4.0023,4.1725,4.344,4.4703,4.4767,4.5463,4.6098,4.6098,4.6154,4.6199,4.6199,4.6199,4.6199,4.6199,4.6199,4.6199,4.6199,4.6199,4.6199,4.6199,4.6199,4.6199,4.6199,4.6199,4.6199,4.6199,4.6199,4.6199,4.6199,4.6199,4.6199,4.6199,4.6199,4.6199,4.6199,4.6199,4.6199,4.6199,4.6199,4.6199,4.6199,4.6199,4.6203,4.6193,4.6209,4.6205,4.6204,4.6205,4.6205,4.6205,4.6205,4.6206,4.6206,4.6206,4.6206,4.6209,4.6204,4.6194,4.6206,4.6203,4.6196,4.6196,4.6192,4.6146,4.6093,4.6093,4.6061,4.6002,4.6002,4.6002,4.6002,4.6002,4.6002,4.6002,4.6002,4.6002,4.6002,4.6002,4.6002,4.6002,4.6002,4.6002,4.6002,4.6002,4.6002,4.6002,4.6002,4.6002,4.6002,4.6002,4.6002,4.6002,4.6002,4.6002,4.6002,4.6002,4.6002,4.6002,4.6002,4.5997,4.5997,4.6002,4.5991,4.5986,4.5986,4.5986,4.5986,4.5986,4.5986,4.5986,3.7193,3.8411,3.9771,4.0951,4.2105,4.3124,4.3728,4.4558,4.5201,4.5252,4.5761,4.6199,4.6199,4.6199,4.6199,4.6199,4.6199,4.6199,4.6199,4.6199,4.6199,4.6199,4.6199,4.6199,4.6199,4.6199,4.6199,4.6199,4.6199,4.6199,4.6199,4.6199,4.6199,4.6199,4.6199,4.6199,4.6199,4.6199,4.6199,4.6199,4.6199,4.6199,4.6199,4.6199,4.6199,4.6199,4.6198,4.6192,4.6194,4.6195,4.6198,4.6206,4.62,4.6204,4.6204,4.6204,4.6204,4.6205,4.6191,4.6191,4.6191,4.6203,4.6206,4.6189,4.6153,4.6157,4.6158,4.6158,4.6146,4.6134,4.6134,4.6134,4.6126,4.608,4.6051,4.6042,4.6007,4.6002,4.6002,4.6002,4.6002,4.6002,4.6002,4.6002,4.6002,4.6002,4.6002,4.6012,4.6066,4.6051,4.6051,4.6051,4.6051,4.6056,4.6002,4.6002,4.6017,4.6071,4.6051,4.6084,4.6134,4.6134,4.6134,4.6134,4.6084,4.6037,4.6002,4.6002,4.6002,4.6002,4.6002,4.6002,3.6826,3.7754,3.892,4.0062,4.099,4.1828,4.2729,4.3616,4.4369,4.4696,4.5267,4.5788,4.608,4.6138,4.6146,4.6192,4.6199,4.6199,4.6199,4.6199,4.6199,4.6199,4.6199,4.6199,4.6199,4.6199,4.6199,4.6199,4.6199,0.0,4.6199,4.6199,4.6199,4.6199,4.6199,4.6199,4.6199,4.6199,4.6199,4.6199,4.6199,4.6199,4.6199,4.6199,4.6199,4.6199,4.6199,4.6199,4.6203,4.6204,4.6191,4.6189,4.6195,4.6202,4.6202,4.6202,4.6202,4.6204,4.6192,4.6195,4.6198,4.6209,4.6191,4.6187,4.6142,4.6158,4.6201,4.6201,4.62,4.6199,4.6199,4.6199,4.6192,4.6146,4.6126,4.6089,4.6037,4.6012,4.6002,4.6002,4.6002,4.6002,4.6002,4.6002,4.6007,4.6022,4.6027,4.6066,4.6115,4.6138,4.6138,4.6138,4.6138,4.6126,4.6075,4.6071,4.6084,4.6138,4.6138,4.615,4.6196,4.6199,4.6199,4.6199,4.6154,4.6106,4.6071,4.6017,4.6002,4.6002,4.6002,4.6002,0.0,0.0,0.0,3.9056,4.0139,4.1009,4.1796,4.2685,4.3598,4.4451,4.4652,4.4967,4.5808,4.5982,4.6032,4.6162,4.6196,4.6196,4.6196,4.6196,4.6196,4.6196,4.6196,4.6199,4.6199,4.6199,4.6199,4.6199,4.6199,4.6199,4.6199,4.6199,4.6199,4.6199,4.6199,4.6199,4.6199,4.6199,4.6199,4.6199,4.6199,4.6199,4.6199,4.6199,4.6199,4.6199,4.6199,4.6199,4.6199,4.6199,4.6199,4.6199,4.6199,4.6199,4.6199,4.6199,4.6199,4.6206,4.6192,4.6206,4.6191,4.6198,4.6203,4.6203,4.6203,4.6191,4.6196,4.6196,4.6204,4.6206,4.6203,4.6203,4.6199,4.6199,4.615,4.6102,4.6098,4.6042,4.6002,4.6002,4.6002,4.6002,4.6002,4.6002,4.6022,4.6089,4.6098,4.6134,4.6196,4.6199,4.6199,4.6199,4.6199,4.6199,4.6199,4.6199,4.6199,4.6199,4.6199,4.6199,4.6203,4.6203,4.6203,4.6203,4.6199,4.6199,4.6199,4.6075,4.6002,4.6002,4.6002,4.6002,3.6129,0.0,0.0,0.0,0.0,0.0,4.1087,4.1813,4.2538,4.277,4.3823,4.4773,4.5025,4.5569,4.6012,4.6061,4.6066,4.6066,4.6066,4.6093,4.6134,4.6134,4.6162,4.6199,4.6199,4.6199,4.6199,0.0,4.6199,4.6199,4.6199,4.6199,4.6199,4.6199,4.6199,4.6199,4.6199,4.6199,4.6199,4.6199,4.6199,4.6199,4.6199,4.6199,4.6199,4.6199,4.6199,4.6199,4.6199,4.6199,4.6199,4.6199,4.6199,4.6199,4.6199,4.6199,4.6199,4.6199,4.6196,4.62,4.6203,4.6195,4.6201,4.62,4.62,4.62,4.6191,4.6191,4.6191,4.6209,4.6258,4.6261,4.626,4.6201,4.6189,4.6177,4.6169,4.613,4.6066,4.6007,4.6002,4.6002,4.6002,4.6032,4.608,4.6093,4.6142,4.6176,4.6192,4.6195,4.6195,4.6195,4.6195,4.6206,4.6199,4.6199,4.6209,4.6195,4.6195,4.6226,4.6262,4.6264,4.6264,4.6264,4.6226,4.6195,4.6195,4.6103,4.6075,4.6075,4.6017,4.6002,3.6864,3.7831,3.8914,3.8779,0.0,0.0,4.0719,4.1195,4.1651,4.1993,4.2875,4.3674,4.4042,4.4527,4.4992,4.5361,4.5419,4.5553,4.5933,4.6027,4.6066,4.6066,4.6089,4.6126,4.6126,4.6126,4.6134,4.6154,4.6154,4.6162,4.6196,4.6199,4.6199,4.6199,4.6199,4.6199,4.6199,4.6199,4.6199,4.6199,4.6199,4.6199,4.6199,4.6199,4.6199,4.6199,4.6199,4.6199,4.6199,4.6199,4.6199,4.6199,4.6199,4.6199,4.6199,4.6199,4.6199,4.6199,4.6199,4.6199,4.6199,4.6199,4.62,4.6201,4.6201,4.621,4.6192,4.6192,4.6199,4.6226,4.6289,4.6302,4.6291,4.6249,4.6216,4.6203,4.6206,4.6173,4.6111,4.6042,4.6032,4.6027,4.6002,4.608,4.6142,4.6142,4.6176,4.6212,4.624,4.6243,4.6243,4.6243,4.6243,4.6238,4.624,4.624,4.6245,4.6243,4.6243,4.6269,4.63,4.63,4.63,4.63,4.6269,4.6238,4.6206,4.6157,4.6142,4.6142,4.6075,4.6032,3.8232,3.8406,3.876,3.9346,3.9713,0.0,4.0681,4.0874,4.1087,4.1603,4.1796,4.2106,4.2879,4.3092,4.344,4.4304,4.4536,4.4912,4.5847,4.5986,4.5991,4.5991,4.5997,4.6002,4.6002,4.6002,4.6022,4.6093,4.6102,4.6142,4.6196,4.6192,4.6192,4.6192,4.6189,4.6185,4.6185,4.6185,4.6185,4.6185,4.6185,4.6185,4.6185,4.6189,4.6192,4.6192,4.6196,4.6199,4.6199,4.6199,4.6199,4.6199,4.6199,4.6199,4.6199,4.6199,4.6199,4.6199,4.6199,4.6199,4.6199,4.6199,4.6199,4.6199,4.6199,4.6189,4.6201,4.6201,4.6204,4.6205,4.6269,4.6289,4.6287,4.6291,4.6253,4.6216,4.6214,4.6209,4.6176,4.6119,4.6106,4.6089,4.6027,4.6115,4.6203,4.6203,4.6212,4.624,4.6298,4.63,4.63,4.63,4.63,4.63,4.63,4.63,4.63,4.63,4.63,4.63,4.63,4.63,4.63,4.63,4.63,4.6273,4.6211,4.6203,4.6203,4.6196,4.6142,4.6102,3.8392,3.9707,4.0984,3.9791,0.0,0.0,4.1067,4.1293,4.1429,4.0236,4.0545,4.1087,4.1261,4.1816,4.2531,4.3421,4.413,4.4898,4.5725,4.5893,4.5929,4.5929,4.5969,4.6002,4.6002,4.6002,4.6022,4.6093,4.615,4.6189,4.6196,4.6146,4.613,4.613,4.6071,4.6032,4.6032,4.6032,4.6032,4.6032,4.6032,4.6032,4.6032,4.6093,4.613,4.6111,4.6185,4.6199,4.6199,4.6199,4.6199,4.6199,4.6199,4.6199,4.6199,4.6199,4.6199,4.6199,4.6199,4.6199,4.6199,4.6199,4.6199,4.6199,4.6199,4.6206,4.6193,4.6193,4.6209,4.6199,4.6223,4.6218,4.6229,4.6287,4.6284,4.6279,4.628,4.6238,4.6198,4.6173,4.6187,4.6185,4.6158,4.6174,4.6198,4.6198,4.624,4.6296,4.63,4.63,4.63,4.63,4.63,4.63,4.63,4.63,4.63,4.63,4.63,4.63,4.63,4.63,4.63,4.63,4.63,4.6298,4.6275,4.6233,4.6206,4.6199,4.6189,4.6185,3.9727,4.0423,4.1293,4.0855,0.0,0.0,0.0,4.139,4.1274,4.0835,4.0777,4.0913,4.1313,4.139,4.168,4.2512,4.3015,4.3595,4.4446,4.5292,4.5861,4.5861,4.5886,4.5892,4.5892,4.5892,4.5935,4.5997,4.6071,4.6098,4.6098,4.6075,4.6042,4.6042,4.6012,4.6002,4.6002,4.6002,4.6002,4.6002,4.6002,4.6002,4.6002,4.6027,4.6042,4.6042,4.6084,4.6098,4.6098,4.6098,4.6098,4.6102,4.6162,4.6199,4.6199,4.6199,4.6199,4.6199,4.6199,4.6199,4.6199,4.6199,4.6199,4.6199,4.6199,4.6199,4.6199,4.6199,4.6196,4.6201,4.6201,4.6199,4.6217,4.6289,4.6307,4.6305,4.6306,4.6273,4.6245,4.6245,4.6255,4.6237,4.6203,4.624,4.6243,4.6209,4.6269,4.63,4.63,4.63,4.63,4.63,4.63,4.63,4.63,4.63,4.63,4.63,4.63,4.63,4.63,4.63,4.63,4.63,4.63,4.63,4.63,4.6271,4.626,4.6245,4.6212,4.6203,0.0,0.0,0.0,0.0,0.0,4.1564,0.0,0.0,0.0,4.1376,4.0945,4.0707,4.1364,4.0971,4.0816,4.1641,4.1893,0.0,0.0,4.4349,0.0,4.5323,4.5323,4.5381,4.5548,4.5582,4.5673,4.5886,4.5814,4.5827,4.5982,4.5991,4.5986,4.5986,4.5975,4.5969,4.5969,4.5969,4.5969,4.5969,4.5969,4.5969,4.5969,4.598,4.5986,4.5986,4.5997,4.6002,4.6002,4.6002,4.6002,4.6012,4.6138,4.6189,4.6189,4.6196,4.6199,4.6199,4.6199,4.6199,4.6199,4.6199,4.6199,4.6199,4.6199,4.6199,4.6199,4.6199,4.6199,4.6209,4.6206,4.6197,4.6212,4.6268,4.6289,4.6289,4.6279,4.6274,4.6274,4.6308,4.6291,4.6264,4.6231,4.6258,4.6275,4.6238,4.6271,4.63,4.63,4.63,4.63,4.63,4.63,4.63,4.63,4.63,4.63,4.63,4.63,4.63,4.63,4.63,4.63,4.63,4.63,4.63,4.63,4.63,4.63,4.63,4.6245,4.6214,0.0,0.0,0.0,0.0,4.257,0.0,0.0,0.0,4.1247,3.9745,0.0,3.9504,3.9581,0.0,0.0,0.0,0.0,0.0,4.2125,4.2976,4.3576,4.3576,4.3576,4.3885,4.4659,4.4789,4.5124,4.5853,4.5246,4.5181,4.5963,4.5933,4.5904,4.5904,4.5841,4.5808,4.5808,4.5808,4.5808,4.5808,4.5808,4.5808,4.5815,4.5873,4.5904,4.5904,4.598,4.6002,4.6002,4.6002,4.6002,4.6007,4.6084,4.6102,4.613,4.6185,4.6199,4.6199,4.6199,4.6199,4.6199,4.6199,4.6199,4.6199,4.6199,4.6199,4.6199,4.6199,4.6199,4.6199,4.6206,4.6206,4.6203,4.621,4.6218,4.6206,4.6205,4.6208,4.6229,4.6287,4.625,4.623,4.6284,4.6298,4.63,4.6298,4.63,4.63,4.63,4.63,4.63,4.63,4.63,4.63,4.63,4.63,4.63,4.63,4.63,4.63,4.63,4.63,4.63,4.63,4.63,4.63,4.63,4.63,4.63,4.63,4.6298,4.6298,0.0,0.0,0.0,0.0,0.0,0.0,4.1399,0.0,4.0872,0.0,0.0,0.0,0.0,0.0,0.0,0.0,4.1087,0.0,0.0,0.0,4.2202,4.3189,0.0,0.0,4.3808,4.3873,4.4028,4.4376,4.4556,4.4801,4.5176,4.5596,4.5828,4.5828,4.5801,4.5807,4.5807,4.5807,4.5807,4.5807,4.5807,4.5807,4.5807,4.5834,4.5828,4.5835,4.5861,4.5873,4.5873,4.5873,4.5873,4.588,4.5964,4.6027,4.6098,4.6138,4.6177,4.6199,4.6199,4.6199,4.6199,4.6199,4.6199,4.6199,4.6199,4.6199,4.6199,4.6199,4.6199,4.6199,4.6199,4.6199,4.6187,4.6159,4.6145,4.6133,4.6136,4.6149,4.6157,4.6184,4.6184,4.6207,4.623,4.6265,4.6296,4.6303,4.63,4.63,4.63,4.63,4.63,4.63,4.63,4.6306,4.6299,4.63,4.6284,4.6249,4.6284,4.63,4.63,4.6308,4.63,4.63,4.63,4.63,4.63,4.63,4.63,4.63,4.63,4.63,4.2087,0.0,0.0,0.0,0.0,0.0,0.0,0.0,0.0,0.0,0.0,0.0,0.0,0.0,0.0,0.0,0.0,4.0797,0.0,4.0797,0.0,0.0,0.0,0.0,0.0,4.2937,4.3034,4.3285,4.3672,4.4098,4.4574,4.5142,4.5568,4.5787,4.5807,4.5807,4.5807,4.5807,4.5807,4.5807,4.5807,4.5807,4.5807,4.5807,4.5807,4.5807,4.5807,4.5807,4.5807,4.5807,4.5807,4.5787,4.5841,4.5933,4.6056,4.6071,4.6098,4.6146,4.6146,4.6154,4.6185,4.6196,4.6199,4.6199,4.6199,4.6199,4.6196,4.6185,4.6162,4.6181,4.615,4.6146,4.6131,4.6087,4.6068,4.6075,4.6066,4.6069,4.6069,4.606,4.6132,4.6165,4.6178,4.6229,4.6269,4.6261,4.6295,4.6291,4.6291,4.6291,4.6291,4.6291,4.6277,4.6264,4.6269,4.6269,4.6249,4.6205,4.6249,4.6289,4.6307,4.6299,4.6308,4.63,4.63,4.63,4.63,4.63,4.63,4.63,4.63,4.63,0.0,0.0,0.0,4.201,0.0,0.0,0.0,0.0,4.109,0.0,0.0,0.0,0.0,0.0,0.0,0.0,0.0,0.0,0.0,0.0,0.0,0.0,0.0,0.0,0.0,4.2048,4.2396,0.0,4.2531,4.2821,4.4516,4.4613,4.5007,4.5787,4.5807,4.5807,4.5807,4.5807,4.5807,4.5807,4.5807,4.5807,4.5807,4.5807,4.5807,4.5807,4.5807,4.5807,4.5807,4.5807,4.5807,4.5807,4.5807,4.5854,4.5904,4.598,4.6002,4.6007,4.6007,4.6056,4.6106,4.6185,4.6199,4.6199,4.6199,4.6199,4.6189,4.6111,4.6098,4.6089,4.6017,4.6007,4.6007,4.6007,4.6007,4.6007,4.6007,4.6007,4.5993,4.6006,4.606,4.6103,4.6095,4.6158,4.6205,4.6205,4.6269,4.6306,4.6306,4.6306,4.6306,4.6306,4.6249,4.6205,4.6205,4.6205,4.6205,4.6204,4.6205,4.6229,4.6307,4.6307,4.6301,4.6302,4.63,4.63,4.63,4.63,4.63,4.63,4.63,4.63,0.0,0.0,4.3612,4.3008,0.0,0.0,0.0,0.0,0.0,0.0,0.0,0.0,0.0,0.0,0.0,0.0,0.0,0.0,0.0,0.0,0.0,0.0,0.0,0.0,0.0,0.0,0.0,0.0,4.2705,0.0,4.4536,4.5104,4.551,4.5787,4.5807,4.5807,4.5807,4.5807,4.5807,4.5807,4.5807,4.5807,4.5807,4.5807,4.5807,4.5807,4.5807,4.5807,4.5807,4.5807,4.5807,4.5807,4.5807,4.5801,4.5828,4.5917,4.5969,4.6002,4.6002,4.6012,4.6032,4.6066,4.6093,4.6138,4.6138,4.6158,4.6189,4.613,4.6098,4.6084,4.6012,4.6002,4.6127,4.6665,4.6789,4.6932,4.7469,4.7611,4.748,4.6907,4.6862,4.6732,4.6185,4.6112,4.6147,4.618,4.6227,4.6249,4.6288,4.6269,4.6249,4.6307,4.6249,4.62,4.6204,4.6204,4.6209,4.6209,4.6193,4.6215,4.6229,4.6289,4.6302,4.6302,4.63,4.63,4.63,4.63,4.63,4.63,4.63,4.63,4.4286,4.4344,0.0,4.3751,4.3281,0.0,4.1535,0.0,0.0,0.0,0.0,0.0,0.0,0.0,0.0,0.0,0.0,0.0,0.0,4.0797,0.0,0.0,0.0,4.0797,0.0,4.0797,4.1009,4.1525,4.2357,4.3227,0.0,0.0,4.5807,4.5807,4.6097,4.6116,4.5807,4.5807,4.5807,4.5807,4.5807,4.5807,4.5807,4.5807,4.5807,4.5807,4.5807,4.5807,4.5807,4.5807,4.5807,4.5807,4.5807,4.5807,4.5814,4.5854,4.588,4.5922,4.5964,4.5969,4.5975,4.5991,4.6022,4.6051,4.6051,4.6093,4.6106,4.6056,4.6022,4.6012,4.5953,4.5935,4.6059,4.6578,4.6933,4.7307,4.7826,4.8215,4.8308,4.7746,4.7436,4.7101,4.6581,4.6251,4.6103,4.6191,4.6209,4.6218,4.6267,4.6221,4.6219,4.6267,4.6235,4.6193,4.6209,4.6469,4.6667,4.6667,4.695,4.6984,4.6682,4.6696,4.6581,4.6313,4.6598,4.6612,4.63,4.6612,4.6593,4.63,4.63,4.63]}]]